Darstellungsparameter: Aktuell verwendete Einstellungen:
Skalierung der Graphiken ... ?
xyx+y,   Skalierungsfaktor:      Skalierung: Modus: x, Faktor: 1
Darstellungszeitraum ... ?
Vom - - bis: - -   Zeitraum: 14.03.2020 - 11.04.2020
Min/Max/Avg-Anzeige ... ?
Zeige MMA aktuell
Zeige MMA Monat
Zeige MMA alles
Zeige --A aktuell
Zeige --A Monat
Zeige --A alles
Keine MMA-Anzeige
MMA:
Keine MMA-Graphiken
MMA-Basis: 14.03.2020 - 11.04.2020
Quicknavigation für Darstellung... ?
Tage:      1T, 2T, 3T, 5T -1T -2T -3T -5T +1T +2T +3T +5T
Wochen: 1W, 2W, 3W -1W -2W -3W +1W +2W +3W
Monate: 1M, 3M, 6M -1M -3M -6M +1M +3M +6M
Jahre:    1J, 3J, 5J, 10J -1J -3J -5J -10J +1J +3J +5J +10J
Nutze für die Darstellung ... ?
Originaldaten oder Mittelwerte auf ...
Stundenbasis Tagesbasis Wochenbasis
Monatsbasis Jahresbasis      Datenbasis: Original-Daten
Darstellen als:
Statistik (Auto) Statistik J:M      Darstellung:
Zur Graphik,    zurück zur Übersicht aller Sensoren.
 
Tabellarische Datenbersicht: ?
 
Sensor: Nr:Datum:Temp:Feuchte:
Aussen-T/F 1 14-03-2020 00:09:17 4.8 C 41 %
2 14-03-2020 00:19:18 4.6 C 41 %
3 14-03-2020 00:29:18 4.4 C 41 %
4 14-03-2020 00:39:18 3.7 C 42 %
5 14-03-2020 00:49:17 3.5 C 44 %
6 14-03-2020 00:59:17 3 C 43 %
7 14-03-2020 01:09:18 2.6 C 45 %
8 14-03-2020 01:19:17 2.4 C 46 %
9 14-03-2020 01:29:18 2 C 45 %
10 14-03-2020 01:39:18 2 C 46 %
11 14-03-2020 01:49:17 2.4 C 48 %
12 14-03-2020 01:59:18 2.8 C 49 %
13 14-03-2020 02:09:18 3.3 C 47 %
14 14-03-2020 02:19:18 3.6 C 46 %
15 14-03-2020 02:29:18 3.3 C 45 %
16 14-03-2020 02:39:18 3 C 45 %
17 14-03-2020 02:49:18 2.8 C 45 %
18 14-03-2020 02:59:18 2.3 C 46 %
19 14-03-2020 03:09:18 2.2 C 46 %
20 14-03-2020 03:19:17 1.5 C 47 %
21 14-03-2020 03:29:17 1.3 C 47 %
22 14-03-2020 03:39:17 1.4 C 48 %
23 14-03-2020 03:49:18 1.5 C 48 %
24 14-03-2020 03:59:18 1.5 C 49 %
25 14-03-2020 04:09:17 1.7 C 49 %
Sensor: Nr:Datum:Temp:Feuchte:
Aussen-T/F 26 14-03-2020 04:19:17 1.6 C 48 %
27 14-03-2020 04:29:17 1.6 C 49 %
28 14-03-2020 04:39:17 1.5 C 48 %
29 14-03-2020 04:49:17 1.3 C 48 %
30 14-03-2020 04:59:17 1.3 C 48 %
31 14-03-2020 05:09:17 1.3 C 49 %
32 14-03-2020 05:19:17 1.1 C 48 %
33 14-03-2020 05:29:17 0.8 C 49 %
34 14-03-2020 05:39:18 0.9 C 50 %
35 14-03-2020 05:49:17 1.3 C 49 %
36 14-03-2020 05:59:17 0.5 C 49 %
37 14-03-2020 06:09:18 0.3 C 49 %
38 14-03-2020 06:19:18 0.6 C 50 %
39 14-03-2020 06:29:18 0.4 C 49 %
40 14-03-2020 06:39:18 0.4 C 50 %
41 14-03-2020 06:49:17 0.8 C 50 %
42 14-03-2020 06:59:17 0.8 C 50 %
43 14-03-2020 07:09:17 0.7 C 50 %
44 14-03-2020 07:19:17 0.8 C 50 %
45 14-03-2020 07:29:17 0.6 C 49 %
46 14-03-2020 07:39:18 0.6 C 49 %
47 14-03-2020 07:49:17 0.8 C 49 %
48 14-03-2020 07:59:17 0.8 C 50 %
49 14-03-2020 08:09:17 1 C 48 %
50 14-03-2020 08:19:17 1.4 C 49 %
Sensor: Nr:Datum:Temp:Feuchte:
Aussen-T/F 51 14-03-2020 08:29:17 1.7 C 49 %
52 14-03-2020 08:39:18 1.9 C 49 %
53 14-03-2020 08:49:17 2.2 C 48 %
54 14-03-2020 08:59:17 2.5 C 48 %
55 14-03-2020 09:09:17 2.8 C 48 %
56 14-03-2020 09:19:17 3.4 C 46 %
57 14-03-2020 09:29:17 3.7 C 45 %
58 14-03-2020 09:39:18 4.1 C 43 %
59 14-03-2020 09:49:17 4.5 C 43 %
60 14-03-2020 09:59:17 5 C 41 %
61 14-03-2020 10:09:18 5.7 C 41 %
62 14-03-2020 10:19:18 6 C 39 %
63 14-03-2020 10:29:18 6.8 C 40 %
64 14-03-2020 10:39:18 7.7 C 38 %
65 14-03-2020 10:49:17 7.7 C 37 %
66 14-03-2020 10:59:17 8.4 C 36 %
67 14-03-2020 11:09:18 9 C 35 %
68 14-03-2020 11:19:18 10.4 C 34 %
69 14-03-2020 11:29:18 11 C 31 %
70 14-03-2020 11:39:18 10.4 C 31 %
71 14-03-2020 11:49:17 10.1 C 32 %
72 14-03-2020 11:59:17 11.3 C 31 %
73 14-03-2020 12:09:18 13 C 27 %
74 14-03-2020 12:19:17 12.4 C 27 %
75 14-03-2020 12:29:18 12 C 27 %
Sensor: Nr:Datum:Temp:Feuchte:
Aussen-T/F 76 14-03-2020 12:39:18 11.3 C 28 %
77 14-03-2020 12:49:17 11.5 C 28 %
78 14-03-2020 12:59:17 13.1 C 26 %
79 14-03-2020 13:09:18 12.9 C 25 %
80 14-03-2020 13:19:17 13 C 22 %
81 14-03-2020 13:29:17 13.3 C 23 %
82 14-03-2020 13:39:17 12.5 C 22 %
83 14-03-2020 13:49:17 12.4 C 22 %
84 14-03-2020 13:59:17 13.8 C 21 %
85 14-03-2020 14:09:18 12.3 C 22 %
86 14-03-2020 14:19:17 12.5 C 21 %
87 14-03-2020 14:29:17 14 C 20 %
88 14-03-2020 14:39:17 13.7 C 20 %
89 14-03-2020 14:49:18 12.3 C 20 %
90 14-03-2020 14:59:18 11.6 C 23 %
91 14-03-2020 15:09:18 11.4 C 22 %
92 14-03-2020 15:19:17 12.1 C 21 %
93 14-03-2020 15:29:17 12.1 C 20 %
94 14-03-2020 15:39:18 11.7 C 21 %
95 14-03-2020 15:49:17 12 C 20 %
96 14-03-2020 15:59:17 11.8 C 21 %
97 14-03-2020 16:09:18 11.2 C 23 %
98 14-03-2020 16:19:17 10.6 C 25 %
99 14-03-2020 16:29:17 10.4 C 26 %
100 14-03-2020 16:39:18 9.9 C 26 %
Sensor: Nr:Datum:Temp:Feuchte:
Aussen-T/F 101 14-03-2020 16:49:18 10.1 C 26 %
102 14-03-2020 16:59:18 9.8 C 27 %
103 14-03-2020 17:09:18 10.3 C 26 %
104 14-03-2020 17:19:17 10.3 C 26 %
105 14-03-2020 17:29:17 10.7 C 26 %
106 14-03-2020 17:39:17 9.6 C 27 %
107 14-03-2020 17:49:17 9.3 C 28 %
108 14-03-2020 17:59:17 8.6 C 30 %
109 14-03-2020 18:09:17 8.1 C 31 %
110 14-03-2020 18:19:17 7.3 C 33 %
111 14-03-2020 18:29:17 7.1 C 33 %
112 14-03-2020 18:39:17 6.3 C 36 %
113 14-03-2020 18:49:17 5.9 C 37 %
114 14-03-2020 18:59:17 5.9 C 38 %
115 14-03-2020 19:09:17 5.3 C 38 %
116 14-03-2020 19:19:17 5.5 C 39 %
117 14-03-2020 19:29:17 5.1 C 39 %
118 14-03-2020 19:39:17 5.6 C 39 %
119 14-03-2020 19:49:17 5.2 C 39 %
120 14-03-2020 19:59:17 5.3 C 39 %
121 14-03-2020 20:09:18 5.3 C 39 %
122 14-03-2020 20:19:18 5.3 C 39 %
123 14-03-2020 20:29:18 5.3 C 39 %
124 14-03-2020 20:39:18 5.6 C 39 %
125 14-03-2020 20:49:17 5.5 C 39 %
Sensor: Nr:Datum:Temp:Feuchte:
Aussen-T/F 126 14-03-2020 20:59:18 5.7 C 39 %
127 14-03-2020 21:09:18 5.7 C 39 %
128 14-03-2020 21:19:18 5.7 C 39 %
129 14-03-2020 21:29:18 5.6 C 38 %
130 14-03-2020 21:39:17 5.1 C 39 %
131 14-03-2020 21:49:18 5.2 C 39 %
132 14-03-2020 21:59:18 5 C 39 %
133 14-03-2020 22:09:18 5 C 39 %
134 14-03-2020 22:19:17 5 C 39 %
135 14-03-2020 22:29:17 5 C 39 %
136 14-03-2020 22:39:18 5.1 C 39 %
137 14-03-2020 22:49:18 4.8 C 40 %
138 14-03-2020 22:59:18 5.1 C 39 %
139 14-03-2020 23:09:17 5.5 C 39 %
140 14-03-2020 23:19:17 5.7 C 39 %
141 14-03-2020 23:29:17 5.6 C 40 %
142 14-03-2020 23:39:17 5.6 C 39 %
143 14-03-2020 23:49:18 5.8 C 40 %
144 14-03-2020 23:59:18 5.8 C 40 %
145 15-03-2020 00:09:18 5.9 C 39 %
146 15-03-2020 00:19:17 5.8 C 39 %
147 15-03-2020 00:29:17 6.1 C 37 %
148 15-03-2020 00:39:18 6 C 38 %
149 15-03-2020 00:49:18 5.6 C 39 %
150 15-03-2020 00:59:18 5.3 C 39 %
Sensor: Nr:Datum:Temp:Feuchte:
Aussen-T/F 151 15-03-2020 01:09:17 5.1 C 40 %
152 15-03-2020 01:19:18 5.1 C 39 %
153 15-03-2020 01:29:18 5.5 C 39 %
154 15-03-2020 01:39:17 5.2 C 40 %
155 15-03-2020 01:49:17 5.2 C 40 %
156 15-03-2020 01:59:17 5.2 C 40 %
157 15-03-2020 02:09:17 5.1 C 40 %
158 15-03-2020 02:19:17 5.1 C 40 %
159 15-03-2020 02:29:17 4.8 C 40 %
160 15-03-2020 02:39:18 4.5 C 40 %
161 15-03-2020 02:49:17 4.9 C 40 %
162 15-03-2020 02:59:17 5 C 40 %
163 15-03-2020 03:09:17 4.8 C 40 %
164 15-03-2020 03:19:17 4.2 C 40 %
165 15-03-2020 03:29:17 4 C 40 %
166 15-03-2020 03:39:18 4 C 40 %
167 15-03-2020 03:49:17 3.8 C 41 %
168 15-03-2020 03:59:17 3.7 C 42 %
169 15-03-2020 04:09:18 3.7 C 41 %
170 15-03-2020 04:19:18 3.9 C 41 %
171 15-03-2020 04:29:18 3.7 C 41 %
172 15-03-2020 04:39:18 3.8 C 41 %
173 15-03-2020 04:49:17 3.7 C 41 %
174 15-03-2020 04:59:18 3.5 C 41 %
175 15-03-2020 05:09:18 3.5 C 41 %
Sensor: Nr:Datum:Temp:Feuchte:
Aussen-T/F 176 15-03-2020 05:19:17 3.3 C 41 %
177 15-03-2020 05:29:18 3.2 C 41 %
178 15-03-2020 05:39:18 3 C 41 %
179 15-03-2020 05:49:17 3.1 C 41 %
180 15-03-2020 05:59:17 3.1 C 41 %
181 15-03-2020 06:09:18 3.1 C 41 %
182 15-03-2020 06:19:17 3.1 C 41 %
183 15-03-2020 06:29:17 2.9 C 43 %
184 15-03-2020 06:39:18 3.3 C 41 %
185 15-03-2020 06:49:18 3.6 C 41 %
186 15-03-2020 06:59:18 3.3 C 41 %
187 15-03-2020 07:09:18 3 C 42 %
188 15-03-2020 07:19:18 3.1 C 42 %
189 15-03-2020 07:29:18 3.6 C 41 %
190 15-03-2020 07:39:18 3.6 C 41 %
191 15-03-2020 07:49:18 3.5 C 41 %
192 15-03-2020 07:59:18 4 C 41 %
193 15-03-2020 08:09:18 4.8 C 40 %
194 15-03-2020 08:19:18 5.4 C 39 %
195 15-03-2020 08:29:18 5.7 C 39 %
196 15-03-2020 08:39:18 5.9 C 38 %
197 15-03-2020 08:49:17 6.4 C 38 %
198 15-03-2020 08:59:17 6.7 C 38 %
199 15-03-2020 09:09:18 6.8 C 37 %
200 15-03-2020 09:19:18 6.9 C 38 %
Sensor: Nr:Datum:Temp:Feuchte:
Aussen-T/F 201 15-03-2020 09:29:18 7.1 C 37 %
202 15-03-2020 09:39:18 7.8 C 36 %
203 15-03-2020 09:49:18 9.2 C 33 %
204 15-03-2020 09:59:18 9.9 C 32 %
205 15-03-2020 10:09:18 9.9 C 31 %
206 15-03-2020 10:19:18 9.8 C 32 %
207 15-03-2020 10:29:18 10 C 32 %
208 15-03-2020 10:39:18 10.8 C 31 %
209 15-03-2020 10:49:17 11.8 C 29 %
210 15-03-2020 10:59:17 12.5 C 27 %
211 15-03-2020 11:09:17 13.4 C 25 %
212 15-03-2020 11:19:17 14.7 C 23 %
213 15-03-2020 11:29:17 16 C 20 %
214 15-03-2020 11:39:18 15.5 C 20 %
215 15-03-2020 11:49:17 14.9 C 20 %
216 15-03-2020 11:59:18 15.2 C 20 %
217 15-03-2020 12:09:18 14.5 C 20 %
218 15-03-2020 12:19:18 14.1 C 20 %
219 15-03-2020 12:29:18 14.4 C 20 %
220 15-03-2020 12:39:18 14.7 C 20 %
221 15-03-2020 12:49:17 15.2 C 20 %
222 15-03-2020 12:59:17 15.4 C 20 %
223 15-03-2020 13:09:18 14.8 C 20 %
224 15-03-2020 13:19:17 17 C 20 %
225 15-03-2020 13:29:17 18.6 C 20 %
Sensor: Nr:Datum:Temp:Feuchte:
Aussen-T/F 226 15-03-2020 13:39:18 17.4 C 20 %
227 15-03-2020 13:49:17 16.7 C 20 %
228 15-03-2020 13:59:17 16.2 C 20 %
229 15-03-2020 14:09:17 15.5 C 20 %
230 15-03-2020 14:19:17 16.5 C 20 %
231 15-03-2020 14:29:17 16.3 C 20 %
232 15-03-2020 14:39:18 16.6 C 20 %
233 15-03-2020 14:49:17 16.2 C 20 %
234 15-03-2020 14:59:17 16 C 20 %
235 15-03-2020 15:09:17 17.4 C 20 %
236 15-03-2020 15:19:17 20.3 C 20 %
237 15-03-2020 15:29:18 20.4 C 20 %
238 15-03-2020 15:39:18 19.4 C 20 %
239 15-03-2020 15:49:17 20.7 C 20 %
240 15-03-2020 15:59:17 19.9 C 20 %
241 15-03-2020 16:09:17 21.2 C 20 %
242 15-03-2020 16:19:17 20.2 C 20 %
243 15-03-2020 16:29:17 20.5 C 20 %
244 15-03-2020 16:39:17 19.7 C 20 %
245 15-03-2020 16:49:18 18.1 C 20 %
246 15-03-2020 16:59:18 16.9 C 20 %
247 15-03-2020 17:09:18 16 C 20 %
248 15-03-2020 17:19:18 15.5 C 20 %
249 15-03-2020 17:29:18 15.5 C 20 %
250 15-03-2020 17:39:18 14.9 C 20 %
Sensor: Nr:Datum:Temp:Feuchte:
Aussen-T/F 251 15-03-2020 17:49:18 13.8 C 20 %
252 15-03-2020 17:59:18 12.6 C 23 %
253 15-03-2020 18:09:18 12.1 C 25 %
254 15-03-2020 18:19:18 11.7 C 26 %
255 15-03-2020 18:29:18 11.1 C 27 %
256 15-03-2020 18:39:18 10.6 C 28 %
257 15-03-2020 18:49:17 10.4 C 28 %
258 15-03-2020 18:59:17 10 C 28 %
259 15-03-2020 19:09:18 9.6 C 30 %
260 15-03-2020 19:19:18 9.4 C 30 %
261 15-03-2020 19:29:18 9.2 C 31 %
262 15-03-2020 19:39:18 9.1 C 30 %
263 15-03-2020 19:49:17 9 C 31 %
264 15-03-2020 19:59:17 8.9 C 31 %
265 15-03-2020 20:09:18 8.6 C 31 %
266 15-03-2020 20:19:17 8.5 C 32 %
267 15-03-2020 20:29:17 8.2 C 32 %
268 15-03-2020 20:39:18 8.2 C 32 %
269 15-03-2020 20:49:18 8 C 32 %
270 15-03-2020 20:59:18 7.4 C 34 %
271 15-03-2020 21:09:18 7.1 C 35 %
272 15-03-2020 21:19:17 7 C 35 %
273 15-03-2020 21:29:17 7.4 C 35 %
274 15-03-2020 21:39:17 7.5 C 35 %
275 15-03-2020 21:49:17 7.1 C 35 %
Sensor: Nr:Datum:Temp:Feuchte:
Aussen-T/F 276 15-03-2020 21:59:17 6.3 C 36 %
277 15-03-2020 22:09:17 5.8 C 37 %
278 15-03-2020 22:19:17 5.4 C 37 %
279 15-03-2020 22:29:18 5 C 38 %
280 15-03-2020 22:39:17 4.7 C 40 %
281 15-03-2020 22:49:17 4.7 C 40 %
282 15-03-2020 22:59:17 4.7 C 40 %
283 15-03-2020 23:09:17 4.7 C 40 %
284 15-03-2020 23:19:17 4.6 C 40 %
285 15-03-2020 23:29:17 4.5 C 40 %
286 15-03-2020 23:39:17 4.5 C 40 %
287 15-03-2020 23:49:17 4.3 C 40 %
288 15-03-2020 23:59:17 4.1 C 40 %
289 16-03-2020 00:09:17 4 C 40 %
290 16-03-2020 00:19:17 3.8 C 41 %
291 16-03-2020 00:29:17 3.4 C 41 %
292 16-03-2020 00:39:17 3.4 C 42 %
293 16-03-2020 00:49:17 3.3 C 42 %
294 16-03-2020 00:59:17 3.3 C 42 %
295 16-03-2020 01:09:18 2.9 C 43 %
296 16-03-2020 01:19:17 3 C 43 %
297 16-03-2020 01:29:17 3 C 42 %
298 16-03-2020 01:39:17 3.2 C 42 %
299 16-03-2020 01:49:18 2.8 C 43 %
300 16-03-2020 01:59:18 2.6 C 44 %
Sensor: Nr:Datum:Temp:Feuchte:
Aussen-T/F 301 16-03-2020 02:09:17 2.7 C 45 %
302 16-03-2020 02:19:17 2.7 C 44 %
303 16-03-2020 02:29:17 2.4 C 44 %
304 16-03-2020 02:39:17 2.6 C 45 %
305 16-03-2020 02:49:17 2.8 C 45 %
306 16-03-2020 02:59:17 2.8 C 44 %
307 16-03-2020 03:09:18 2.2 C 44 %
308 16-03-2020 03:19:17 2.3 C 44 %
309 16-03-2020 03:29:17 2.2 C 45 %
310 16-03-2020 03:39:17 1.8 C 45 %
311 16-03-2020 03:49:18 2 C 46 %
312 16-03-2020 03:59:18 1.8 C 46 %
313 16-03-2020 04:09:18 1.6 C 46 %
314 16-03-2020 04:19:18 1.7 C 46 %
315 16-03-2020 04:29:18 2 C 46 %
316 16-03-2020 04:39:18 1.5 C 46 %
317 16-03-2020 04:49:17 1.7 C 46 %
318 16-03-2020 04:59:18 1.9 C 46 %
319 16-03-2020 05:09:18 1.7 C 46 %
320 16-03-2020 05:19:18 1.7 C 46 %
321 16-03-2020 05:29:18 1.4 C 46 %
322 16-03-2020 05:39:18 1.3 C 46 %
323 16-03-2020 05:49:17 1.2 C 46 %
324 16-03-2020 05:59:17 1.3 C 47 %
325 16-03-2020 06:09:18 1.1 C 47 %
Sensor: Nr:Datum:Temp:Feuchte:
Aussen-T/F 326 16-03-2020 06:19:17 0.6 C 48 %
327 16-03-2020 06:29:17 0.6 C 48 %
328 16-03-2020 06:39:17 0.6 C 48 %
329 16-03-2020 06:49:17 0.6 C 48 %
330 16-03-2020 06:59:17 0.9 C 49 %
331 16-03-2020 07:09:17 1.2 C 49 %
332 16-03-2020 07:19:17 1.1 C 47 %
333 16-03-2020 07:29:17 1 C 47 %
334 16-03-2020 07:39:17 1.4 C 49 %
335 16-03-2020 07:49:17 1.4 C 48 %
336 16-03-2020 07:59:17 1.7 C 48 %
337 16-03-2020 08:09:18 2 C 47 %
338 16-03-2020 08:19:17 2.3 C 47 %
339 16-03-2020 08:29:18 2.4 C 46 %
340 16-03-2020 08:39:18 2.4 C 46 %
341 16-03-2020 08:49:17 2.6 C 46 %
342 16-03-2020 08:59:17 2.9 C 47 %
343 16-03-2020 09:09:18 3.4 C 46 %
344 16-03-2020 09:19:18 3.7 C 45 %
345 16-03-2020 09:29:18 4 C 45 %
346 16-03-2020 09:39:18 4.6 C 44 %
347 16-03-2020 09:49:18 5 C 43 %
348 16-03-2020 09:59:18 5.6 C 42 %
349 16-03-2020 10:09:18 6.6 C 41 %
350 16-03-2020 10:19:18 7.3 C 40 %
Sensor: Nr:Datum:Temp:Feuchte:
Aussen-T/F 351 16-03-2020 10:29:18 8.3 C 39 %
352 16-03-2020 10:39:17 9.3 C 38 %
353 16-03-2020 10:49:18 10.4 C 37 %
354 16-03-2020 10:59:18 12.4 C 34 %
355 16-03-2020 11:09:17 13.3 C 32 %
356 16-03-2020 11:19:17 14.3 C 30 %
357 16-03-2020 11:29:17 15.4 C 27 %
358 16-03-2020 11:39:18 15.7 C 26 %
359 16-03-2020 11:49:17 15.6 C 25 %
360 16-03-2020 11:59:17 16.1 C 25 %
361 16-03-2020 12:09:17 16.5 C 25 %
362 16-03-2020 12:19:17 16.8 C 25 %
363 16-03-2020 12:29:17 16.4 C 24 %
364 16-03-2020 12:39:17 16.9 C 24 %
365 16-03-2020 12:49:17 18.3 C 21 %
366 16-03-2020 12:59:17 18.7 C 20 %
367 16-03-2020 13:09:17 22.3 C 20 %
368 16-03-2020 13:19:17 21.2 C 20 %
369 16-03-2020 13:29:17 21.1 C 20 %
370 16-03-2020 13:39:17 20.6 C 20 %
371 16-03-2020 13:49:17 21.1 C 20 %
372 16-03-2020 13:59:17 19.7 C 20 %
373 16-03-2020 14:09:17 18.7 C 20 %
374 16-03-2020 14:19:17 19.7 C 20 %
375 16-03-2020 14:29:17 19.7 C 20 %
Sensor: Nr:Datum:Temp:Feuchte:
Aussen-T/F 376 16-03-2020 14:39:17 20 C 20 %
377 16-03-2020 14:49:17 19.2 C 20 %
378 16-03-2020 14:59:17 20.8 C 20 %
379 16-03-2020 15:09:17 20 C 20 %
380 16-03-2020 15:19:17 19.1 C 20 %
381 16-03-2020 15:29:17 18.8 C 20 %
382 16-03-2020 15:39:18 18.8 C 20 %
383 16-03-2020 15:49:17 19 C 20 %
384 16-03-2020 15:59:17 19 C 20 %
385 16-03-2020 16:09:18 18.7 C 20 %
386 16-03-2020 16:19:18 19 C 20 %
387 16-03-2020 16:29:18 21.4 C 20 %
388 16-03-2020 16:39:17 20.8 C 20 %
389 16-03-2020 16:49:17 20.2 C 20 %
390 16-03-2020 16:59:17 19.4 C 20 %
391 16-03-2020 17:09:17 18.4 C 20 %
392 16-03-2020 17:19:17 17.9 C 20 %
393 16-03-2020 17:29:18 17.7 C 20 %
394 16-03-2020 17:39:18 17.5 C 20 %
395 16-03-2020 17:49:17 16.8 C 21 %
396 16-03-2020 17:59:18 16 C 23 %
397 16-03-2020 18:09:18 15 C 26 %
398 16-03-2020 18:19:18 14.3 C 27 %
399 16-03-2020 18:29:18 13.7 C 29 %
400 16-03-2020 18:39:18 13.1 C 30 %
Sensor: Nr:Datum:Temp:Feuchte:
Aussen-T/F 401 16-03-2020 18:49:18 12.7 C 31 %
402 16-03-2020 18:59:18 12.4 C 32 %
403 16-03-2020 19:09:18 12.1 C 32 %
404 16-03-2020 19:19:18 12.2 C 32 %
405 16-03-2020 19:29:18 12.2 C 32 %
406 16-03-2020 19:39:18 11.9 C 34 %
407 16-03-2020 19:49:17 11.5 C 34 %
408 16-03-2020 19:59:18 11 C 35 %
409 16-03-2020 20:09:18 10.7 C 36 %
410 16-03-2020 20:19:18 11.4 C 35 %
411 16-03-2020 20:29:18 10.8 C 36 %
412 16-03-2020 20:39:18 10.3 C 36 %
413 16-03-2020 20:49:18 9.5 C 38 %
414 16-03-2020 20:59:18 10.8 C 37 %
415 16-03-2020 21:09:18 10.1 C 37 %
416 16-03-2020 21:19:17 10.3 C 38 %
417 16-03-2020 21:29:17 9.9 C 38 %
418 16-03-2020 21:39:17 9.7 C 38 %
419 16-03-2020 21:49:18 10.2 C 37 %
420 16-03-2020 21:59:18 9.9 C 38 %
421 16-03-2020 22:09:18 9.7 C 38 %
422 16-03-2020 22:19:18 9.5 C 38 %
423 16-03-2020 22:29:18 9.5 C 39 %
424 16-03-2020 22:39:18 9.2 C 38 %
425 16-03-2020 22:49:18 8.9 C 39 %
Sensor: Nr:Datum:Temp:Feuchte:
Aussen-T/F 426 16-03-2020 22:59:18 9.1 C 39 %
427 16-03-2020 23:09:18 9.4 C 39 %
428 16-03-2020 23:19:17 9.4 C 39 %
429 16-03-2020 23:29:17 9.4 C 39 %
430 16-03-2020 23:39:17 9.5 C 39 %
431 16-03-2020 23:49:17 9.5 C 40 %
432 16-03-2020 23:59:17 9.5 C 39 %
433 17-03-2020 00:09:17 9.3 C 39 %
434 17-03-2020 00:19:17 9.7 C 40 %
435 17-03-2020 00:29:17 9.5 C 39 %
436 17-03-2020 00:39:18 9.3 C 39 %
437 17-03-2020 00:49:18 9.1 C 40 %
438 17-03-2020 00:59:18 9 C 40 %
439 17-03-2020 01:09:18 9.3 C 40 %
440 17-03-2020 01:19:17 9.2 C 40 %
441 17-03-2020 01:29:17 8.9 C 40 %
442 17-03-2020 01:39:17 8.7 C 41 %
443 17-03-2020 01:49:18 8.8 C 41 %
444 17-03-2020 01:59:18 8.8 C 41 %
445 17-03-2020 02:09:18 8.7 C 41 %
446 17-03-2020 02:19:17 8.7 C 41 %
447 17-03-2020 02:29:17 8.7 C 41 %
448 17-03-2020 02:39:17 8.9 C 41 %
449 17-03-2020 02:49:17 8.9 C 41 %
450 17-03-2020 02:59:17 8.8 C 41 %
Sensor: Nr:Datum:Temp:Feuchte:
Aussen-T/F 451 17-03-2020 03:09:18 8.6 C 41 %
452 17-03-2020 03:19:18 8.6 C 41 %
453 17-03-2020 03:29:18 8.4 C 41 %
454 17-03-2020 03:39:17 8.3 C 41 %
455 17-03-2020 03:49:18 8.1 C 42 %
456 17-03-2020 03:59:18 8 C 41 %
457 17-03-2020 04:09:18 8.9 C 42 %
458 17-03-2020 04:19:18 9.2 C 40 %
459 17-03-2020 04:29:18 9.3 C 40 %
460 17-03-2020 04:39:17 9 C 40 %
461 17-03-2020 04:49:18 9 C 40 %
462 17-03-2020 04:59:18 8.6 C 41 %
463 17-03-2020 05:09:17 8.9 C 41 %
464 17-03-2020 05:19:17 9 C 40 %
465 17-03-2020 05:29:17 8.6 C 41 %
466 17-03-2020 05:39:17 8.3 C 41 %
467 17-03-2020 05:49:17 8.2 C 41 %
468 17-03-2020 05:59:18 8.2 C 41 %
469 17-03-2020 06:09:18 8.1 C 41 %
470 17-03-2020 06:19:18 8.1 C 41 %
471 17-03-2020 06:29:18 8 C 41 %
472 17-03-2020 06:39:18 8.2 C 41 %
473 17-03-2020 06:49:18 8.1 C 41 %
474 17-03-2020 06:59:18 8.2 C 41 %
475 17-03-2020 07:09:17 8.8 C 40 %
Sensor: Nr:Datum:Temp:Feuchte:
Aussen-T/F 476 17-03-2020 07:19:17 9 C 40 %
477 17-03-2020 07:29:17 9.5 C 39 %
478 17-03-2020 07:39:17 9.6 C 39 %
479 17-03-2020 07:49:18 9.6 C 39 %
480 17-03-2020 07:59:18 9.8 C 38 %
481 17-03-2020 08:09:18 10.1 C 37 %
482 17-03-2020 08:19:17 10 C 37 %
483 17-03-2020 08:29:17 9.8 C 38 %
484 17-03-2020 08:39:17 9.9 C 38 %
485 17-03-2020 08:49:17 9.9 C 38 %
486 17-03-2020 08:59:17 10 C 37 %
487 17-03-2020 09:09:17 10.2 C 37 %
488 17-03-2020 09:19:18 10.4 C 37 %
489 17-03-2020 09:29:18 10.4 C 37 %
490 17-03-2020 09:39:18 10.6 C 37 %
491 17-03-2020 09:49:17 10.6 C 37 %
492 17-03-2020 09:59:17 10.7 C 37 %
493 17-03-2020 10:09:17 10.7 C 37 %
494 17-03-2020 10:19:17 10.9 C 36 %
495 17-03-2020 10:29:17 11 C 35 %
496 17-03-2020 10:39:17 11.7 C 35 %
497 17-03-2020 10:49:17 12.4 C 33 %
498 17-03-2020 10:59:17 12.9 C 33 %
499 17-03-2020 11:09:17 13.1 C 32 %
500 17-03-2020 11:19:17 13.3 C 31 %
Sensor: Nr:Datum:Temp:Feuchte:
Aussen-T/F 501 17-03-2020 11:29:17 13.3 C 31 %
502 17-03-2020 11:39:17 14.7 C 30 %
503 17-03-2020 11:49:17 14.1 C 29 %
504 17-03-2020 11:59:17 15.4 C 28 %
505 17-03-2020 12:09:17 14.5 C 29 %
506 17-03-2020 12:19:18 14.6 C 27 %
507 17-03-2020 12:29:18 15.2 C 26 %
508 17-03-2020 12:39:18 16.5 C 26 %
509 17-03-2020 12:49:18 16.6 C 24 %
510 17-03-2020 12:59:18 19.3 C 20 %
511 17-03-2020 13:09:17 18.8 C 20 %
512 17-03-2020 13:19:17 20.4 C 20 %
513 17-03-2020 13:29:17 19.5 C 20 %
514 17-03-2020 13:39:17 18.5 C 20 %
515 17-03-2020 13:49:18 18.8 C 20 %
516 17-03-2020 13:59:18 19.3 C 20 %
517 17-03-2020 14:09:17 18.3 C 20 %
518 17-03-2020 14:19:17 18.5 C 20 %
519 17-03-2020 14:29:17 17.9 C 20 %
520 17-03-2020 14:39:18 17.1 C 20 %
521 17-03-2020 14:49:18 20.5 C 20 %
522 17-03-2020 14:59:18 22.2 C 20 %
523 17-03-2020 15:09:17 22.5 C 20 %
524 17-03-2020 15:19:17 22.1 C 20 %
525 17-03-2020 15:29:17 23.8 C 20 %
Sensor: Nr:Datum:Temp:Feuchte:
Aussen-T/F 526 17-03-2020 15:39:18 23.6 C 20 %
527 17-03-2020 15:49:17 23.8 C 20 %
528 17-03-2020 15:59:17 23.9 C 20 %
529 17-03-2020 16:09:18 23.3 C 20 %
530 17-03-2020 16:19:18 21.8 C 20 %
531 17-03-2020 16:29:18 23.2 C 20 %
532 17-03-2020 16:39:17 21.4 C 20 %
533 17-03-2020 16:49:17 22.3 C 20 %
534 17-03-2020 16:59:17 20.1 C 20 %
535 17-03-2020 17:09:17 18.7 C 20 %
536 17-03-2020 17:19:18 17.7 C 20 %
537 17-03-2020 17:29:18 17.3 C 20 %
538 17-03-2020 17:39:18 16.8 C 20 %
539 17-03-2020 17:49:17 16.1 C 22 %
540 17-03-2020 17:59:18 15.3 C 24 %
541 17-03-2020 18:09:18 14.1 C 27 %
542 17-03-2020 18:19:17 13.5 C 28 %
543 17-03-2020 18:29:17 13.2 C 29 %
544 17-03-2020 18:39:18 12.8 C 30 %
545 17-03-2020 18:49:18 12.4 C 31 %
546 17-03-2020 18:59:18 12 C 31 %
547 17-03-2020 19:09:18 11.9 C 32 %
548 17-03-2020 19:19:17 11.8 C 32 %
549 17-03-2020 19:29:17 11.1 C 33 %
550 17-03-2020 19:39:17 11 C 34 %
Sensor: Nr:Datum:Temp:Feuchte:
Aussen-T/F 551 17-03-2020 19:49:17 10.4 C 35 %
552 17-03-2020 19:59:17 10.2 C 35 %
553 17-03-2020 20:09:17 9.9 C 36 %
554 17-03-2020 20:19:17 10.1 C 36 %
555 17-03-2020 20:29:17 10.7 C 35 %
556 17-03-2020 20:39:18 10.4 C 35 %
557 17-03-2020 20:49:18 9.6 C 37 %
558 17-03-2020 20:59:18 9.5 C 37 %
559 17-03-2020 21:09:18 9 C 37 %
560 17-03-2020 21:19:17 8.4 C 39 %
561 17-03-2020 21:29:17 8.4 C 39 %
562 17-03-2020 21:39:17 8.1 C 39 %
563 17-03-2020 21:49:18 8 C 40 %
564 17-03-2020 21:59:18 7.6 C 40 %
565 17-03-2020 22:09:18 7.3 C 40 %
566 17-03-2020 22:19:18 7.2 C 41 %
567 17-03-2020 22:29:18 7 C 41 %
568 17-03-2020 22:39:17 6.9 C 41 %
569 17-03-2020 22:49:17 6.7 C 42 %
570 17-03-2020 22:59:17 6.5 C 42 %
571 17-03-2020 23:09:17 6.4 C 42 %
572 17-03-2020 23:19:17 6.3 C 42 %
573 17-03-2020 23:29:17 6.1 C 42 %
574 17-03-2020 23:39:18 6.1 C 42 %
575 17-03-2020 23:49:18 6.2 C 43 %
Sensor: Nr:Datum:Temp:Feuchte:
Aussen-T/F 576 17-03-2020 23:59:18 6.3 C 43 %
577 18-03-2020 00:09:17 5.9 C 43 %
578 18-03-2020 00:19:17 5.8 C 44 %
579 18-03-2020 00:29:17 5.9 C 44 %
580 18-03-2020 00:39:17 5.8 C 44 %
581 18-03-2020 00:49:17 6 C 44 %
582 18-03-2020 00:59:17 6 C 43 %
583 18-03-2020 01:09:17 5.7 C 44 %
584 18-03-2020 01:19:17 5.6 C 44 %
585 18-03-2020 01:29:17 5.3 C 44 %
586 18-03-2020 01:39:17 5.6 C 45 %
587 18-03-2020 01:49:17 5.3 C 45 %
588 18-03-2020 01:59:17 5.6 C 46 %
589 18-03-2020 02:09:17 5.1 C 44 %
590 18-03-2020 02:19:17 4.8 C 45 %
591 18-03-2020 02:29:17 4.8 C 45 %
592 18-03-2020 02:39:17 4.6 C 46 %
593 18-03-2020 02:49:18 4.3 C 46 %
594 18-03-2020 02:59:18 4.3 C 46 %
595 18-03-2020 03:09:18 4.2 C 46 %
596 18-03-2020 03:19:17 4.2 C 46 %
597 18-03-2020 03:29:17 4.1 C 46 %
598 18-03-2020 03:39:17 4 C 46 %
599 18-03-2020 03:49:17 3.8 C 47 %
600 18-03-2020 03:59:17 3.8 C 47 %
Sensor: Nr:Datum:Temp:Feuchte:
Aussen-T/F 601 18-03-2020 04:09:17 3.8 C 47 %
602 18-03-2020 04:19:18 3.8 C 47 %
603 18-03-2020 04:29:18 3.7 C 47 %
604 18-03-2020 04:39:18 3.7 C 47 %
605 18-03-2020 04:49:18 3.6 C 47 %
606 18-03-2020 04:59:18 3.6 C 47 %
607 18-03-2020 05:09:18 3.7 C 48 %
608 18-03-2020 05:19:18 3.8 C 48 %
609 18-03-2020 05:29:18 3.3 C 47 %
610 18-03-2020 05:39:18 3.2 C 47 %
611 18-03-2020 05:49:18 3.3 C 47 %
612 18-03-2020 05:59:18 3.1 C 47 %
613 18-03-2020 06:09:18 2.9 C 48 %
614 18-03-2020 06:19:17 3.3 C 47 %
615 18-03-2020 06:29:18 3.1 C 47 %
616 18-03-2020 06:39:18 3.1 C 47 %
617 18-03-2020 06:49:17 3.1 C 47 %
618 18-03-2020 06:59:18 3.6 C 47 %
619 18-03-2020 07:09:18 3.5 C 47 %
620 18-03-2020 07:19:17 3.4 C 47 %
621 18-03-2020 07:29:17 3.7 C 47 %
622 18-03-2020 07:39:17 3.9 C 47 %
623 18-03-2020 07:49:18 4 C 46 %
624 18-03-2020 07:59:18 4.9 C 46 %
625 18-03-2020 08:09:18 4.6 C 46 %
Sensor: Nr:Datum:Temp:Feuchte:
Aussen-T/F 626 18-03-2020 08:19:18 4.5 C 46 %
627 18-03-2020 08:29:18 4.7 C 46 %
628 18-03-2020 08:39:17 5 C 45 %
629 18-03-2020 08:49:18 5.3 C 46 %
630 18-03-2020 08:59:18 5.6 C 46 %
631 18-03-2020 09:09:17 6.7 C 45 %
632 18-03-2020 09:19:17 7.1 C 45 %
633 18-03-2020 09:29:17 8.5 C 45 %
634 18-03-2020 09:39:17 9.7 C 41 %
635 18-03-2020 09:49:18 10.5 C 40 %
636 18-03-2020 09:59:18 11 C 38 %
637 18-03-2020 10:09:18 11.1 C 38 %
638 18-03-2020 10:19:18 11.6 C 38 %
639 18-03-2020 10:29:18 11.6 C 37 %
640 18-03-2020 10:39:18 11.7 C 38 %
641 18-03-2020 10:49:18 12 C 36 %
642 18-03-2020 10:59:18 12.2 C 35 %
643 18-03-2020 11:09:18 12.7 C 35 %
644 18-03-2020 11:19:18 12.8 C 34 %
645 18-03-2020 11:29:18 13.3 C 34 %
646 18-03-2020 11:39:18 13.9 C 33 %
647 18-03-2020 11:49:17 14.7 C 32 %
648 18-03-2020 11:59:17 15.3 C 30 %
649 18-03-2020 12:09:18 15.8 C 30 %
650 18-03-2020 12:19:17 16.6 C 29 %
Sensor: Nr:Datum:Temp:Feuchte:
Aussen-T/F 651 18-03-2020 12:29:18 17 C 27 %
652 18-03-2020 12:39:18 17.8 C 26 %
653 18-03-2020 12:49:17 19.1 C 25 %
654 18-03-2020 12:59:17 19.8 C 20 %
655 18-03-2020 13:09:17 21 C 20 %
656 18-03-2020 13:19:17 21.2 C 20 %
657 18-03-2020 13:29:17 19.5 C 20 %
658 18-03-2020 13:39:18 17.7 C 20 %
659 18-03-2020 13:49:17 16.6 C 22 %
660 18-03-2020 13:59:17 16 C 22 %
661 18-03-2020 14:09:17 17.6 C 21 %
662 18-03-2020 14:19:17 16.7 C 20 %
663 18-03-2020 14:29:17 17.9 C 20 %
664 18-03-2020 14:39:18 18.5 C 20 %
665 18-03-2020 14:49:17 17.4 C 20 %
666 18-03-2020 14:59:17 17.4 C 20 %
667 18-03-2020 15:09:17 20.6 C 20 %
668 18-03-2020 15:19:18 17.9 C 20 %
669 18-03-2020 15:29:18 18.2 C 20 %
670 18-03-2020 15:39:18 17.7 C 20 %
671 18-03-2020 15:49:17 16.9 C 20 %
672 18-03-2020 15:59:17 16.7 C 21 %
673 18-03-2020 16:09:17 16.4 C 21 %
674 18-03-2020 16:19:17 16.4 C 22 %
675 18-03-2020 16:29:17 16.4 C 20 %
Sensor: Nr:Datum:Temp:Feuchte:
Aussen-T/F 676 18-03-2020 16:39:17 16.5 C 20 %
677 18-03-2020 16:49:18 16.2 C 21 %
678 18-03-2020 16:59:18 16.1 C 21 %
679 18-03-2020 17:09:17 16 C 21 %
680 18-03-2020 17:19:17 16 C 21 %
681 18-03-2020 17:29:17 15.7 C 22 %
682 18-03-2020 17:39:18 16 C 20 %
683 18-03-2020 17:49:17 16.3 C 20 %
684 18-03-2020 17:59:17 15.8 C 22 %
685 18-03-2020 18:09:17 15.4 C 22 %
686 18-03-2020 18:19:17 14.7 C 26 %
687 18-03-2020 18:29:17 13.7 C 26 %
688 18-03-2020 18:39:17 13.3 C 28 %
689 18-03-2020 18:49:17 12.7 C 30 %
690 18-03-2020 18:59:17 12 C 31 %
691 18-03-2020 19:09:17 11.7 C 32 %
692 18-03-2020 19:19:18 11.5 C 32 %
693 18-03-2020 19:29:18 10.5 C 34 %
694 18-03-2020 19:39:18 10.9 C 34 %
695 18-03-2020 19:49:18 11.1 C 34 %
696 18-03-2020 19:59:18 10.9 C 35 %
697 18-03-2020 20:09:18 10.6 C 35 %
698 18-03-2020 20:19:17 10.4 C 35 %
699 18-03-2020 20:29:17 10.4 C 35 %
700 18-03-2020 20:39:18 10 C 36 %
Sensor: Nr:Datum:Temp:Feuchte:
Aussen-T/F 701 18-03-2020 20:49:17 9.7 C 37 %
702 18-03-2020 20:59:17 9.7 C 37 %
703 18-03-2020 21:09:18 9.7 C 37 %
704 18-03-2020 21:19:17 9.6 C 37 %
705 18-03-2020 21:29:17 9.4 C 37 %
706 18-03-2020 21:39:17 9 C 37 %
707 18-03-2020 21:49:17 8.7 C 38 %
708 18-03-2020 21:59:17 8.4 C 39 %
709 18-03-2020 22:09:17 8.2 C 39 %
710 18-03-2020 22:19:17 8.1 C 40 %
711 18-03-2020 22:29:17 8 C 40 %
712 18-03-2020 22:39:17 8 C 40 %
713 18-03-2020 22:49:17 8.1 C 40 %
714 18-03-2020 22:59:17 8.2 C 40 %
715 18-03-2020 23:09:18 8.3 C 40 %
716 18-03-2020 23:19:17 8.1 C 40 %
717 18-03-2020 23:29:17 8 C 40 %
718 18-03-2020 23:39:18 8 C 40 %
719 18-03-2020 23:49:18 8.4 C 40 %
720 18-03-2020 23:59:18 8.9 C 40 %
721 19-03-2020 00:09:17 8.9 C 39 %
722 19-03-2020 00:19:18 8.9 C 38 %
723 19-03-2020 00:29:18 9 C 38 %
724 19-03-2020 00:39:18 9 C 38 %
725 19-03-2020 00:49:17 9.1 C 38 %
Sensor: Nr:Datum:Temp:Feuchte:
Aussen-T/F 726 19-03-2020 00:59:17 9.1 C 38 %
727 19-03-2020 01:09:18 9 C 38 %
728 19-03-2020 01:19:17 9.1 C 38 %
729 19-03-2020 01:29:17 9 C 38 %
730 19-03-2020 01:39:17 9 C 38 %
731 19-03-2020 01:49:17 8.9 C 38 %
732 19-03-2020 01:59:17 8.8 C 39 %
733 19-03-2020 02:09:18 8.7 C 39 %
734 19-03-2020 02:19:17 8.7 C 39 %
735 19-03-2020 02:29:17 8.6 C 39 %
736 19-03-2020 02:39:17 8.5 C 39 %
737 19-03-2020 02:49:18 8.5 C 39 %
738 19-03-2020 02:59:18 8.5 C 39 %
739 19-03-2020 03:09:18 8.5 C 39 %
740 19-03-2020 03:19:18 8.6 C 39 %
741 19-03-2020 03:29:18 8.5 C 39 %
742 19-03-2020 03:39:17 8.5 C 39 %
743 19-03-2020 03:49:18 8.4 C 39 %
744 19-03-2020 03:59:18 8.4 C 40 %
745 19-03-2020 04:09:18 8.4 C 40 %
746 19-03-2020 04:19:17 8.5 C 40 %
747 19-03-2020 04:29:17 8.5 C 39 %
748 19-03-2020 04:39:17 8.5 C 39 %
749 19-03-2020 04:49:18 8.5 C 39 %
750 19-03-2020 04:59:18 8.5 C 39 %
Sensor: Nr:Datum:Temp:Feuchte:
Aussen-T/F 751 19-03-2020 05:09:18 8.6 C 39 %
752 19-03-2020 05:19:18 8.9 C 38 %
753 19-03-2020 05:29:18 8.7 C 39 %
754 19-03-2020 05:39:18 8.6 C 39 %
755 19-03-2020 05:49:17 8.5 C 39 %
756 19-03-2020 05:59:18 8.4 C 39 %
757 19-03-2020 06:09:18 8.4 C 39 %
758 19-03-2020 06:19:17 8.3 C 40 %
759 19-03-2020 06:29:17 8.2 C 39 %
760 19-03-2020 06:39:17 8.1 C 40 %
761 19-03-2020 06:49:17 8.1 C 40 %
762 19-03-2020 06:59:17 8.2 C 40 %
763 19-03-2020 07:09:17 8.2 C 40 %
764 19-03-2020 07:19:17 8.5 C 40 %
765 19-03-2020 07:29:17 8.7 C 39 %
766 19-03-2020 07:39:18 8.9 C 39 %
767 19-03-2020 07:49:18 9.1 C 38 %
768 19-03-2020 07:59:18 9.4 C 38 %
769 19-03-2020 08:09:18 9.7 C 38 %
770 19-03-2020 08:19:17 9.9 C 37 %
771 19-03-2020 08:29:17 9.9 C 37 %
772 19-03-2020 08:39:17 10.5 C 36 %
773 19-03-2020 08:49:18 10.4 C 36 %
774 19-03-2020 08:59:18 10.2 C 36 %
775 19-03-2020 09:09:17 11.2 C 35 %
Sensor: Nr:Datum:Temp:Feuchte:
Aussen-T/F 776 19-03-2020 09:19:17 11.7 C 35 %
777 19-03-2020 09:29:17 11.5 C 35 %
778 19-03-2020 09:39:18 11.8 C 35 %
779 19-03-2020 09:49:17 11.6 C 35 %
780 19-03-2020 09:59:17 12.4 C 33 %
781 19-03-2020 10:09:18 12.3 C 32 %
782 19-03-2020 10:19:18 13.1 C 31 %
783 19-03-2020 10:29:18 13.5 C 30 %
784 19-03-2020 10:39:17 13.9 C 31 %
785 19-03-2020 10:49:17 14.2 C 30 %
786 19-03-2020 10:59:17 15.4 C 29 %
787 19-03-2020 11:09:17 15.5 C 29 %
788 19-03-2020 11:19:17 16.4 C 26 %
789 19-03-2020 11:29:17 17.7 C 26 %
790 19-03-2020 11:39:17 18.5 C 24 %
791 19-03-2020 11:49:17 15.8 C 26 %
792 19-03-2020 11:59:17 15 C 28 %
793 19-03-2020 12:09:17 15.2 C 28 %
794 19-03-2020 12:19:17 15.5 C 28 %
795 19-03-2020 12:29:17 16.8 C 26 %
796 19-03-2020 12:39:18 18.1 C 22 %
797 19-03-2020 12:49:17 18.6 C 20 %
798 19-03-2020 12:59:17 17.9 C 20 %
799 19-03-2020 13:09:18 20.4 C 20 %
800 19-03-2020 13:19:18 25.8 C 20 %
Sensor: Nr:Datum:Temp:Feuchte:
Aussen-T/F 801 19-03-2020 13:29:18 25.6 C 20 %
802 19-03-2020 13:39:18 19.7 C 20 %
803 19-03-2020 13:49:17 18.8 C 20 %
804 19-03-2020 13:59:17 18.2 C 20 %
805 19-03-2020 14:09:17 18.7 C 20 %
806 19-03-2020 14:19:17 18.9 C 20 %
807 19-03-2020 14:29:17 18.8 C 20 %
808 19-03-2020 14:39:17 18.9 C 20 %
809 19-03-2020 14:49:17 19.3 C 20 %
810 19-03-2020 14:59:17 19.1 C 20 %
811 19-03-2020 15:09:18 18.5 C 20 %
812 19-03-2020 15:19:18 19.1 C 20 %
813 19-03-2020 15:29:18 19.3 C 20 %
814 19-03-2020 15:39:18 19.8 C 20 %
815 19-03-2020 15:49:17 21.8 C 20 %
816 19-03-2020 15:59:18 19.5 C 20 %
817 19-03-2020 16:09:18 19.1 C 20 %
818 19-03-2020 16:20:17 19.1 C 20 %
819 19-03-2020 16:29:17 19.1 C 20 %
820 19-03-2020 16:39:17 19.1 C 20 %
821 19-03-2020 16:49:17 19.1 C 20 %
822 19-03-2020 16:59:17 18.4 C 20 %
823 19-03-2020 17:09:18 17.6 C 20 %
824 19-03-2020 17:19:18 17.3 C 20 %
825 19-03-2020 17:29:18 17 C 20 %
Sensor: Nr:Datum:Temp:Feuchte:
Aussen-T/F 826 19-03-2020 17:39:18 16.8 C 20 %
827 19-03-2020 17:49:18 16.9 C 20 %
828 19-03-2020 17:59:18 16.7 C 20 %
829 19-03-2020 18:09:18 16.3 C 20 %
830 19-03-2020 18:20:17 15.7 C 23 %
831 19-03-2020 18:30:17 13.9 C 29 %
832 19-03-2020 18:40:17 13.5 C 30 %
833 19-03-2020 18:50:17 12.8 C 31 %
834 19-03-2020 18:59:18 12.7 C 31 %
835 19-03-2020 19:09:18 12.3 C 31 %
836 19-03-2020 19:20:17 12.2 C 31 %
837 19-03-2020 19:30:17 11.9 C 32 %
838 19-03-2020 19:40:17 11.7 C 32 %
839 19-03-2020 19:50:17 11.7 C 33 %
840 19-03-2020 19:59:17 11.7 C 33 %
841 19-03-2020 20:09:17 11.7 C 33 %
842 19-03-2020 20:29:17 11.5 C 34 %
843 19-03-2020 20:29:17 11.6 C 34 %
844 19-03-2020 20:39:17 12 C 33 %
845 19-03-2020 20:49:17 11.8 C 34 %
846 19-03-2020 20:59:17 11.5 C 35 %
847 19-03-2020 21:09:18 12 C 33 %
848 19-03-2020 21:20:17 11.4 C 35 %
849 19-03-2020 21:30:17 11.3 C 35 %
850 19-03-2020 21:40:17 10.3 C 36 %
Sensor: Nr:Datum:Temp:Feuchte:
Aussen-T/F 851 19-03-2020 21:50:17 10.7 C 36 %
852 19-03-2020 21:59:18 10.6 C 36 %
853 19-03-2020 22:09:18 10.1 C 37 %
854 19-03-2020 22:19:18 9.7 C 38 %
855 19-03-2020 22:29:18 9.8 C 38 %
856 19-03-2020 22:39:18 9.5 C 39 %
857 19-03-2020 22:49:18 9.4 C 39 %
858 19-03-2020 22:59:18 9.5 C 38 %
859 19-03-2020 23:09:18 9.5 C 38 %
860 19-03-2020 23:20:17 9.4 C 39 %
861 19-03-2020 23:30:17 9.2 C 39 %
862 19-03-2020 23:40:17 9.6 C 38 %
863 19-03-2020 23:50:17 9.1 C 39 %
864 19-03-2020 23:59:18 8.7 C 40 %
865 20-03-2020 00:09:18 8.6 C 40 %
866 20-03-2020 00:19:18 9.3 C 39 %
867 20-03-2020 00:29:18 9.1 C 39 %
868 20-03-2020 00:39:18 9 C 39 %
869 20-03-2020 00:59:17 8.8 C 40 %
870 20-03-2020 01:00:18 8.8 C 40 %
871 20-03-2020 01:10:18 8.7 C 40 %
872 20-03-2020 01:20:17 8.7 C 40 %
873 20-03-2020 01:30:18 8.6 C 40 %
874 20-03-2020 01:40:18 8.4 C 40 %
875 20-03-2020 01:50:17 8.5 C 40 %
Sensor: Nr:Datum:Temp:Feuchte:
Aussen-T/F 876 20-03-2020 02:00:18 8.3 C 40 %
877 20-03-2020 02:10:18 7.9 C 40 %
878 20-03-2020 02:20:17 7.6 C 41 %
879 20-03-2020 02:30:17 7.4 C 41 %
880 20-03-2020 02:40:17 7.4 C 41 %
881 20-03-2020 02:50:17 7.1 C 41 %
882 20-03-2020 03:00:17 7.1 C 42 %
883 20-03-2020 03:10:17 7.1 C 42 %
884 20-03-2020 03:20:17 7.1 C 42 %
885 20-03-2020 03:30:18 7.2 C 42 %
886 20-03-2020 03:40:18 7.3 C 42 %
887 20-03-2020 03:50:17 7.5 C 42 %
888 20-03-2020 04:00:18 7.5 C 42 %
889 20-03-2020 04:10:18 7.7 C 42 %
890 20-03-2020 04:20:18 7.6 C 41 %
891 20-03-2020 04:30:18 7.4 C 42 %
892 20-03-2020 04:40:18 7.2 C 42 %
893 20-03-2020 04:50:17 7 C 42 %
894 20-03-2020 05:00:18 6.9 C 43 %
895 20-03-2020 05:10:18 6.8 C 43 %
896 20-03-2020 05:20:17 6.5 C 43 %
897 20-03-2020 05:30:17 6.2 C 43 %
898 20-03-2020 05:40:17 5.9 C 44 %
899 20-03-2020 05:50:17 5.6 C 44 %
900 20-03-2020 06:00:17 5.4 C 45 %
Sensor: Nr:Datum:Temp:Feuchte:
Aussen-T/F 901 20-03-2020 06:10:17 5.2 C 45 %
902 20-03-2020 06:20:17 5 C 45 %
903 20-03-2020 06:30:17 5.1 C 46 %
904 20-03-2020 06:40:17 5 C 46 %
905 20-03-2020 06:50:17 5 C 46 %
906 20-03-2020 07:00:17 5.1 C 46 %
907 20-03-2020 07:10:17 5.3 C 46 %
908 20-03-2020 07:20:17 5.5 C 46 %
909 20-03-2020 07:30:17 5.6 C 46 %
910 20-03-2020 07:40:17 5.7 C 46 %
911 20-03-2020 07:50:18 5.8 C 46 %
912 20-03-2020 08:00:17 6.3 C 46 %
913 20-03-2020 08:10:17 6.9 C 45 %
914 20-03-2020 08:20:17 7.2 C 43 %
915 20-03-2020 08:30:17 7.1 C 43 %
916 20-03-2020 08:40:17 7.1 C 43 %
917 20-03-2020 08:50:17 7.3 C 43 %
918 20-03-2020 09:00:17 8 C 43 %
919 20-03-2020 09:10:17 8.2 C 42 %
920 20-03-2020 09:20:17 9.6 C 42 %
921 20-03-2020 09:30:17 10 C 40 %
922 20-03-2020 09:40:17 10.2 C 40 %
923 20-03-2020 09:50:17 10.5 C 39 %
924 20-03-2020 10:00:18 10.8 C 39 %
925 20-03-2020 10:10:18 11.2 C 38 %
Sensor: Nr:Datum:Temp:Feuchte:
Aussen-T/F 926 20-03-2020 10:20:18 11.1 C 37 %
927 20-03-2020 10:30:18 11 C 37 %
928 20-03-2020 10:40:18 11.5 C 37 %
929 20-03-2020 10:50:18 12.6 C 36 %
930 20-03-2020 11:00:17 13.1 C 35 %
931 20-03-2020 11:10:18 13.1 C 35 %
932 20-03-2020 11:20:18 14.2 C 33 %
933 20-03-2020 11:30:18 14.5 C 32 %
934 20-03-2020 11:40:18 15.3 C 31 %
935 20-03-2020 11:50:18 14.6 C 32 %
936 20-03-2020 12:00:17 15.6 C 31 %
937 20-03-2020 12:10:17 15.4 C 30 %
938 20-03-2020 12:20:17 15.6 C 30 %
939 20-03-2020 12:30:18 14.4 C 31 %
940 20-03-2020 12:40:18 14.9 C 31 %
941 20-03-2020 12:50:18 14.9 C 31 %
942 20-03-2020 13:00:18 14.9 C 31 %
943 20-03-2020 13:10:18 14.9 C 31 %
944 20-03-2020 13:20:18 14.9 C 31 %
945 20-03-2020 13:30:18 14.9 C 31 %
946 20-03-2020 13:40:18 14.9 C 31 %
947 20-03-2020 13:50:17 16.4 C 26 %
948 20-03-2020 14:00:17 16.2 C 27 %
949 20-03-2020 14:10:17 16.6 C 26 %
950 20-03-2020 14:20:17 16.2 C 27 %
Sensor: Nr:Datum:Temp:Feuchte:
Aussen-T/F 951 20-03-2020 14:30:18 17.4 C 26 %
952 20-03-2020 14:40:18 17.3 C 26 %
953 20-03-2020 14:50:18 17.9 C 25 %
954 20-03-2020 15:00:17 17.9 C 25 %
955 20-03-2020 15:10:17 18.1 C 25 %
956 20-03-2020 15:20:17 17 C 25 %
957 20-03-2020 15:30:18 17.9 C 25 %
958 20-03-2020 15:40:18 18.5 C 25 %
959 20-03-2020 15:50:18 17 C 25 %
960 20-03-2020 16:00:17 16.2 C 26 %
961 20-03-2020 16:10:17 16.1 C 26 %
962 20-03-2020 16:20:17 15.5 C 26 %
963 20-03-2020 16:30:18 15.8 C 26 %
964 20-03-2020 16:40:18 15.3 C 26 %
965 20-03-2020 16:50:18 17 C 25 %
966 20-03-2020 17:00:18 16.1 C 26 %
967 20-03-2020 17:10:18 15.2 C 27 %
968 20-03-2020 17:20:18 14.3 C 28 %
969 20-03-2020 17:30:18 13.9 C 30 %
970 20-03-2020 17:40:18 12.8 C 31 %
971 20-03-2020 17:50:17 12.5 C 31 %
972 20-03-2020 18:00:17 12.4 C 32 %
973 20-03-2020 18:10:17 11.9 C 33 %
974 20-03-2020 18:20:17 11.8 C 34 %
975 20-03-2020 18:30:17 11.6 C 34 %
Sensor: Nr:Datum:Temp:Feuchte:
Aussen-T/F 976 20-03-2020 18:40:17 11.6 C 34 %
977 20-03-2020 18:50:18 11.5 C 34 %
978 20-03-2020 19:00:17 11.5 C 34 %
979 20-03-2020 19:10:17 11.3 C 34 %
980 20-03-2020 19:20:17 11.1 C 34 %
981 20-03-2020 19:30:17 11 C 35 %
982 20-03-2020 19:40:17 10.7 C 35 %
983 20-03-2020 19:50:17 10.6 C 35 %
984 20-03-2020 20:00:17 10.4 C 35 %
985 20-03-2020 20:10:17 10.2 C 35 %
986 20-03-2020 20:20:17 10.3 C 35 %
987 20-03-2020 20:30:17 10.3 C 35 %
988 20-03-2020 20:40:17 10.2 C 35 %
989 20-03-2020 20:50:18 10.3 C 35 %
990 20-03-2020 21:00:18 10.1 C 35 %
991 20-03-2020 21:10:18 9.9 C 35 %
992 20-03-2020 21:20:17 9.5 C 35 %
993 20-03-2020 21:30:17 9.2 C 35 %
994 20-03-2020 21:40:17 9.1 C 35 %
995 20-03-2020 21:50:17 8.7 C 36 %
996 20-03-2020 22:00:17 8.5 C 36 %
997 20-03-2020 22:10:17 8.4 C 36 %
998 20-03-2020 22:20:18 8.3 C 36 %
999 20-03-2020 22:30:17 8.2 C 36 %
1000 20-03-2020 22:40:18 8.1 C 36 %
Sensor: Nr:Datum:Temp:Feuchte:
Aussen-T/F 1001 20-03-2020 22:50:17 8.1 C 36 %
1002 20-03-2020 23:00:18 8 C 35 %
1003 20-03-2020 23:10:18 7.9 C 36 %
1004 20-03-2020 23:20:17 7.9 C 36 %
1005 20-03-2020 23:30:18 7.9 C 35 %
1006 20-03-2020 23:40:18 7.8 C 35 %
1007 20-03-2020 23:50:18 7.7 C 35 %
1008 21-03-2020 00:00:17 7.6 C 34 %
1009 21-03-2020 00:10:17 7.6 C 34 %
1010 21-03-2020 00:20:17 7.4 C 34 %
1011 21-03-2020 00:30:17 7.3 C 34 %
1012 21-03-2020 00:40:17 7.3 C 34 %
1013 21-03-2020 00:50:17 7.3 C 34 %
1014 21-03-2020 01:00:17 7.2 C 33 %
1015 21-03-2020 01:10:17 7.1 C 33 %
1016 21-03-2020 01:20:17 6.8 C 35 %
1017 21-03-2020 01:30:18 6.5 C 35 %
1018 21-03-2020 01:40:18 6.2 C 36 %
1019 21-03-2020 01:50:17 5.9 C 38 %
1020 21-03-2020 02:00:18 5.6 C 39 %
1021 21-03-2020 02:10:18 5.3 C 40 %
1022 21-03-2020 02:20:17 5.1 C 41 %
1023 21-03-2020 02:30:18 4.9 C 43 %
1024 21-03-2020 02:40:18 4.9 C 43 %
1025 21-03-2020 02:50:18 4.6 C 43 %
Sensor: Nr:Datum:Temp:Feuchte:
Aussen-T/F 1026 21-03-2020 03:00:17 4.5 C 43 %
1027 21-03-2020 03:10:17 4.4 C 44 %
1028 21-03-2020 03:20:17 4.5 C 45 %
1029 21-03-2020 03:30:18 4.5 C 45 %
1030 21-03-2020 03:40:18 4.4 C 45 %
1031 21-03-2020 03:50:17 4.4 C 45 %
1032 21-03-2020 04:00:18 4.3 C 45 %
1033 21-03-2020 04:10:18 4.2 C 45 %
1034 21-03-2020 04:20:17 4.1 C 45 %
1035 21-03-2020 04:30:18 4.1 C 45 %
1036 21-03-2020 04:40:18 4 C 45 %
1037 21-03-2020 04:50:18 3.9 C 46 %
1038 21-03-2020 05:00:18 3.9 C 46 %
1039 21-03-2020 05:10:18 4 C 46 %
1040 21-03-2020 05:20:18 3.9 C 47 %
1041 21-03-2020 05:30:18 3.9 C 47 %
1042 21-03-2020 05:40:18 3.9 C 47 %
1043 21-03-2020 05:50:17 4 C 46 %
1044 21-03-2020 06:00:18 4 C 47 %
1045 21-03-2020 06:10:18 3.9 C 47 %
1046 21-03-2020 06:20:17 4 C 47 %
1047 21-03-2020 06:30:18 4 C 47 %
1048 21-03-2020 06:40:18 4 C 47 %
1049 21-03-2020 06:50:17 4 C 47 %
1050 21-03-2020 07:00:17 4.1 C 47 %
Sensor: Nr:Datum:Temp:Feuchte:
Aussen-T/F 1051 21-03-2020 07:10:18 4.1 C 47 %
1052 21-03-2020 07:20:18 4.1 C 47 %
1053 21-03-2020 07:30:18 4.2 C 47 %
1054 21-03-2020 07:40:18 4.3 C 47 %
1055 21-03-2020 07:50:17 4.3 C 47 %
1056 21-03-2020 08:00:18 4.4 C 47 %
1057 21-03-2020 08:10:18 4.5 C 47 %
1058 21-03-2020 08:20:17 4.5 C 46 %
1059 21-03-2020 08:30:17 4.6 C 46 %
1060 21-03-2020 08:40:17 4.7 C 46 %
1061 21-03-2020 08:50:18 4.8 C 46 %
1062 21-03-2020 09:00:18 4.7 C 46 %
1063 21-03-2020 09:10:18 4.6 C 45 %
1064 21-03-2020 09:20:18 5.2 C 43 %
1065 21-03-2020 09:30:18 5.6 C 42 %
1066 21-03-2020 09:40:18 5.8 C 41 %
1067 21-03-2020 09:50:17 6 C 41 %
1068 21-03-2020 10:00:17 6.2 C 41 %
1069 21-03-2020 10:10:18 6.4 C 39 %
1070 21-03-2020 10:20:18 6.5 C 40 %
1071 21-03-2020 10:30:18 6.7 C 39 %
1072 21-03-2020 10:40:18 6.7 C 38 %
1073 21-03-2020 10:50:17 6.4 C 39 %
1074 21-03-2020 11:00:17 6.5 C 37 %
1075 21-03-2020 11:10:18 7.1 C 36 %
Sensor: Nr:Datum:Temp:Feuchte:
Aussen-T/F 1076 21-03-2020 11:20:18 7.3 C 36 %
1077 21-03-2020 11:30:18 8.1 C 34 %
1078 21-03-2020 11:40:18 8 C 34 %
1079 21-03-2020 11:50:18 8.3 C 32 %
1080 21-03-2020 12:00:18 7.8 C 32 %
1081 21-03-2020 12:10:18 7.6 C 33 %
1082 21-03-2020 12:20:17 7.9 C 31 %
1083 21-03-2020 12:30:17 8.7 C 32 %
1084 21-03-2020 12:40:17 8.2 C 30 %
1085 21-03-2020 12:50:17 7.8 C 31 %
1086 21-03-2020 13:00:17 7.9 C 30 %
1087 21-03-2020 13:10:17 8.7 C 30 %
1088 21-03-2020 13:20:18 8.9 C 28 %
1089 21-03-2020 13:30:18 8.5 C 28 %
1090 21-03-2020 13:40:18 8.2 C 27 %
1091 21-03-2020 13:50:17 8.4 C 27 %
1092 21-03-2020 14:00:18 8.6 C 27 %
1093 21-03-2020 14:10:18 9.1 C 26 %
1094 21-03-2020 14:20:18 8.7 C 27 %
1095 21-03-2020 14:30:18 9.1 C 25 %
1096 21-03-2020 14:40:18 11.1 C 24 %
1097 21-03-2020 14:50:17 9.8 C 23 %
1098 21-03-2020 15:00:18 11 C 20 %
1099 21-03-2020 15:10:18 10.1 C 20 %
1100 21-03-2020 15:20:17 11.2 C 20 %
Sensor: Nr:Datum:Temp:Feuchte:
Aussen-T/F 1101 21-03-2020 15:30:17 11.7 C 20 %
1102 21-03-2020 15:40:17 9.4 C 20 %
1103 21-03-2020 15:50:17 8.6 C 20 %
1104 21-03-2020 16:00:18 9.4 C 20 %
1105 21-03-2020 16:10:18 9.5 C 20 %
1106 21-03-2020 16:20:17 12.1 C 20 %
1107 21-03-2020 16:30:17 12 C 20 %
1108 21-03-2020 16:40:17 13.3 C 20 %
1109 21-03-2020 16:50:17 10.9 C 20 %
1110 21-03-2020 17:00:17 9.2 C 20 %
1111 21-03-2020 17:10:17 8.9 C 20 %
1112 21-03-2020 17:20:17 8.3 C 20 %
1113 21-03-2020 17:30:18 7.8 C 20 %
1114 21-03-2020 17:40:18 7.8 C 20 %
1115 21-03-2020 17:50:17 7.5 C 20 %
1116 21-03-2020 18:00:17 7 C 20 %
1117 21-03-2020 18:10:17 6.9 C 20 %
1118 21-03-2020 18:20:17 6.6 C 21 %
1119 21-03-2020 18:30:17 6.4 C 23 %
1120 21-03-2020 18:40:17 5.9 C 25 %
1121 21-03-2020 18:50:17 5.5 C 27 %
1122 21-03-2020 19:00:17 5.5 C 26 %
1123 21-03-2020 19:10:17 5.1 C 28 %
1124 21-03-2020 19:20:17 4.7 C 30 %
1125 21-03-2020 19:30:18 4.4 C 31 %
Sensor: Nr:Datum:Temp:Feuchte:
Aussen-T/F 1126 21-03-2020 19:40:18 4.5 C 30 %
1127 21-03-2020 19:50:17 4.4 C 29 %
1128 21-03-2020 20:00:18 4.1 C 30 %
1129 21-03-2020 20:10:18 3.7 C 31 %
1130 21-03-2020 20:20:18 3.2 C 33 %
1131 21-03-2020 20:30:18 3.7 C 32 %
1132 21-03-2020 20:40:18 3.9 C 30 %
1133 21-03-2020 20:50:17 3.6 C 31 %
1134 21-03-2020 21:00:18 3.3 C 32 %
1135 21-03-2020 21:10:18 3 C 32 %
1136 21-03-2020 21:20:18 3.4 C 32 %
1137 21-03-2020 21:30:18 3.1 C 31 %
1138 21-03-2020 21:40:18 2.9 C 32 %
1139 21-03-2020 21:50:17 2.6 C 33 %
1140 21-03-2020 22:00:17 1.9 C 36 %
1141 21-03-2020 22:10:17 2.3 C 34 %
1142 21-03-2020 22:20:17 3 C 32 %
1143 21-03-2020 22:30:18 2.7 C 32 %
1144 21-03-2020 22:40:18 2.3 C 33 %
1145 21-03-2020 22:50:18 2.7 C 32 %
1146 21-03-2020 23:00:18 2 C 34 %
1147 21-03-2020 23:10:18 2.2 C 33 %
1148 21-03-2020 23:20:18 1.6 C 35 %
1149 21-03-2020 23:30:18 1.7 C 35 %
1150 21-03-2020 23:40:18 1.8 C 35 %
Sensor: Nr:Datum:Temp:Feuchte:
Aussen-T/F 1151 21-03-2020 23:50:17 1.7 C 35 %
1152 22-03-2020 00:00:18 1.4 C 35 %
1153 22-03-2020 00:10:18 1.5 C 35 %
1154 22-03-2020 00:20:17 0.9 C 37 %
1155 22-03-2020 00:30:17 0.7 C 38 %
1156 22-03-2020 00:40:17 1.2 C 36 %
1157 22-03-2020 00:50:17 0.9 C 37 %
1158 22-03-2020 01:00:18 1.5 C 35 %
1159 22-03-2020 01:10:18 1.5 C 35 %
1160 22-03-2020 01:20:18 1.1 C 35 %
1161 22-03-2020 01:30:18 1.1 C 35 %
1162 22-03-2020 01:40:18 0.9 C 36 %
1163 22-03-2020 01:50:18 1 C 35 %
1164 22-03-2020 02:00:18 1 C 35 %
1165 22-03-2020 02:10:18 0.1 C 38 %
1166 22-03-2020 02:20:17 0.3 C 38 %
1167 22-03-2020 02:30:18 0.5 C 37 %
1168 22-03-2020 02:40:18 0.5 C 37 %
1169 22-03-2020 02:50:18 0.4 C 37 %
1170 22-03-2020 03:00:18 0.2 C 37 %
1171 22-03-2020 03:10:18 0.7 C 37 %
1172 22-03-2020 03:20:18 -0.4 C 38 %
1173 22-03-2020 03:30:18 -0.1 C 38 %
1174 22-03-2020 03:40:18 -0.4 C 39 %
1175 22-03-2020 03:50:17 -0.3 C 39 %
Sensor: Nr:Datum:Temp:Feuchte:
Aussen-T/F 1176 22-03-2020 04:00:17 -0.2 C 38 %
1177 22-03-2020 04:10:17 0 C 37 %
1178 22-03-2020 04:20:17 -0.4 C 38 %
1179 22-03-2020 04:30:17 0.3 C 37 %
1180 22-03-2020 04:40:17 0.1 C 37 %
1181 22-03-2020 04:50:17 -0.2 C 38 %
1182 22-03-2020 05:00:18 0.1 C 37 %
1183 22-03-2020 05:10:18 -0.3 C 37 %
1184 22-03-2020 05:20:17 -0.4 C 37 %
1185 22-03-2020 05:30:18 -0.5 C 38 %
1186 22-03-2020 05:40:18 -0.7 C 38 %
1187 22-03-2020 05:50:17 -1 C 39 %
1188 22-03-2020 06:00:17 -1.1 C 39 %
1189 22-03-2020 06:10:17 -0.8 C 39 %
1190 22-03-2020 06:20:17 0.1 C 37 %
1191 22-03-2020 06:30:17 -0.3 C 37 %
1192 22-03-2020 06:40:17 -0.4 C 37 %
1193 22-03-2020 06:50:18 0 C 36 %
1194 22-03-2020 07:00:18 -0.3 C 37 %
1195 22-03-2020 07:10:18 -0.2 C 37 %
1196 22-03-2020 07:20:18 -0.4 C 37 %
1197 22-03-2020 07:30:18 -0.1 C 36 %
1198 22-03-2020 07:40:18 -0.2 C 37 %
1199 22-03-2020 07:50:17 -0.1 C 36 %
1200 22-03-2020 08:00:18 -0.1 C 36 %
Sensor: Nr:Datum:Temp:Feuchte:
Aussen-T/F 1201 22-03-2020 08:10:18 0.3 C 36 %
1202 22-03-2020 08:20:18 0.3 C 35 %
1203 22-03-2020 08:30:18 0.5 C 35 %
1204 22-03-2020 08:40:18 0.8 C 35 %
1205 22-03-2020 08:50:18 0.4 C 35 %
1206 22-03-2020 09:00:18 0.8 C 35 %
1207 22-03-2020 09:10:18 1.2 C 32 %
1208 22-03-2020 09:20:18 1.6 C 32 %
1209 22-03-2020 09:30:18 2.2 C 30 %
1210 22-03-2020 09:40:18 2.5 C 27 %
1211 22-03-2020 09:50:17 2.8 C 26 %
1212 22-03-2020 10:00:18 3.3 C 25 %
1213 22-03-2020 10:10:18 3.6 C 25 %
1214 22-03-2020 10:20:18 3.9 C 20 %
1215 22-03-2020 10:30:18 4.4 C 20 %
1216 22-03-2020 10:40:18 4.6 C 20 %
1217 22-03-2020 10:50:17 5.2 C 20 %
1218 22-03-2020 11:00:18 5.5 C 20 %
1219 22-03-2020 11:10:18 6.3 C 20 %
1220 22-03-2020 11:20:17 6.5 C 20 %
1221 22-03-2020 11:30:18 6.7 C 20 %
1222 22-03-2020 11:40:18 6.7 C 20 %
1223 22-03-2020 11:50:17 6.5 C 20 %
1224 22-03-2020 12:00:18 7 C 20 %
1225 22-03-2020 12:10:18 7.4 C 20 %
Sensor: Nr:Datum:Temp:Feuchte:
Aussen-T/F 1226 22-03-2020 12:20:18 7.3 C 20 %
1227 22-03-2020 12:30:17 6.9 C 20 %
1228 22-03-2020 12:40:17 8 C 20 %
1229 22-03-2020 12:50:18 8.5 C 20 %
1230 22-03-2020 13:00:18 10.1 C 20 %
1231 22-03-2020 13:10:18 11.1 C 20 %
1232 22-03-2020 13:20:17 11.9 C 20 %
1233 22-03-2020 13:30:18 11.6 C 20 %
1234 22-03-2020 13:40:18 10.9 C 20 %
1235 22-03-2020 13:50:18 10.3 C 20 %
1236 22-03-2020 14:00:17 9.6 C 20 %
1237 22-03-2020 14:10:17 10.2 C 20 %
1238 22-03-2020 14:20:17 12.2 C 20 %
1239 22-03-2020 14:30:17 12.6 C 20 %
1240 22-03-2020 14:40:17 14.4 C 20 %
1241 22-03-2020 14:50:17 14.4 C 20 %
1242 22-03-2020 15:00:18 15 C 20 %
1243 22-03-2020 15:10:18 14.4 C 20 %
1244 22-03-2020 15:20:17 14.7 C 20 %
1245 22-03-2020 15:30:17 13.6 C 20 %
1246 22-03-2020 15:40:17 13.7 C 20 %
1247 22-03-2020 15:50:18 15.4 C 20 %
1248 22-03-2020 16:00:18 16.2 C 20 %
1249 22-03-2020 16:10:18 14.9 C 20 %
1250 22-03-2020 16:20:18 14.1 C 20 %
Sensor: Nr:Datum:Temp:Feuchte:
Aussen-T/F 1251 22-03-2020 16:30:18 13.3 C 20 %
1252 22-03-2020 16:40:18 13.2 C 20 %
1253 22-03-2020 16:50:17 11.7 C 20 %
1254 22-03-2020 17:00:17 10.7 C 20 %
1255 22-03-2020 17:10:17 9.9 C 20 %
1256 22-03-2020 17:20:17 9.7 C 20 %
1257 22-03-2020 17:30:17 9.8 C 20 %
1258 22-03-2020 17:40:17 9.5 C 20 %
1259 22-03-2020 17:50:17 8.9 C 20 %
1260 22-03-2020 18:00:18 8.6 C 20 %
1261 22-03-2020 18:10:18 8.4 C 20 %
1262 22-03-2020 18:20:17 7.9 C 20 %
1263 22-03-2020 18:30:17 7.5 C 20 %
1264 22-03-2020 18:40:17 7 C 20 %
1265 22-03-2020 18:50:17 6.5 C 20 %
1266 22-03-2020 19:00:17 5.6 C 20 %
1267 22-03-2020 19:10:17 4.9 C 21 %
1268 22-03-2020 19:20:17 5.2 C 20 %
1269 22-03-2020 19:30:17 4.3 C 26 %
1270 22-03-2020 19:40:17 3.8 C 27 %
1271 22-03-2020 19:50:18 3.7 C 28 %
1272 22-03-2020 20:00:18 3.6 C 28 %
1273 22-03-2020 20:10:18 3.6 C 27 %
1274 22-03-2020 20:20:17 3.6 C 26 %
1275 22-03-2020 20:30:17 3.2 C 26 %
Sensor: Nr:Datum:Temp:Feuchte:
Aussen-T/F 1276 22-03-2020 20:40:17 3 C 26 %
1277 22-03-2020 20:50:17 2.5 C 30 %
1278 22-03-2020 21:00:17 2.9 C 26 %
1279 22-03-2020 21:10:17 2.7 C 27 %
1280 22-03-2020 21:20:17 2.3 C 30 %
1281 22-03-2020 21:30:17 2.2 C 29 %
1282 22-03-2020 21:40:17 1.8 C 30 %
1283 22-03-2020 21:50:18 1.5 C 31 %
1284 22-03-2020 22:00:18 2 C 30 %
1285 22-03-2020 22:10:18 2.5 C 26 %
1286 22-03-2020 22:20:17 1.8 C 30 %
1287 22-03-2020 22:30:17 1.5 C 29 %
1288 22-03-2020 22:40:17 1.3 C 31 %
1289 22-03-2020 22:50:17 1.4 C 30 %
1290 22-03-2020 23:00:17 0.7 C 33 %
1291 22-03-2020 23:10:17 1.1 C 30 %
1292 22-03-2020 23:20:17 0.8 C 32 %
1293 22-03-2020 23:30:18 0.3 C 33 %
1294 22-03-2020 23:40:18 0.3 C 34 %
1295 22-03-2020 23:50:18 0.6 C 33 %
1296 23-03-2020 00:00:18 0.4 C 34 %
1297 23-03-2020 00:10:18 0 C 33 %
1298 23-03-2020 00:20:17 -0.2 C 33 %
1299 23-03-2020 00:30:17 -0.5 C 35 %
1300 23-03-2020 00:40:17 -0.7 C 36 %
Sensor: Nr:Datum:Temp:Feuchte:
Aussen-T/F 1301 23-03-2020 00:50:18 -1.1 C 36 %
1302 23-03-2020 01:00:17 -0.6 C 35 %
1303 23-03-2020 01:10:17 -0.7 C 36 %
1304 23-03-2020 01:20:17 -0.9 C 35 %
1305 23-03-2020 01:30:18 -0.8 C 35 %
1306 23-03-2020 01:40:18 -1.1 C 35 %
1307 23-03-2020 01:50:18 -0.8 C 35 %
1308 23-03-2020 02:00:18 -1.1 C 35 %
1309 23-03-2020 02:10:18 -1.4 C 35 %
1310 23-03-2020 02:20:17 -1.2 C 35 %
1311 23-03-2020 02:30:17 -1.2 C 35 %
1312 23-03-2020 02:40:17 -1.2 C 35 %
1313 23-03-2020 02:50:17 -1.3 C 35 %
1314 23-03-2020 03:00:17 -1.6 C 35 %
1315 23-03-2020 03:10:18 -1.9 C 35 %
1316 23-03-2020 03:20:18 -1.6 C 35 %
1317 23-03-2020 03:30:18 -1.7 C 35 %
1318 23-03-2020 03:40:18 -1.9 C 35 %
1319 23-03-2020 03:50:18 -1.8 C 35 %
1320 23-03-2020 04:00:18 -1.8 C 35 %
1321 23-03-2020 04:10:18 -2.1 C 35 %
1322 23-03-2020 04:20:17 -1.9 C 35 %
1323 23-03-2020 04:30:17 -2 C 35 %
1324 23-03-2020 04:40:17 -2.1 C 35 %
1325 23-03-2020 04:50:17 -2.7 C 36 %
Sensor: Nr:Datum:Temp:Feuchte:
Aussen-T/F 1326 23-03-2020 05:00:18 -2.5 C 36 %
1327 23-03-2020 05:10:18 -2.4 C 36 %
1328 23-03-2020 05:20:17 -2.3 C 36 %
1329 23-03-2020 05:30:18 -2.4 C 35 %
1330 23-03-2020 05:40:18 -2.7 C 36 %
1331 23-03-2020 05:50:17 -2.7 C 36 %
1332 23-03-2020 06:00:18 -2.6 C 36 %
1333 23-03-2020 06:10:18 -2.9 C 36 %
1334 23-03-2020 06:20:17 -2.6 C 36 %
1335 23-03-2020 06:30:18 -2.8 C 36 %
1336 23-03-2020 06:40:18 -3.2 C 36 %
1337 23-03-2020 06:50:18 -3 C 36 %
1338 23-03-2020 07:00:18 -3 C 36 %
1339 23-03-2020 07:10:18 -3.1 C 36 %
1340 23-03-2020 07:20:18 -2.5 C 35 %
1341 23-03-2020 07:30:18 -2.7 C 36 %
1342 23-03-2020 07:40:18 -2.6 C 36 %
1343 23-03-2020 07:50:18 -1.9 C 34 %
1344 23-03-2020 08:00:18 -2 C 35 %
1345 23-03-2020 08:10:18 -1.4 C 32 %
1346 23-03-2020 08:20:17 -1.1 C 31 %
1347 23-03-2020 08:30:18 -0.2 C 27 %
1348 23-03-2020 08:40:18 -0.2 C 26 %
1349 23-03-2020 08:50:18 -0.3 C 25 %
1350 23-03-2020 09:00:18 0 C 23 %
Sensor: Nr:Datum:Temp:Feuchte:
Aussen-T/F 1351 23-03-2020 09:10:18 0.2 C 23 %
1352 23-03-2020 09:20:18 0.5 C 20 %
1353 23-03-2020 09:30:17 0.7 C 20 %
1354 23-03-2020 09:40:17 1.5 C 20 %
1355 23-03-2020 09:50:18 1.8 C 20 %
1356 23-03-2020 10:00:18 2.4 C 20 %
1357 23-03-2020 10:10:18 2.7 C 20 %
1358 23-03-2020 10:20:18 3 C 20 %
1359 23-03-2020 10:30:17 3.8 C 20 %
1360 23-03-2020 10:40:17 4.1 C 20 %
1361 23-03-2020 10:50:17 4.7 C 20 %
1362 23-03-2020 11:00:17 5.5 C 20 %
1363 23-03-2020 11:10:17 5.5 C 20 %
1364 23-03-2020 11:20:17 6 C 20 %
1365 23-03-2020 11:30:18 6.7 C 20 %
1366 23-03-2020 11:40:18 6.2 C 20 %
1367 23-03-2020 11:50:17 6.3 C 20 %
1368 23-03-2020 12:00:18 7 C 20 %
1369 23-03-2020 12:10:18 7.4 C 20 %
1370 23-03-2020 12:20:18 7.8 C 20 %
1371 23-03-2020 12:30:18 7.5 C 20 %
1372 23-03-2020 12:40:18 8.1 C 20 %
1373 23-03-2020 12:50:18 8.7 C 20 %
1374 23-03-2020 13:00:17 10.4 C 20 %
1375 23-03-2020 13:10:17 10.7 C 20 %
Sensor: Nr:Datum:Temp:Feuchte:
Aussen-T/F 1376 23-03-2020 13:20:17 11.9 C 20 %
1377 23-03-2020 13:30:17 11.4 C 20 %
1378 23-03-2020 13:40:17 10 C 20 %
1379 23-03-2020 13:50:17 9.8 C 20 %
1380 23-03-2020 14:00:18 9.2 C 20 %
1381 23-03-2020 14:10:18 10.5 C 20 %
1382 23-03-2020 14:20:18 12.9 C 20 %
1383 23-03-2020 14:30:18 13 C 20 %
1384 23-03-2020 14:40:18 14.2 C 20 %
1385 23-03-2020 14:50:18 14.3 C 20 %
1386 23-03-2020 15:00:18 14.3 C 20 %
1387 23-03-2020 15:10:18 14.4 C 20 %
1388 23-03-2020 15:20:17 14.7 C 20 %
1389 23-03-2020 15:30:17 13.5 C 20 %
1390 23-03-2020 15:40:17 14.4 C 20 %
1391 23-03-2020 15:50:17 14.1 C 20 %
1392 23-03-2020 16:00:17 13.8 C 20 %
1393 23-03-2020 16:10:17 14.7 C 20 %
1394 23-03-2020 16:20:17 15.3 C 20 %
1395 23-03-2020 16:30:18 14.7 C 20 %
1396 23-03-2020 16:40:18 14.8 C 20 %
1397 23-03-2020 16:50:17 11.4 C 20 %
1398 23-03-2020 17:00:18 10.1 C 20 %
1399 23-03-2020 17:10:18 9.7 C 20 %
1400 23-03-2020 17:20:18 9.4 C 20 %
Sensor: Nr:Datum:Temp:Feuchte:
Aussen-T/F 1401 23-03-2020 17:30:18 9 C 20 %
1402 23-03-2020 17:40:18 9 C 20 %
1403 23-03-2020 17:50:17 8.6 C 20 %
1404 23-03-2020 18:00:18 8.3 C 20 %
1405 23-03-2020 18:10:18 7.6 C 20 %
1406 23-03-2020 18:20:17 7.4 C 20 %
1407 23-03-2020 18:30:18 7 C 20 %
1408 23-03-2020 18:40:18 5.3 C 20 %
1409 23-03-2020 18:50:18 4.4 C 20 %
1410 23-03-2020 19:00:18 4.2 C 20 %
1411 23-03-2020 19:10:18 4.1 C 20 %
1412 23-03-2020 19:20:17 3.7 C 20 %
1413 23-03-2020 19:30:18 3.6 C 20 %
1414 23-03-2020 19:40:18 3.4 C 20 %
1415 23-03-2020 19:50:18 2.7 C 20 %
1416 23-03-2020 20:00:17 2.9 C 20 %
1417 23-03-2020 20:10:17 2.6 C 20 %
1418 23-03-2020 20:20:17 2.5 C 20 %
1419 23-03-2020 20:30:18 2.3 C 20 %
1420 23-03-2020 20:40:18 2.4 C 20 %
1421 23-03-2020 20:50:18 2.3 C 20 %
1422 23-03-2020 21:00:18 2.1 C 20 %
1423 23-03-2020 21:10:18 0.9 C 27 %
1424 23-03-2020 21:20:17 1 C 26 %
1425 23-03-2020 21:30:18 1.1 C 28 %
Sensor: Nr:Datum:Temp:Feuchte:
Aussen-T/F 1426 23-03-2020 21:40:18 0.7 C 29 %
1427 23-03-2020 21:50:18 0.2 C 30 %
1428 23-03-2020 22:00:17 -0.4 C 31 %
1429 23-03-2020 22:10:18 -0.9 C 35 %
1430 23-03-2020 22:20:18 -0.2 C 34 %
1431 23-03-2020 22:30:18 -0.9 C 35 %
1432 23-03-2020 22:40:18 -0.9 C 35 %
1433 23-03-2020 22:50:18 -1.3 C 35 %
1434 23-03-2020 23:00:18 -1.4 C 36 %
1435 23-03-2020 23:10:18 -1.6 C 36 %
1436 23-03-2020 23:20:17 -1.7 C 36 %
1437 23-03-2020 23:30:17 -1.7 C 37 %
1438 23-03-2020 23:40:17 -1.9 C 37 %
1439 23-03-2020 23:50:18 -1.8 C 37 %
1440 24-03-2020 00:00:18 -1.9 C 36 %
1441 24-03-2020 00:10:18 -2 C 36 %
1442 24-03-2020 00:20:17 -2.2 C 36 %
1443 24-03-2020 00:30:18 -2.4 C 37 %
1444 24-03-2020 00:40:18 -2.4 C 38 %
1445 24-03-2020 00:50:18 -2.5 C 38 %
1446 24-03-2020 01:00:18 -2.3 C 37 %
1447 24-03-2020 01:10:18 -2.6 C 37 %
1448 24-03-2020 01:20:18 -2.7 C 38 %
1449 24-03-2020 01:30:18 -2.7 C 38 %
1450 24-03-2020 01:40:18 -3 C 38 %
Sensor: Nr:Datum:Temp:Feuchte:
Aussen-T/F 1451 24-03-2020 01:50:18 -2.5 C 37 %
1452 24-03-2020 02:00:18 -2.6 C 38 %
1453 24-03-2020 02:10:18 -2.8 C 38 %
1454 24-03-2020 02:20:17 -3.1 C 38 %
1455 24-03-2020 02:30:17 -3.2 C 38 %
1456 24-03-2020 02:40:17 -3.3 C 38 %
1457 24-03-2020 02:50:17 -3.2 C 38 %
1458 24-03-2020 03:00:17 -3.4 C 38 %
1459 24-03-2020 03:10:17 -3.5 C 38 %
1460 24-03-2020 03:20:17 -3.6 C 39 %
1461 24-03-2020 03:30:17 -3.6 C 38 %
1462 24-03-2020 03:40:17 -3.7 C 38 %
1463 24-03-2020 03:50:17 -3.9 C 39 %
1464 24-03-2020 04:00:18 -3.7 C 39 %
1465 24-03-2020 04:10:18 -3.9 C 38 %
1466 24-03-2020 04:20:18 -4 C 38 %
1467 24-03-2020 04:30:18 -4 C 38 %
1468 24-03-2020 04:40:18 -4 C 38 %
1469 24-03-2020 04:50:17 -3.9 C 38 %
1470 24-03-2020 05:00:17 -4.2 C 38 %
1471 24-03-2020 05:10:17 -4.3 C 39 %
1472 24-03-2020 05:20:17 -4.2 C 38 %
1473 24-03-2020 05:30:18 -4.3 C 38 %
1474 24-03-2020 05:40:18 -4.4 C 38 %
1475 24-03-2020 05:50:18 -4.6 C 39 %
Sensor: Nr:Datum:Temp:Feuchte:
Aussen-T/F 1476 24-03-2020 06:00:17 -4.7 C 39 %
1477 24-03-2020 06:10:18 -4.7 C 38 %
1478 24-03-2020 06:20:17 -4.7 C 39 %
1479 24-03-2020 06:30:18 -4.7 C 38 %
1480 24-03-2020 06:40:18 -4.6 C 39 %
1481 24-03-2020 06:50:18 -4.4 C 38 %
1482 24-03-2020 07:00:18 -4.5 C 39 %
1483 24-03-2020 07:10:18 -4.4 C 39 %
1484 24-03-2020 07:20:18 -4.3 C 39 %
1485 24-03-2020 07:30:18 -4.2 C 39 %
1486 24-03-2020 07:40:18 -4 C 39 %
1487 24-03-2020 07:50:17 -3.8 C 39 %
1488 24-03-2020 08:00:17 -3.7 C 39 %
1489 24-03-2020 08:10:17 -3.5 C 38 %
1490 24-03-2020 08:20:17 -3.3 C 38 %
1491 24-03-2020 08:30:17 -2.5 C 38 %
1492 24-03-2020 08:40:17 -2.4 C 37 %
1493 24-03-2020 08:50:17 -2 C 37 %
1494 24-03-2020 09:00:17 -1.6 C 36 %
1495 24-03-2020 09:10:17 -0.7 C 35 %
1496 24-03-2020 09:20:17 -0.2 C 34 %
1497 24-03-2020 09:30:17 0.4 C 30 %
1498 24-03-2020 09:40:17 1 C 27 %
1499 24-03-2020 09:50:18 1.7 C 23 %
1500 24-03-2020 10:00:18 3 C 20 %
Sensor: Nr:Datum:Temp:Feuchte:
Aussen-T/F 1501 24-03-2020 10:10:18 3.3 C 20 %
1502 24-03-2020 10:20:17 3.9 C 20 %
1503 24-03-2020 10:30:17 4.3 C 20 %
1504 24-03-2020 10:40:17 4.7 C 20 %
1505 24-03-2020 10:50:17 5.7 C 20 %
1506 24-03-2020 11:00:18 5.7 C 20 %
1507 24-03-2020 11:10:18 6.4 C 20 %
1508 24-03-2020 11:20:17 6.9 C 20 %
1509 24-03-2020 11:30:17 7.9 C 20 %
1510 24-03-2020 11:40:17 7.2 C 20 %
1511 24-03-2020 11:50:18 6.8 C 20 %
1512 24-03-2020 12:00:18 7.8 C 20 %
1513 24-03-2020 12:10:18 8.6 C 20 %
1514 24-03-2020 12:20:17 8.2 C 20 %
1515 24-03-2020 12:30:17 8.2 C 20 %
1516 24-03-2020 12:40:17 9 C 20 %
1517 24-03-2020 12:50:17 9.2 C 20 %
1518 24-03-2020 13:00:18 10.4 C 20 %
1519 24-03-2020 13:10:18 11.7 C 20 %
1520 24-03-2020 13:20:17 12.5 C 20 %
1521 24-03-2020 13:30:17 13 C 20 %
1522 24-03-2020 13:40:17 11.9 C 20 %
1523 24-03-2020 13:50:18 11 C 20 %
1524 24-03-2020 14:00:17 10.8 C 20 %
1525 24-03-2020 14:10:17 11.3 C 20 %
Sensor: Nr:Datum:Temp:Feuchte:
Aussen-T/F 1526 24-03-2020 14:20:17 13.7 C 20 %
1527 24-03-2020 14:30:17 12.2 C 20 %
1528 24-03-2020 14:40:17 14.4 C 20 %
1529 24-03-2020 14:50:18 13.4 C 20 %
1530 24-03-2020 15:00:18 13.5 C 20 %
1531 24-03-2020 15:10:18 14.1 C 20 %
1532 24-03-2020 15:20:18 15.3 C 20 %
1533 24-03-2020 15:30:18 14.1 C 20 %
1534 24-03-2020 15:40:18 15.4 C 20 %
1535 24-03-2020 15:50:18 14.9 C 20 %
1536 24-03-2020 16:00:18 14.8 C 20 %
1537 24-03-2020 16:10:18 14.8 C 20 %
1538 24-03-2020 16:20:18 14.1 C 20 %
1539 24-03-2020 16:30:18 13.6 C 20 %
1540 24-03-2020 16:40:18 14.3 C 20 %
1541 24-03-2020 16:50:18 11.4 C 20 %
1542 24-03-2020 17:00:18 10.8 C 20 %
1543 24-03-2020 17:10:18 10.4 C 20 %
1544 24-03-2020 17:20:18 10.1 C 20 %
1545 24-03-2020 17:30:18 9.9 C 20 %
1546 24-03-2020 17:40:18 9.6 C 20 %
1547 24-03-2020 17:50:17 9.3 C 20 %
1548 24-03-2020 18:00:17 9 C 20 %
1549 24-03-2020 18:10:17 8.6 C 20 %
1550 24-03-2020 18:20:17 8.4 C 20 %
Sensor: Nr:Datum:Temp:Feuchte:
Aussen-T/F 1551 24-03-2020 18:30:17 7.6 C 20 %
1552 24-03-2020 18:40:18 6.4 C 20 %
1553 24-03-2020 18:50:17 5.4 C 20 %
1554 24-03-2020 19:00:18 4.9 C 20 %
1555 24-03-2020 19:10:18 4.6 C 20 %
1556 24-03-2020 19:20:18 4.5 C 20 %
1557 24-03-2020 19:30:18 4.1 C 20 %
1558 24-03-2020 19:40:18 3.9 C 20 %
1559 24-03-2020 19:50:17 3.6 C 20 %
1560 24-03-2020 20:00:18 3.6 C 20 %
1561 24-03-2020 20:10:18 3.5 C 20 %
1562 24-03-2020 20:20:17 3.4 C 20 %
1563 24-03-2020 20:30:18 3.4 C 20 %
1564 24-03-2020 20:40:18 2.9 C 20 %
1565 24-03-2020 20:50:18 2.7 C 20 %
1566 24-03-2020 21:00:18 2.7 C 20 %
1567 24-03-2020 21:10:18 2.6 C 20 %
1568 24-03-2020 21:20:17 2.3 C 20 %
1569 24-03-2020 21:30:17 2.3 C 20 %
1570 24-03-2020 21:40:17 2.2 C 20 %
1571 24-03-2020 21:50:17 2.2 C 20 %
1572 24-03-2020 22:00:18 1.7 C 20 %
1573 24-03-2020 22:10:18 1.6 C 20 %
1574 24-03-2020 22:20:17 1.6 C 20 %
1575 24-03-2020 22:30:18 0.3 C 25 %
Sensor: Nr:Datum:Temp:Feuchte:
Aussen-T/F 1576 24-03-2020 22:40:18 -0.2 C 30 %
1577 24-03-2020 22:50:17 -0.7 C 30 %
1578 24-03-2020 23:00:18 -1.2 C 32 %
1579 24-03-2020 23:10:18 -1.1 C 31 %
1580 24-03-2020 23:20:17 -1.4 C 31 %
1581 24-03-2020 23:30:18 -1.7 C 30 %
1582 24-03-2020 23:40:18 -0.9 C 30 %
1583 24-03-2020 23:50:18 -1.2 C 30 %
1584 25-03-2020 00:00:17 -1.6 C 30 %
1585 25-03-2020 00:10:17 -1.6 C 31 %
1586 25-03-2020 00:20:17 -1.8 C 32 %
1587 25-03-2020 00:30:17 -1.8 C 30 %
1588 25-03-2020 00:40:18 -1.9 C 31 %
1589 25-03-2020 00:50:17 -1.8 C 32 %
1590 25-03-2020 01:00:17 -1.6 C 32 %
1591 25-03-2020 01:10:18 -1.3 C 31 %
1592 25-03-2020 01:20:17 -1.1 C 30 %
1593 25-03-2020 01:30:18 -1.1 C 29 %
1594 25-03-2020 01:40:18 -0.9 C 28 %
1595 25-03-2020 01:50:17 -1.1 C 28 %
1596 25-03-2020 02:00:17 -1.1 C 28 %
1597 25-03-2020 02:10:18 -1.3 C 27 %
1598 25-03-2020 02:20:18 -1.4 C 29 %
1599 25-03-2020 02:30:18 -1.6 C 27 %
1600 25-03-2020 02:40:18 -1.5 C 27 %
Sensor: Nr:Datum:Temp:Feuchte:
Aussen-T/F 1601 25-03-2020 02:50:18 -1.4 C 27 %
1602 25-03-2020 03:00:18 -1.4 C 26 %
1603 25-03-2020 03:10:18 -1.4 C 26 %
1604 25-03-2020 03:20:17 -1.5 C 27 %
1605 25-03-2020 03:30:17 -2.3 C 30 %
1606 25-03-2020 03:40:17 -2.6 C 31 %
1607 25-03-2020 03:50:17 -2.8 C 32 %
1608 25-03-2020 04:00:17 -3.1 C 33 %
1609 25-03-2020 04:10:17 -3.2 C 34 %
1610 25-03-2020 04:20:17 -3.3 C 34 %
1611 25-03-2020 04:30:18 -3.3 C 34 %
1612 25-03-2020 04:40:18 -3 C 33 %
1613 25-03-2020 04:50:17 -3.2 C 33 %
1614 25-03-2020 05:00:18 -3 C 32 %
1615 25-03-2020 05:10:18 -2.6 C 32 %
1616 25-03-2020 05:20:17 -2.3 C 30 %
1617 25-03-2020 05:30:17 -2.5 C 30 %
1618 25-03-2020 05:40:17 -3.4 C 33 %
1619 25-03-2020 05:50:17 -4 C 35 %
1620 25-03-2020 06:00:17 -4.4 C 36 %
1621 25-03-2020 06:10:17 -4.2 C 36 %
1622 25-03-2020 06:20:17 -4.2 C 36 %
1623 25-03-2020 06:30:17 -4.4 C 36 %
1624 25-03-2020 06:40:17 -4.3 C 36 %
1625 25-03-2020 06:50:17 -4.3 C 36 %
Sensor: Nr:Datum:Temp:Feuchte:
Aussen-T/F 1626 25-03-2020 07:00:17 -4.3 C 37 %
1627 25-03-2020 07:10:17 -4.3 C 37 %
1628 25-03-2020 07:20:17 -4.1 C 37 %
1629 25-03-2020 07:30:17 -4 C 37 %
1630 25-03-2020 07:40:17 -3.8 C 37 %
1631 25-03-2020 07:50:17 -3.2 C 36 %
1632 25-03-2020 08:00:17 -2.6 C 35 %
1633 25-03-2020 08:10:17 -2 C 32 %
1634 25-03-2020 08:20:17 -2.7 C 35 %
1635 25-03-2020 08:30:17 -2 C 34 %
1636 25-03-2020 08:40:17 -1.9 C 34 %
1637 25-03-2020 08:50:17 -1.6 C 34 %
1638 25-03-2020 09:00:17 -1.5 C 34 %
1639 25-03-2020 09:10:17 -1.3 C 35 %
1640 25-03-2020 09:20:17 -1 C 35 %
1641 25-03-2020 09:30:17 -0.2 C 32 %
1642 25-03-2020 09:40:18 0.7 C 29 %
1643 25-03-2020 09:50:17 2.1 C 20 %
1644 25-03-2020 10:00:18 2.8 C 20 %
1645 25-03-2020 10:10:18 3.2 C 20 %
1646 25-03-2020 10:20:17 3.6 C 20 %
1647 25-03-2020 10:30:17 4.1 C 20 %
1648 25-03-2020 10:40:17 4.7 C 20 %
1649 25-03-2020 10:50:17 5.1 C 20 %
1650 25-03-2020 11:00:17 5.3 C 20 %
Sensor: Nr:Datum:Temp:Feuchte:
Aussen-T/F 1651 25-03-2020 11:10:17 5.7 C 20 %
1652 25-03-2020 11:20:17 7.2 C 20 %
1653 25-03-2020 11:30:18 7.7 C 20 %
1654 25-03-2020 11:40:18 7.3 C 20 %
1655 25-03-2020 11:50:17 6.8 C 20 %
1656 25-03-2020 12:00:17 7.8 C 20 %
1657 25-03-2020 12:10:17 8.3 C 20 %
1658 25-03-2020 12:20:17 8.4 C 20 %
1659 25-03-2020 12:30:17 8.4 C 20 %
1660 25-03-2020 12:40:17 8.6 C 20 %
1661 25-03-2020 12:50:17 10.3 C 20 %
1662 25-03-2020 13:00:17 11.2 C 20 %
1663 25-03-2020 13:10:17 12.2 C 20 %
1664 25-03-2020 13:20:18 13.8 C 20 %
1665 25-03-2020 13:30:18 14.5 C 20 %
1666 25-03-2020 13:40:18 12.4 C 20 %
1667 25-03-2020 13:50:18 12 C 20 %
1668 25-03-2020 14:00:18 11.3 C 20 %
1669 25-03-2020 14:10:18 11.1 C 20 %
1670 25-03-2020 14:20:17 13.2 C 20 %
1671 25-03-2020 14:30:17 13.5 C 20 %
1672 25-03-2020 14:40:17 12.7 C 20 %
1673 25-03-2020 14:50:17 13.5 C 20 %
1674 25-03-2020 15:00:17 13.8 C 20 %
1675 25-03-2020 15:10:17 14.1 C 20 %
Sensor: Nr:Datum:Temp:Feuchte:
Aussen-T/F 1676 25-03-2020 15:20:18 14.9 C 20 %
1677 25-03-2020 15:30:18 14.4 C 20 %
1678 25-03-2020 15:40:18 14.4 C 20 %
1679 25-03-2020 15:50:17 15 C 20 %
1680 25-03-2020 16:00:18 15.3 C 20 %
1681 25-03-2020 16:10:18 14.5 C 20 %
1682 25-03-2020 16:20:17 15.7 C 20 %
1683 25-03-2020 16:30:17 13.8 C 20 %
1684 25-03-2020 16:40:17 12.9 C 20 %
1685 25-03-2020 16:50:18 12.2 C 20 %
1686 25-03-2020 17:00:18 11.9 C 20 %
1687 25-03-2020 17:10:18 11.5 C 20 %
1688 25-03-2020 17:20:17 11.1 C 20 %
1689 25-03-2020 17:30:17 11 C 20 %
1690 25-03-2020 17:40:17 10.7 C 20 %
1691 25-03-2020 17:50:17 10.5 C 20 %
1692 25-03-2020 18:00:18 10.5 C 20 %
1693 25-03-2020 18:10:18 10.1 C 20 %
1694 25-03-2020 18:20:17 9.6 C 20 %
1695 25-03-2020 18:30:18 8.8 C 20 %
1696 25-03-2020 18:40:18 7.7 C 20 %
1697 25-03-2020 18:50:18 7 C 20 %
1698 25-03-2020 19:00:18 6.3 C 20 %
1699 25-03-2020 19:10:18 6.1 C 20 %
1700 25-03-2020 19:20:17 5.4 C 20 %
Sensor: Nr:Datum:Temp:Feuchte:
Aussen-T/F 1701 25-03-2020 19:30:18 5.8 C 20 %
1702 25-03-2020 19:40:18 5.1 C 20 %
1703 25-03-2020 19:50:17 4.6 C 20 %
1704 25-03-2020 20:00:17 4.5 C 20 %
1705 25-03-2020 20:10:17 4.1 C 20 %
1706 25-03-2020 20:20:17 4 C 20 %
1707 25-03-2020 20:30:18 4.7 C 20 %
1708 25-03-2020 20:40:18 4.3 C 20 %
1709 25-03-2020 20:50:17 3.8 C 20 %
1710 25-03-2020 21:00:18 4.6 C 20 %
1711 25-03-2020 21:10:18 4.6 C 20 %
1712 25-03-2020 21:20:17 4.3 C 20 %
1713 25-03-2020 21:30:17 4.3 C 20 %
1714 25-03-2020 21:40:17 4 C 20 %
1715 25-03-2020 21:50:17 3.6 C 20 %
1716 25-03-2020 22:00:17 2.8 C 20 %
1717 25-03-2020 22:10:17 2.6 C 20 %
1718 25-03-2020 22:20:17 2.6 C 20 %
1719 25-03-2020 22:30:18 2.1 C 20 %
1720 25-03-2020 22:40:18 2.3 C 20 %
1721 25-03-2020 22:50:18 2.1 C 20 %
1722 25-03-2020 23:00:18 1.7 C 20 %
1723 25-03-2020 23:10:18 1.7 C 23 %
1724 25-03-2020 23:20:17 1.6 C 23 %
1725 25-03-2020 23:30:18 1.5 C 21 %
Sensor: Nr:Datum:Temp:Feuchte:
Aussen-T/F 1726 25-03-2020 23:40:18 1.8 C 20 %
1727 25-03-2020 23:50:18 1.8 C 20 %
1728 26-03-2020 00:00:18 1.4 C 21 %
1729 26-03-2020 00:10:18 1.2 C 21 %
1730 26-03-2020 00:20:18 1.3 C 21 %
1731 26-03-2020 00:30:18 0.9 C 23 %
1732 26-03-2020 00:40:18 0.9 C 25 %
1733 26-03-2020 00:50:18 1 C 23 %
1734 26-03-2020 01:00:18 0.7 C 25 %
1735 26-03-2020 01:10:18 0.4 C 25 %
1736 26-03-2020 01:20:17 0.5 C 25 %
1737 26-03-2020 01:30:17 0.7 C 25 %
1738 26-03-2020 01:40:17 0.7 C 23 %
1739 26-03-2020 01:50:17 0.7 C 21 %
1740 26-03-2020 02:00:17 0.6 C 23 %
1741 26-03-2020 02:10:17 0.7 C 21 %
1742 26-03-2020 02:20:17 0.7 C 21 %
1743 26-03-2020 02:30:17 0.6 C 21 %
1744 26-03-2020 02:40:18 0.4 C 21 %
1745 26-03-2020 02:50:17 0.3 C 23 %
1746 26-03-2020 03:00:17 0 C 23 %
1747 26-03-2020 03:10:18 0.1 C 23 %
1748 26-03-2020 03:20:18 0 C 23 %
1749 26-03-2020 03:30:18 -0.3 C 25 %
1750 26-03-2020 03:40:18 -0.3 C 27 %
Sensor: Nr:Datum:Temp:Feuchte:
Aussen-T/F 1751 26-03-2020 03:50:17 -0.4 C 27 %
1752 26-03-2020 04:00:17 -0.1 C 26 %
1753 26-03-2020 04:10:17 -0.3 C 25 %
1754 26-03-2020 04:20:17 -0.3 C 26 %
1755 26-03-2020 04:30:18 -0.4 C 26 %
1756 26-03-2020 04:40:18 -0.4 C 26 %
1757 26-03-2020 04:50:17 -0.5 C 26 %
1758 26-03-2020 05:00:18 -0.5 C 27 %
1759 26-03-2020 05:10:18 -0.6 C 27 %
1760 26-03-2020 05:20:17 -0.6 C 28 %
1761 26-03-2020 05:30:17 -0.7 C 28 %
1762 26-03-2020 05:40:18 -0.5 C 28 %
1763 26-03-2020 05:50:17 -0.6 C 28 %
1764 26-03-2020 06:00:18 -0.7 C 29 %
1765 26-03-2020 06:10:18 -0.8 C 28 %
1766 26-03-2020 06:20:18 -0.9 C 28 %
1767 26-03-2020 06:30:18 -1 C 28 %
1768 26-03-2020 06:40:18 -0.9 C 30 %
1769 26-03-2020 06:50:18 -1.1 C 30 %
1770 26-03-2020 07:00:18 -0.8 C 30 %
1771 26-03-2020 07:10:18 -1.1 C 30 %
1772 26-03-2020 07:20:18 -0.6 C 30 %
1773 26-03-2020 07:30:18 -0.4 C 30 %
1774 26-03-2020 07:40:18 0.2 C 27 %
1775 26-03-2020 07:50:17 0.5 C 25 %
Sensor: Nr:Datum:Temp:Feuchte:
Aussen-T/F 1776 26-03-2020 08:00:18 0.3 C 28 %
1777 26-03-2020 08:10:18 0.4 C 28 %
1778 26-03-2020 08:20:18 0.7 C 26 %
1779 26-03-2020 08:30:18 1.4 C 21 %
1780 26-03-2020 08:40:18 1.7 C 21 %
1781 26-03-2020 08:50:17 2.2 C 20 %
1782 26-03-2020 09:00:18 2.3 C 20 %
1783 26-03-2020 09:10:18 2.3 C 20 %
1784 26-03-2020 09:20:18 2.7 C 20 %
1785 26-03-2020 09:30:18 3.2 C 20 %
1786 26-03-2020 09:40:18 3.5 C 20 %
1787 26-03-2020 09:50:18 4.1 C 20 %
1788 26-03-2020 10:00:18 4.4 C 20 %
1789 26-03-2020 10:10:18 4.9 C 20 %
1790 26-03-2020 10:20:18 5 C 20 %
1791 26-03-2020 10:30:18 5.4 C 20 %
1792 26-03-2020 10:40:18 5.9 C 20 %
1793 26-03-2020 10:50:17 6 C 20 %
1794 26-03-2020 11:00:18 6.6 C 20 %
1795 26-03-2020 11:10:18 6.9 C 20 %
1796 26-03-2020 11:20:18 7.3 C 20 %
1797 26-03-2020 11:30:18 8.5 C 20 %
1798 26-03-2020 11:40:18 8.3 C 20 %
1799 26-03-2020 11:50:18 7.3 C 20 %
1800 26-03-2020 12:00:18 8 C 20 %
Sensor: Nr:Datum:Temp:Feuchte:
Aussen-T/F 1801 26-03-2020 12:10:18 9.1 C 20 %
1802 26-03-2020 12:20:17 9.6 C 20 %
1803 26-03-2020 12:30:17 9.6 C 20 %
1804 26-03-2020 12:40:17 9.6 C 20 %
1805 26-03-2020 12:50:17 9.7 C 20 %
1806 26-03-2020 13:00:17 10.4 C 20 %
1807 26-03-2020 13:10:17 10.8 C 20 %
1808 26-03-2020 13:20:18 11.5 C 20 %
1809 26-03-2020 13:30:18 11.5 C 20 %
1810 26-03-2020 13:40:18 12.1 C 20 %
1811 26-03-2020 13:50:18 13 C 20 %
1812 26-03-2020 14:00:18 12 C 20 %
1813 26-03-2020 14:10:18 12.2 C 20 %
1814 26-03-2020 14:20:18 11.9 C 20 %
1815 26-03-2020 14:30:18 14.3 C 20 %
1816 26-03-2020 14:40:18 14.2 C 20 %
1817 26-03-2020 14:50:17 14 C 20 %
1818 26-03-2020 15:00:17 15.3 C 20 %
1819 26-03-2020 15:10:18 14.2 C 20 %
1820 26-03-2020 15:20:18 14 C 20 %
1821 26-03-2020 15:30:18 15.6 C 20 %
1822 26-03-2020 15:40:18 15.6 C 20 %
1823 26-03-2020 15:50:18 16.5 C 20 %
1824 26-03-2020 16:00:18 15.6 C 20 %
1825 26-03-2020 16:10:18 15.3 C 20 %
Sensor: Nr:Datum:Temp:Feuchte:
Aussen-T/F 1826 26-03-2020 16:20:18 12.5 C 20 %
1827 26-03-2020 16:30:18 12.3 C 20 %
1828 26-03-2020 16:40:18 13.9 C 20 %
1829 26-03-2020 16:50:18 12.8 C 20 %
1830 26-03-2020 17:00:18 11.4 C 20 %
1831 26-03-2020 17:10:18 11 C 20 %
1832 26-03-2020 17:20:17 10.9 C 20 %
1833 26-03-2020 17:30:17 11 C 20 %
1834 26-03-2020 17:40:17 11.1 C 20 %
1835 26-03-2020 17:50:17 10.7 C 20 %
1836 26-03-2020 18:00:17 10.5 C 20 %
1837 26-03-2020 18:10:17 10.3 C 20 %
1838 26-03-2020 18:20:18 10.1 C 20 %
1839 26-03-2020 18:30:18 9.8 C 20 %
1840 26-03-2020 18:40:18 9.4 C 20 %
1841 26-03-2020 18:50:17 8.6 C 20 %
1842 26-03-2020 19:00:17 8 C 20 %
1843 26-03-2020 19:10:17 7.4 C 20 %
1844 26-03-2020 19:20:17 6.9 C 21 %
1845 26-03-2020 19:30:17 6.7 C 21 %
1846 26-03-2020 19:40:17 6.4 C 21 %
1847 26-03-2020 19:50:17 6.5 C 21 %
1848 26-03-2020 20:00:17 6.2 C 23 %
1849 26-03-2020 20:10:18 6 C 23 %
1850 26-03-2020 20:20:18 5.7 C 25 %
Sensor: Nr:Datum:Temp:Feuchte:
Aussen-T/F 1851 26-03-2020 20:30:17 5.4 C 26 %
1852 26-03-2020 20:40:17 4.9 C 28 %
1853 26-03-2020 20:50:17 4.9 C 28 %
1854 26-03-2020 21:00:17 4.7 C 29 %
1855 26-03-2020 21:10:17 4.5 C 29 %
1856 26-03-2020 21:20:17 4.5 C 30 %
1857 26-03-2020 21:30:18 4.1 C 30 %
1858 26-03-2020 21:40:18 4.6 C 30 %
1859 26-03-2020 21:50:18 4.6 C 30 %
1860 26-03-2020 22:00:18 4.6 C 30 %
1861 26-03-2020 22:10:18 4.6 C 30 %
1862 26-03-2020 22:20:17 4.5 C 30 %
1863 26-03-2020 22:30:17 4.5 C 30 %
1864 26-03-2020 22:40:17 4.5 C 30 %
1865 26-03-2020 22:50:17 4.4 C 30 %
1866 26-03-2020 23:00:18 4.5 C 30 %
1867 26-03-2020 23:10:18 4.2 C 30 %
1868 26-03-2020 23:20:17 4.2 C 30 %
1869 26-03-2020 23:30:18 3.9 C 31 %
1870 26-03-2020 23:40:18 4 C 30 %
1871 26-03-2020 23:50:18 3.9 C 31 %
1872 27-03-2020 00:00:18 4 C 30 %
1873 27-03-2020 00:10:18 3.9 C 31 %
1874 27-03-2020 00:20:17 4 C 30 %
1875 27-03-2020 00:30:17 4 C 30 %
Sensor: Nr:Datum:Temp:Feuchte:
Aussen-T/F 1876 27-03-2020 00:40:17 3.7 C 32 %
1877 27-03-2020 00:50:18 3.6 C 32 %
1878 27-03-2020 01:00:18 2.7 C 35 %
1879 27-03-2020 01:10:18 2.5 C 36 %
1880 27-03-2020 01:20:17 3 C 35 %
1881 27-03-2020 01:30:18 3.1 C 35 %
1882 27-03-2020 01:40:18 2.7 C 36 %
1883 27-03-2020 01:50:18 3 C 35 %
1884 27-03-2020 02:00:18 2.9 C 35 %
1885 27-03-2020 02:10:18 2.8 C 35 %
1886 27-03-2020 02:20:17 2.7 C 35 %
1887 27-03-2020 02:30:17 2.5 C 36 %
1888 27-03-2020 02:40:17 2.5 C 36 %
1889 27-03-2020 02:50:17 2.6 C 35 %
1890 27-03-2020 03:00:17 2.6 C 35 %
1891 27-03-2020 03:10:17 2.2 C 36 %
1892 27-03-2020 03:20:17 2.5 C 35 %
1893 27-03-2020 03:30:17 2.4 C 35 %
1894 27-03-2020 03:40:17 2.6 C 35 %
1895 27-03-2020 03:50:17 2.4 C 36 %
1896 27-03-2020 04:00:18 2.4 C 35 %
1897 27-03-2020 04:10:18 2.4 C 35 %
1898 27-03-2020 04:20:18 1.4 C 38 %
1899 27-03-2020 04:30:18 1.3 C 38 %
1900 27-03-2020 04:40:18 1.6 C 38 %
Sensor: Nr:Datum:Temp:Feuchte:
Aussen-T/F 1901 27-03-2020 04:50:17 1.8 C 37 %
1902 27-03-2020 05:00:18 1.5 C 38 %
1903 27-03-2020 05:10:18 0.7 C 40 %
1904 27-03-2020 05:20:18 0.4 C 40 %
1905 27-03-2020 05:30:18 0 C 41 %
1906 27-03-2020 05:40:18 0 C 42 %
1907 27-03-2020 05:50:18 -0.1 C 42 %
1908 27-03-2020 06:00:18 -0.5 C 42 %
1909 27-03-2020 06:10:18 -0.6 C 43 %
1910 27-03-2020 06:20:18 -0.4 C 43 %
1911 27-03-2020 06:30:18 -0.4 C 43 %
1912 27-03-2020 06:40:18 -0.3 C 43 %
1913 27-03-2020 06:50:17 -0.3 C 43 %
1914 27-03-2020 07:00:18 -0.2 C 43 %
1915 27-03-2020 07:10:18 -0.1 C 43 %
1916 27-03-2020 07:20:18 0.1 C 43 %
1917 27-03-2020 07:30:18 0.3 C 43 %
1918 27-03-2020 07:40:18 0.8 C 43 %
1919 27-03-2020 07:50:17 1.2 C 41 %
1920 27-03-2020 08:00:17 1.1 C 41 %
1921 27-03-2020 08:10:18 1.9 C 40 %
1922 27-03-2020 08:20:18 1.7 C 40 %
1923 27-03-2020 08:30:18 1.6 C 41 %
1924 27-03-2020 08:40:18 1.9 C 41 %
1925 27-03-2020 08:50:17 2.6 C 39 %
Sensor: Nr:Datum:Temp:Feuchte:
Aussen-T/F 1926 27-03-2020 09:00:18 3 C 38 %
1927 27-03-2020 09:10:18 3.3 C 37 %
1928 27-03-2020 09:20:17 3.6 C 37 %
1929 27-03-2020 09:30:18 4.1 C 36 %
1930 27-03-2020 09:40:18 4.5 C 35 %
1931 27-03-2020 09:50:18 5.3 C 35 %
1932 27-03-2020 10:00:18 5.8 C 34 %
1933 27-03-2020 10:10:18 6.5 C 32 %
1934 27-03-2020 10:20:17 7.6 C 30 %
1935 27-03-2020 10:30:17 8.1 C 28 %
1936 27-03-2020 10:40:17 9.1 C 25 %
1937 27-03-2020 10:50:17 9.3 C 25 %
1938 27-03-2020 11:00:17 10.2 C 20 %
1939 27-03-2020 11:10:17 11 C 20 %
1940 27-03-2020 11:20:17 12.4 C 20 %
1941 27-03-2020 11:30:17 14.5 C 20 %
1942 27-03-2020 11:40:17 14.2 C 20 %
1943 27-03-2020 11:50:17 12.5 C 20 %
1944 27-03-2020 12:00:17 13.4 C 20 %
1945 27-03-2020 12:10:17 13.7 C 20 %
1946 27-03-2020 12:20:17 14.4 C 20 %
1947 27-03-2020 12:30:17 14.1 C 20 %
1948 27-03-2020 12:40:18 14.2 C 20 %
1949 27-03-2020 12:50:18 14.6 C 20 %
1950 27-03-2020 13:00:18 16.6 C 20 %
Sensor: Nr:Datum:Temp:Feuchte:
Aussen-T/F 1951 27-03-2020 13:10:18 15.8 C 20 %
1952 27-03-2020 13:20:17 17.6 C 20 %
1953 27-03-2020 13:30:18 18.8 C 20 %
1954 27-03-2020 13:40:18 16.8 C 20 %
1955 27-03-2020 13:50:18 17.3 C 20 %
1956 27-03-2020 14:00:18 16.9 C 20 %
1957 27-03-2020 14:10:18 17.6 C 20 %
1958 27-03-2020 14:20:18 17.7 C 20 %
1959 27-03-2020 14:30:17 20.4 C 20 %
1960 27-03-2020 14:40:17 18.1 C 20 %
1961 27-03-2020 14:50:17 18.4 C 20 %
1962 27-03-2020 15:00:17 18.5 C 20 %
1963 27-03-2020 15:10:17 18.7 C 20 %
1964 27-03-2020 15:20:17 18.9 C 20 %
1965 27-03-2020 15:30:18 19.4 C 20 %
1966 27-03-2020 15:40:18 18.3 C 20 %
1967 27-03-2020 15:50:17 19.5 C 20 %
1968 27-03-2020 16:00:17 18.5 C 20 %
1969 27-03-2020 16:10:17 18.2 C 20 %
1970 27-03-2020 16:20:17 19.2 C 20 %
1971 27-03-2020 16:30:17 18.3 C 20 %
1972 27-03-2020 16:40:17 18 C 20 %
1973 27-03-2020 16:50:17 17 C 20 %
1974 27-03-2020 17:00:18 16.4 C 20 %
1975 27-03-2020 17:10:18 16.3 C 20 %
Sensor: Nr:Datum:Temp:Feuchte:
Aussen-T/F 1976 27-03-2020 17:20:18 16.1 C 20 %
1977 27-03-2020 17:30:18 16 C 20 %
1978 27-03-2020 17:40:18 15.8 C 20 %
1979 27-03-2020 17:50:18 15.7 C 20 %
1980 27-03-2020 18:00:17 15.4 C 20 %
1981 27-03-2020 18:10:17 15 C 20 %
1982 27-03-2020 18:20:17 14.1 C 20 %
1983 27-03-2020 18:30:18 13.5 C 20 %
1984 27-03-2020 18:40:18 12.9 C 20 %
1985 27-03-2020 18:50:18 12.3 C 20 %
1986 27-03-2020 19:00:18 11.8 C 20 %
1987 27-03-2020 19:10:18 11.5 C 20 %
1988 27-03-2020 19:20:17 11.4 C 20 %
1989 27-03-2020 19:30:17 10.7 C 20 %
1990 27-03-2020 19:40:17 10.7 C 21 %
1991 27-03-2020 19:50:17 10.4 C 23 %
1992 27-03-2020 20:00:18 10.4 C 22 %
1993 27-03-2020 20:10:18 9.2 C 26 %
1994 27-03-2020 20:20:17 8.9 C 28 %
1995 27-03-2020 20:30:17 8.4 C 30 %
1996 27-03-2020 20:40:17 8.1 C 30 %
1997 27-03-2020 20:50:18 7.8 C 31 %
1998 27-03-2020 21:00:17 7.4 C 31 %
1999 27-03-2020 21:10:17 7.3 C 32 %
2000 27-03-2020 21:20:17 7.1 C 32 %
Sensor: Nr:Datum:Temp:Feuchte:
Aussen-T/F 2001 27-03-2020 21:30:17 7 C 32 %
2002 27-03-2020 21:40:17 6.6 C 33 %
2003 27-03-2020 21:50:17 6.6 C 34 %
2004 27-03-2020 22:00:17 6.4 C 34 %
2005 27-03-2020 22:10:17 6.3 C 34 %
2006 27-03-2020 22:20:17 6 C 35 %
2007 27-03-2020 22:30:18 5.8 C 35 %
2008 27-03-2020 22:40:18 5.6 C 35 %
2009 27-03-2020 22:50:18 5.5 C 36 %
2010 27-03-2020 23:00:18 5.6 C 36 %
2011 27-03-2020 23:10:18 5.6 C 36 %
2012 27-03-2020 23:20:17 5.3 C 36 %
2013 27-03-2020 23:30:17 5.2 C 36 %
2014 27-03-2020 23:40:17 5.1 C 36 %
2015 27-03-2020 23:50:17 4.8 C 37 %
2016 28-03-2020 00:00:17 4.8 C 38 %
2017 28-03-2020 00:10:17 4.8 C 39 %
2018 28-03-2020 00:20:17 5 C 37 %
2019 28-03-2020 00:30:18 4.9 C 38 %
2020 28-03-2020 00:40:18 4.7 C 38 %
2021 28-03-2020 00:50:17 4.7 C 38 %
2022 28-03-2020 01:00:17 4.6 C 38 %
2023 28-03-2020 01:10:17 4.4 C 39 %
2024 28-03-2020 01:20:17 4.3 C 39 %
2025 28-03-2020 01:30:17 4.1 C 39 %
Sensor: Nr:Datum:Temp:Feuchte:
Aussen-T/F 2026 28-03-2020 01:40:18 3.9 C 40 %
2027 28-03-2020 01:50:17 3.7 C 41 %
2028 28-03-2020 02:00:18 3.6 C 41 %
2029 28-03-2020 02:10:18 3.3 C 41 %
2030 28-03-2020 02:20:18 3.1 C 41 %
2031 28-03-2020 02:30:17 3.7 C 42 %
2032 28-03-2020 02:40:17 3.7 C 41 %
2033 28-03-2020 02:50:18 3.4 C 41 %
2034 28-03-2020 03:00:18 3.1 C 41 %
2035 28-03-2020 03:10:18 2.9 C 42 %
2036 28-03-2020 03:20:17 2.8 C 43 %
2037 28-03-2020 03:30:18 2.6 C 43 %
2038 28-03-2020 03:40:18 2.1 C 43 %
2039 28-03-2020 03:50:17 2.1 C 44 %
2040 28-03-2020 04:00:18 2.2 C 44 %
2041 28-03-2020 04:10:18 2.1 C 44 %
2042 28-03-2020 04:20:18 1.9 C 45 %
2043 28-03-2020 04:30:18 1.7 C 45 %
2044 28-03-2020 04:40:18 1.8 C 46 %
2045 28-03-2020 04:50:17 1.8 C 46 %
2046 28-03-2020 05:00:18 1.7 C 45 %
2047 28-03-2020 05:10:18 1.6 C 45 %
2048 28-03-2020 05:20:17 1.5 C 45 %
2049 28-03-2020 05:30:18 1.3 C 46 %
2050 28-03-2020 05:40:18 1.2 C 46 %
Sensor: Nr:Datum:Temp:Feuchte:
Aussen-T/F 2051 28-03-2020 05:50:18 1.2 C 46 %
2052 28-03-2020 06:00:18 1.2 C 46 %
2053 28-03-2020 06:10:18 1.3 C 46 %
2054 28-03-2020 06:20:17 1.1 C 46 %
2055 28-03-2020 06:30:17 1.1 C 46 %
2056 28-03-2020 06:40:17 1 C 46 %
2057 28-03-2020 06:50:17 1.2 C 47 %
2058 28-03-2020 07:00:17 1.5 C 47 %
2059 28-03-2020 07:10:17 1.7 C 47 %
2060 28-03-2020 07:20:17 1.9 C 47 %
2061 28-03-2020 07:30:18 1.9 C 46 %
2062 28-03-2020 07:40:18 1.9 C 46 %
2063 28-03-2020 07:50:17 2 C 45 %
2064 28-03-2020 08:00:17 2.2 C 45 %
2065 28-03-2020 08:10:18 2.5 C 45 %
2066 28-03-2020 08:20:18 2.8 C 46 %
2067 28-03-2020 08:30:17 3.2 C 45 %
2068 28-03-2020 08:40:17 3.7 C 44 %
2069 28-03-2020 08:50:18 4 C 43 %
2070 28-03-2020 09:00:18 4.6 C 43 %
2071 28-03-2020 09:10:18 5.1 C 41 %
2072 28-03-2020 09:20:17 5.7 C 41 %
2073 28-03-2020 09:30:18 6.3 C 40 %
2074 28-03-2020 09:40:18 6.9 C 40 %
2075 28-03-2020 09:50:18 7.8 C 38 %
Sensor: Nr:Datum:Temp:Feuchte:
Aussen-T/F 2076 28-03-2020 10:00:18 8.4 C 37 %
2077 28-03-2020 10:10:18 9.5 C 35 %
2078 28-03-2020 10:20:17 10.2 C 32 %
2079 28-03-2020 10:30:17 10.9 C 31 %
2080 28-03-2020 10:40:17 11.6 C 30 %
2081 28-03-2020 10:50:18 12.2 C 29 %
2082 28-03-2020 11:00:18 13.4 C 26 %
2083 28-03-2020 11:10:18 13.6 C 25 %
2084 28-03-2020 11:20:17 15.8 C 20 %
2085 28-03-2020 11:30:17 16.7 C 20 %
2086 28-03-2020 11:40:17 16.4 C 20 %
2087 28-03-2020 11:50:18 15.9 C 20 %
2088 28-03-2020 12:00:17 16.6 C 20 %
2089 28-03-2020 12:10:17 17 C 20 %
2090 28-03-2020 12:20:17 17.7 C 20 %
2091 28-03-2020 12:30:17 17.8 C 20 %
2092 28-03-2020 12:40:17 18.1 C 20 %
2093 28-03-2020 12:50:18 18 C 20 %
2094 28-03-2020 13:00:18 18.6 C 20 %
2095 28-03-2020 13:10:18 19.6 C 20 %
2096 28-03-2020 13:20:18 21.7 C 20 %
2097 28-03-2020 13:30:17 21.1 C 20 %
2098 28-03-2020 13:40:17 20.7 C 20 %
2099 28-03-2020 13:50:18 20.6 C 20 %
2100 28-03-2020 14:00:17 21.1 C 20 %
Sensor: Nr:Datum:Temp:Feuchte:
Aussen-T/F 2101 28-03-2020 14:10:17 21.3 C 20 %
2102 28-03-2020 14:20:17 21.9 C 20 %
2103 28-03-2020 14:30:17 23.7 C 20 %
2104 28-03-2020 14:40:17 24.3 C 20 %
2105 28-03-2020 14:50:17 23.2 C 20 %
2106 28-03-2020 15:00:18 22.4 C 20 %
2107 28-03-2020 15:10:18 19.9 C 20 %
2108 28-03-2020 15:20:18 18.6 C 20 %
2109 28-03-2020 15:30:18 19.6 C 20 %
2110 28-03-2020 15:40:18 22.1 C 20 %
2111 28-03-2020 15:50:18 20.5 C 20 %
2112 28-03-2020 16:00:18 21.1 C 20 %
2113 28-03-2020 16:10:18 21.1 C 20 %
2114 28-03-2020 16:20:18 19.9 C 20 %
2115 28-03-2020 16:30:18 19.6 C 20 %
2116 28-03-2020 16:40:18 19.6 C 20 %
2117 28-03-2020 16:50:18 18.5 C 20 %
2118 28-03-2020 17:00:18 17.9 C 20 %
2119 28-03-2020 17:10:18 17 C 20 %
2120 28-03-2020 17:20:18 16.6 C 20 %
2121 28-03-2020 17:30:18 16.2 C 20 %
2122 28-03-2020 17:40:18 16.2 C 20 %
2123 28-03-2020 17:50:17 15.4 C 20 %
2124 28-03-2020 18:00:18 14.9 C 20 %
2125 28-03-2020 18:10:18 14.6 C 20 %
Sensor: Nr:Datum:Temp:Feuchte:
Aussen-T/F 2126 28-03-2020 18:20:17 14 C 20 %
2127 28-03-2020 18:30:17 13.5 C 20 %
2128 28-03-2020 18:40:17 13.1 C 20 %
2129 28-03-2020 18:50:18 12.6 C 20 %
2130 28-03-2020 19:00:18 12.3 C 20 %
2131 28-03-2020 19:10:18 11.7 C 20 %
2132 28-03-2020 19:20:18 11.7 C 20 %
2133 28-03-2020 19:30:18 11.4 C 20 %
2134 28-03-2020 19:40:18 11.2 C 20 %
2135 28-03-2020 19:50:17 10.8 C 20 %
2136 28-03-2020 20:00:18 10.3 C 20 %
2137 28-03-2020 20:10:18 10.7 C 20 %
2138 28-03-2020 20:20:17 10.5 C 20 %
2139 28-03-2020 20:30:18 10 C 20 %
2140 28-03-2020 20:40:18 9.2 C 20 %
2141 28-03-2020 20:50:17 8.7 C 20 %
2142 28-03-2020 21:00:17 8.8 C 20 %
2143 28-03-2020 21:10:17 9.2 C 20 %
2144 28-03-2020 21:20:17 8.7 C 23 %
2145 28-03-2020 21:30:17 8.1 C 25 %
2146 28-03-2020 21:40:17 8.4 C 23 %
2147 28-03-2020 21:50:17 7.6 C 25 %
2148 28-03-2020 22:00:17 8.3 C 25 %
2149 28-03-2020 22:10:17 8.5 C 21 %
2150 28-03-2020 22:20:17 8.4 C 25 %
Sensor: Nr:Datum:Temp:Feuchte:
Aussen-T/F 2151 28-03-2020 22:30:17 8.3 C 26 %
2152 28-03-2020 22:40:17 7.9 C 26 %
2153 28-03-2020 22:50:17 7.4 C 28 %
2154 28-03-2020 23:00:17 7.3 C 30 %
2155 28-03-2020 23:10:17 7.2 C 30 %
2156 28-03-2020 23:20:18 7.1 C 30 %
2157 28-03-2020 23:30:18 7.1 C 31 %
2158 28-03-2020 23:40:18 6.8 C 32 %
2159 28-03-2020 23:50:17 6.7 C 33 %
2160 29-03-2020 00:00:18 6.5 C 33 %
2161 29-03-2020 00:10:18 6.4 C 33 %
2162 29-03-2020 00:20:17 6.2 C 33 %
2163 29-03-2020 00:30:17 6.5 C 33 %
2164 29-03-2020 00:40:17 6.6 C 33 %
2165 29-03-2020 00:50:18 6.5 C 32 %
2166 29-03-2020 01:00:18 6.3 C 32 %
2167 29-03-2020 01:10:18 6.3 C 32 %
2168 29-03-2020 01:20:17 6.2 C 32 %
2169 29-03-2020 01:30:17 6.1 C 32 %
2170 29-03-2020 01:40:17 6 C 31 %
2171 29-03-2020 01:50:17 6 C 31 %
2172 29-03-2020 02:00:17 5.8 C 31 %
2173 29-03-2020 02:10:17 5.7 C 31 %
2174 29-03-2020 02:20:18 5.4 C 31 %
2175 29-03-2020 02:30:18 5 C 31 %
Sensor: Nr:Datum:Temp:Feuchte:
Aussen-T/F 2176 29-03-2020 02:40:18 4.7 C 32 %
2177 29-03-2020 02:50:18 4.7 C 32 %
2178 29-03-2020 04:00:18 4.6 C 31 %
2179 29-03-2020 04:10:18 4.2 C 32 %
2180 29-03-2020 04:20:17 4.1 C 31 %
2181 29-03-2020 04:30:17 4.3 C 31 %
2182 29-03-2020 04:40:17 4.4 C 31 %
2183 29-03-2020 04:50:18 4.3 C 31 %
2184 29-03-2020 05:00:17 4.4 C 32 %
2185 29-03-2020 05:10:17 4.3 C 32 %
2186 29-03-2020 05:20:17 4.2 C 31 %
2187 29-03-2020 05:30:17 4 C 31 %
2188 29-03-2020 05:40:17 3.8 C 32 %
2189 29-03-2020 05:50:18 3.5 C 32 %
2190 29-03-2020 06:00:18 3.1 C 32 %
2191 29-03-2020 06:10:18 2.8 C 33 %
2192 29-03-2020 06:20:17 2.5 C 33 %
2193 29-03-2020 06:30:18 2.9 C 33 %
2194 29-03-2020 06:40:18 3.2 C 32 %
2195 29-03-2020 06:50:17 3.3 C 33 %
2196 29-03-2020 07:00:18 3.4 C 33 %
2197 29-03-2020 07:10:18 3.5 C 34 %
2198 29-03-2020 07:20:17 3.5 C 35 %
2199 29-03-2020 07:30:17 3.6 C 35 %
2200 29-03-2020 07:40:17 3.7 C 35 %
Sensor: Nr:Datum:Temp:Feuchte:
Aussen-T/F 2201 29-03-2020 07:50:17 3.7 C 35 %
2202 29-03-2020 08:00:18 3.8 C 35 %
2203 29-03-2020 08:10:18 3.8 C 35 %
2204 29-03-2020 08:20:17 4.1 C 33 %
2205 29-03-2020 08:30:17 4.1 C 33 %
2206 29-03-2020 08:40:17 4.3 C 33 %
2207 29-03-2020 08:50:17 4 C 33 %
2208 29-03-2020 09:00:17 4.3 C 33 %
2209 29-03-2020 09:10:17 4.2 C 32 %
2210 29-03-2020 09:20:17 4.1 C 33 %
2211 29-03-2020 09:30:17 4.2 C 33 %
2212 29-03-2020 09:40:17 4.5 C 32 %
2213 29-03-2020 09:50:17 4.8 C 32 %
2214 29-03-2020 10:00:17 5 C 31 %
2215 29-03-2020 10:10:17 5.3 C 31 %
2216 29-03-2020 10:20:17 5.8 C 30 %
2217 29-03-2020 10:30:18 5.6 C 30 %
2218 29-03-2020 10:40:18 6.2 C 30 %
2219 29-03-2020 10:50:17 6.2 C 28 %
2220 29-03-2020 11:00:18 6.5 C 25 %
2221 29-03-2020 11:10:18 6.5 C 25 %
2222 29-03-2020 11:20:18 6 C 25 %
2223 29-03-2020 11:30:18 6.1 C 25 %
2224 29-03-2020 11:40:18 6.2 C 25 %
2225 29-03-2020 11:50:17 6.3 C 25 %
Sensor: Nr:Datum:Temp:Feuchte:
Aussen-T/F 2226 29-03-2020 12:00:17 6.2 C 25 %
2227 29-03-2020 12:10:17 5.6 C 27 %
2228 29-03-2020 12:20:17 5.5 C 27 %
2229 29-03-2020 12:30:17 5.7 C 27 %
2230 29-03-2020 12:40:17 5.8 C 26 %
2231 29-03-2020 12:50:18 6.4 C 26 %
2232 29-03-2020 13:00:18 6.3 C 25 %
2233 29-03-2020 13:10:18 6.1 C 25 %
2234 29-03-2020 13:20:17 6.6 C 23 %
2235 29-03-2020 13:30:17 6.8 C 20 %
2236 29-03-2020 13:40:18 8.1 C 20 %
2237 29-03-2020 13:50:17 8.4 C 20 %
2238 29-03-2020 14:00:18 7.6 C 20 %
2239 29-03-2020 14:10:18 7.5 C 20 %
2240 29-03-2020 14:20:17 7 C 20 %
2241 29-03-2020 14:30:17 6.7 C 20 %
2242 29-03-2020 14:40:17 6.5 C 20 %
2243 29-03-2020 14:50:17 6.7 C 20 %
2244 29-03-2020 15:00:17 7.2 C 20 %
2245 29-03-2020 15:10:17 7.4 C 20 %
2246 29-03-2020 15:20:17 7.4 C 20 %
2247 29-03-2020 15:30:18 7.6 C 20 %
2248 29-03-2020 15:40:18 7.6 C 20 %
2249 29-03-2020 15:50:17 8 C 20 %
2250 29-03-2020 16:00:18 7.4 C 20 %
Sensor: Nr:Datum:Temp:Feuchte:
Aussen-T/F 2251 29-03-2020 16:10:18 7 C 20 %
2252 29-03-2020 16:20:17 6.7 C 20 %
2253 29-03-2020 16:30:18 6.5 C 20 %
2254 29-03-2020 16:40:18 6.6 C 20 %
2255 29-03-2020 16:50:18 6.8 C 20 %
2256 29-03-2020 17:00:18 7 C 20 %
2257 29-03-2020 17:10:18 6.8 C 20 %
2258 29-03-2020 17:20:17 7.4 C 20 %
2259 29-03-2020 17:30:17 7 C 20 %
2260 29-03-2020 17:40:17 7 C 20 %
2261 29-03-2020 17:50:18 6.8 C 25 %
2262 29-03-2020 18:00:18 7.1 C 23 %
2263 29-03-2020 18:10:18 6.5 C 25 %
2264 29-03-2020 18:20:18 6.2 C 25 %
2265 29-03-2020 18:30:18 5.3 C 29 %
2266 29-03-2020 18:40:18 4.4 C 35 %
2267 29-03-2020 18:50:18 4.1 C 36 %
2268 29-03-2020 19:00:18 4 C 36 %
2269 29-03-2020 19:10:18 3.6 C 39 %
2270 29-03-2020 19:20:17 3.6 C 40 %
2271 29-03-2020 19:30:17 3.4 C 40 %
2272 29-03-2020 19:40:17 3.2 C 41 %
2273 29-03-2020 19:50:17 3.1 C 41 %
2274 29-03-2020 20:00:17 3 C 41 %
2275 29-03-2020 20:10:17 3 C 41 %
Sensor: Nr:Datum:Temp:Feuchte:
Aussen-T/F 2276 29-03-2020 20:20:18 2.9 C 42 %
2277 29-03-2020 20:30:18 3 C 41 %
2278 29-03-2020 20:40:18 3.3 C 40 %
2279 29-03-2020 20:50:18 3.5 C 40 %
2280 29-03-2020 21:00:18 3.6 C 39 %
2281 29-03-2020 21:10:18 3.7 C 39 %
2282 29-03-2020 21:20:18 3.7 C 38 %
2283 29-03-2020 21:30:17 3.7 C 37 %
2284 29-03-2020 21:40:17 3.8 C 37 %
2285 29-03-2020 21:50:17 3.8 C 37 %
2286 29-03-2020 22:00:17 3.7 C 37 %
2287 29-03-2020 22:10:17 3.7 C 36 %
2288 29-03-2020 22:20:18 3.7 C 36 %
2289 29-03-2020 22:30:18 3.6 C 36 %
2290 29-03-2020 22:40:18 3.6 C 36 %
2291 29-03-2020 22:50:18 3.6 C 35 %
2292 29-03-2020 23:00:18 3.6 C 35 %
2293 29-03-2020 23:10:18 3.5 C 35 %
2294 29-03-2020 23:20:17 3.4 C 34 %
2295 29-03-2020 23:30:17 3.3 C 33 %
2296 29-03-2020 23:40:17 3.1 C 33 %
2297 29-03-2020 23:50:17 2.9 C 33 %
2298 30-03-2020 00:00:18 2.5 C 34 %
2299 30-03-2020 00:10:18 2.4 C 33 %
2300 30-03-2020 00:20:17 2.4 C 33 %
Sensor: Nr:Datum:Temp:Feuchte:
Aussen-T/F 2301 30-03-2020 00:30:17 1.7 C 35 %
2302 30-03-2020 00:40:17 1 C 36 %
2303 30-03-2020 00:50:17 0.3 C 38 %
2304 30-03-2020 01:00:18 0.2 C 38 %
2305 30-03-2020 01:10:18 0.3 C 38 %
2306 30-03-2020 01:20:17 0.3 C 37 %
2307 30-03-2020 01:30:18 0.5 C 36 %
2308 30-03-2020 01:40:18 -0.1 C 37 %
2309 30-03-2020 01:50:17 -0.3 C 37 %
2310 30-03-2020 02:00:17 -0.8 C 38 %
2311 30-03-2020 02:10:17 -0.9 C 38 %
2312 30-03-2020 02:20:17 -1.5 C 39 %
2313 30-03-2020 02:30:18 -1.7 C 39 %
2314 30-03-2020 02:40:18 -1.6 C 40 %
2315 30-03-2020 02:50:17 -1.6 C 39 %
2316 30-03-2020 03:00:18 -1.7 C 39 %
2317 30-03-2020 03:10:18 -1.3 C 38 %
2318 30-03-2020 03:20:18 -1.7 C 39 %
2319 30-03-2020 03:30:18 -2.2 C 40 %
2320 30-03-2020 03:40:18 -2.1 C 40 %
2321 30-03-2020 03:50:17 -2.1 C 40 %
2322 30-03-2020 04:00:18 -1.9 C 39 %
2323 30-03-2020 04:10:18 -2.2 C 39 %
2324 30-03-2020 04:20:17 -2 C 39 %
2325 30-03-2020 04:30:17 -2.4 C 39 %
Sensor: Nr:Datum:Temp:Feuchte:
Aussen-T/F 2326 30-03-2020 04:40:17 -2.6 C 39 %
2327 30-03-2020 04:50:17 -2.4 C 39 %
2328 30-03-2020 05:00:17 -2.4 C 38 %
2329 30-03-2020 05:10:17 -2.5 C 38 %
2330 30-03-2020 05:20:17 -2.7 C 38 %
2331 30-03-2020 05:30:18 -3 C 39 %
2332 30-03-2020 05:40:18 -3 C 38 %
2333 30-03-2020 05:50:17 -3 C 38 %
2334 30-03-2020 06:00:18 -3 C 38 %
2335 30-03-2020 06:10:18 -3.4 C 38 %
2336 30-03-2020 06:20:17 -3.7 C 39 %
2337 30-03-2020 06:30:17 -3.9 C 40 %
2338 30-03-2020 06:40:17 -4.1 C 40 %
2339 30-03-2020 06:50:17 -3.3 C 39 %
2340 30-03-2020 07:00:17 -3.7 C 40 %
2341 30-03-2020 07:10:17 -3.2 C 39 %
2342 30-03-2020 07:20:17 -3.8 C 39 %
2343 30-03-2020 07:30:18 -4.3 C 40 %
2344 30-03-2020 07:40:18 -4.5 C 40 %
2345 30-03-2020 07:50:17 -4.5 C 40 %
2346 30-03-2020 08:00:18 -3.8 C 40 %
2347 30-03-2020 08:10:18 -3.9 C 40 %
2348 30-03-2020 08:20:18 -4.1 C 40 %
2349 30-03-2020 08:30:18 -3.7 C 39 %
2350 30-03-2020 08:40:18 -3.3 C 39 %
Sensor: Nr:Datum:Temp:Feuchte:
Aussen-T/F 2351 30-03-2020 08:50:17 -3.2 C 38 %
2352 30-03-2020 09:00:18 -3.1 C 38 %
2353 30-03-2020 09:10:18 -2.7 C 37 %
2354 30-03-2020 09:20:18 -2.6 C 37 %
2355 30-03-2020 09:30:18 -2.5 C 37 %
2356 30-03-2020 09:40:18 -2.1 C 37 %
2357 30-03-2020 09:50:18 -2.1 C 37 %
2358 30-03-2020 10:00:18 -1.6 C 36 %
2359 30-03-2020 10:10:18 -1.7 C 37 %
2360 30-03-2020 10:20:17 -1.5 C 37 %
2361 30-03-2020 10:30:17 -1.3 C 36 %
2362 30-03-2020 10:40:17 0.1 C 31 %
2363 30-03-2020 10:50:17 1 C 21 %
2364 30-03-2020 11:00:17 1.1 C 23 %
2365 30-03-2020 11:10:18 2 C 20 %
2366 30-03-2020 11:20:18 2.4 C 20 %
2367 30-03-2020 11:30:18 2.8 C 20 %
2368 30-03-2020 11:40:18 2.9 C 20 %
2369 30-03-2020 11:50:18 3.2 C 20 %
2370 30-03-2020 12:00:18 3.7 C 20 %
2371 30-03-2020 12:10:18 4 C 20 %
2372 30-03-2020 12:20:18 6.4 C 20 %
2373 30-03-2020 12:30:18 7.6 C 20 %
2374 30-03-2020 12:40:18 6.3 C 20 %
2375 30-03-2020 12:50:18 5.1 C 20 %
Sensor: Nr:Datum:Temp:Feuchte:
Aussen-T/F 2376 30-03-2020 13:00:18 6.6 C 20 %
2377 30-03-2020 13:10:18 6.5 C 20 %
2378 30-03-2020 13:20:18 5.6 C 20 %
2379 30-03-2020 13:30:17 5.9 C 20 %
2380 30-03-2020 13:40:17 7 C 20 %
2381 30-03-2020 13:50:17 6.4 C 20 %
2382 30-03-2020 14:00:17 7.1 C 20 %
2383 30-03-2020 14:10:17 8.4 C 20 %
2384 30-03-2020 14:20:18 8.9 C 20 %
2385 30-03-2020 14:30:18 9.5 C 20 %
2386 30-03-2020 14:40:18 9.7 C 20 %
2387 30-03-2020 14:50:18 10.8 C 20 %
2388 30-03-2020 15:00:18 11.3 C 20 %
2389 30-03-2020 15:10:18 11.7 C 20 %
2390 30-03-2020 15:20:17 11.6 C 20 %
2391 30-03-2020 15:30:18 13.5 C 20 %
2392 30-03-2020 15:40:18 13.6 C 20 %
2393 30-03-2020 15:50:18 11.9 C 20 %
2394 30-03-2020 16:00:18 12.9 C 20 %
2395 30-03-2020 16:10:18 13.6 C 20 %
2396 30-03-2020 16:20:17 15.2 C 20 %
2397 30-03-2020 16:30:18 9.9 C 20 %
2398 30-03-2020 16:40:18 13.9 C 20 %
2399 30-03-2020 16:50:18 13.6 C 20 %
2400 30-03-2020 17:00:17 10.1 C 20 %
Sensor: Nr:Datum:Temp:Feuchte:
Aussen-T/F 2401 30-03-2020 17:10:17 13.4 C 20 %
2402 30-03-2020 17:20:18 12.5 C 20 %
2403 30-03-2020 17:30:18 12.6 C 20 %
2404 30-03-2020 17:40:18 11.6 C 20 %
2405 30-03-2020 17:50:18 10.2 C 20 %
2406 30-03-2020 18:00:18 8.7 C 20 %
2407 30-03-2020 18:10:18 7.6 C 20 %
2408 30-03-2020 18:20:18 7.9 C 20 %
2409 30-03-2020 18:30:18 8.2 C 20 %
2410 30-03-2020 18:40:18 7.7 C 20 %
2411 30-03-2020 18:50:18 7.8 C 20 %
2412 30-03-2020 19:00:18 7.3 C 20 %
2413 30-03-2020 19:10:18 7.1 C 20 %
2414 30-03-2020 19:20:17 6.5 C 20 %
2415 30-03-2020 19:30:18 6.3 C 20 %
2416 30-03-2020 19:40:18 5.8 C 20 %
2417 30-03-2020 19:50:17 5 C 20 %
2418 30-03-2020 20:00:18 3.8 C 27 %
2419 30-03-2020 20:10:18 3 C 30 %
2420 30-03-2020 20:20:17 2.8 C 30 %
2421 30-03-2020 20:30:18 3.3 C 31 %
2422 30-03-2020 20:40:18 3.2 C 30 %
2423 30-03-2020 20:50:18 3.3 C 31 %
2424 30-03-2020 21:00:18 4 C 29 %
2425 30-03-2020 21:10:18 4.1 C 29 %
Sensor: Nr:Datum:Temp:Feuchte:
Aussen-T/F 2426 30-03-2020 21:20:18 4.2 C 30 %
2427 30-03-2020 21:30:18 4.3 C 30 %
2428 30-03-2020 21:40:18 4.2 C 30 %
2429 30-03-2020 21:50:18 4.1 C 30 %
2430 30-03-2020 22:00:18 3.7 C 32 %
2431 30-03-2020 22:10:18 3.7 C 33 %
2432 30-03-2020 22:20:17 3.9 C 32 %
2433 30-03-2020 22:30:18 4 C 31 %
2434 30-03-2020 22:40:18 4.1 C 31 %
2435 30-03-2020 22:50:18 4.2 C 31 %
2436 30-03-2020 23:00:18 4.1 C 31 %
2437 30-03-2020 23:10:18 4.2 C 30 %
2438 30-03-2020 23:20:18 4.2 C 31 %
2439 30-03-2020 23:30:18 4.1 C 31 %
2440 30-03-2020 23:40:18 4.2 C 31 %
2441 30-03-2020 23:50:17 4.2 C 31 %
2442 31-03-2020 00:00:18 4.3 C 30 %
2443 31-03-2020 00:10:18 4.3 C 30 %
2444 31-03-2020 00:20:18 4.2 C 31 %
2445 31-03-2020 00:30:18 4.2 C 31 %
2446 31-03-2020 00:40:18 4.2 C 31 %
2447 31-03-2020 00:50:18 4.3 C 31 %
2448 31-03-2020 01:00:18 4.4 C 32 %
2449 31-03-2020 01:10:18 4 C 34 %
2450 31-03-2020 01:20:18 3.8 C 36 %
Sensor: Nr:Datum:Temp:Feuchte:
Aussen-T/F 2451 31-03-2020 01:30:18 3.8 C 36 %
2452 31-03-2020 01:40:18 3.7 C 37 %
2453 31-03-2020 01:50:18 4 C 37 %
2454 31-03-2020 02:00:18 3.9 C 38 %
2455 31-03-2020 02:10:18 3.4 C 39 %
2456 31-03-2020 02:20:17 3.5 C 39 %
2457 31-03-2020 02:30:18 3.7 C 39 %
2458 31-03-2020 02:40:18 3.3 C 40 %
2459 31-03-2020 02:50:18 2.8 C 41 %
2460 31-03-2020 03:00:18 2.5 C 41 %
2461 31-03-2020 03:10:18 2.2 C 42 %
2462 31-03-2020 03:20:17 2.4 C 42 %
2463 31-03-2020 03:30:18 2.3 C 42 %
2464 31-03-2020 03:40:18 2.3 C 43 %
2465 31-03-2020 03:50:18 2.7 C 43 %
2466 31-03-2020 04:00:18 2.9 C 42 %
2467 31-03-2020 04:10:18 3 C 42 %
2468 31-03-2020 04:20:18 3.1 C 42 %
2469 31-03-2020 04:30:17 3.2 C 42 %
2470 31-03-2020 04:40:18 3.2 C 41 %
2471 31-03-2020 04:50:17 3.5 C 41 %
2472 31-03-2020 05:00:18 3.4 C 41 %
2473 31-03-2020 05:10:18 3 C 41 %
2474 31-03-2020 05:20:17 2.8 C 43 %
2475 31-03-2020 05:30:18 2.5 C 43 %
Sensor: Nr:Datum:Temp:Feuchte:
Aussen-T/F 2476 31-03-2020 05:40:18 2.3 C 43 %
2477 31-03-2020 05:50:18 1.9 C 44 %
2478 31-03-2020 06:00:18 1.7 C 44 %
2479 31-03-2020 06:10:18 1.6 C 45 %
2480 31-03-2020 06:20:18 1.5 C 45 %
2481 31-03-2020 06:30:18 1.7 C 45 %
2482 31-03-2020 06:40:18 2 C 45 %
2483 31-03-2020 06:50:18 2.1 C 45 %
2484 31-03-2020 07:00:18 2.2 C 45 %
2485 31-03-2020 07:10:18 2.3 C 45 %
2486 31-03-2020 07:20:18 2.2 C 44 %
2487 31-03-2020 07:30:18 2.1 C 44 %
2488 31-03-2020 07:40:18 1.7 C 45 %
2489 31-03-2020 07:50:17 2 C 45 %
2490 31-03-2020 08:00:18 2.5 C 45 %
2491 31-03-2020 08:10:18 3.1 C 43 %
2492 31-03-2020 08:20:18 3.3 C 42 %
2493 31-03-2020 08:30:18 3.5 C 41 %
2494 31-03-2020 08:40:18 3.7 C 40 %
2495 31-03-2020 08:50:17 4 C 38 %
2496 31-03-2020 09:00:18 3.9 C 38 %
2497 31-03-2020 09:10:18 3.9 C 37 %
2498 31-03-2020 09:20:18 4 C 36 %
2499 31-03-2020 09:30:17 4 C 36 %
2500 31-03-2020 09:40:17 4.1 C 35 %
Sensor: Nr:Datum:Temp:Feuchte:
Aussen-T/F 2501 31-03-2020 09:50:18 4.3 C 35 %
2502 31-03-2020 10:00:18 4.8 C 34 %
2503 31-03-2020 10:10:18 4.7 C 34 %
2504 31-03-2020 10:20:18 4.5 C 34 %
2505 31-03-2020 10:30:18 4.4 C 34 %
2506 31-03-2020 10:40:18 4.3 C 34 %
2507 31-03-2020 10:50:17 4.3 C 33 %
2508 31-03-2020 11:00:17 4.3 C 33 %
2509 31-03-2020 11:10:17 4.4 C 32 %
2510 31-03-2020 11:20:18 4.7 C 31 %
2511 31-03-2020 11:30:18 5.4 C 30 %
2512 31-03-2020 11:40:18 5.3 C 30 %
2513 31-03-2020 11:50:17 5.3 C 29 %
2514 31-03-2020 12:00:18 5.6 C 27 %
2515 31-03-2020 12:10:18 6.3 C 25 %
2516 31-03-2020 12:20:17 6.4 C 20 %
2517 31-03-2020 12:30:18 9.2 C 20 %
2518 31-03-2020 12:40:18 8.4 C 20 %
2519 31-03-2020 12:50:18 7 C 20 %
2520 31-03-2020 13:00:17 7.5 C 20 %
2521 31-03-2020 13:10:17 7.1 C 20 %
2522 31-03-2020 13:20:17 7.3 C 20 %
2523 31-03-2020 13:30:17 7 C 20 %
2524 31-03-2020 13:40:17 8.1 C 20 %
2525 31-03-2020 13:51:17 8.4 C 20 %
Sensor: Nr:Datum:Temp:Feuchte:
Aussen-T/F 2526 31-03-2020 14:00:17 8.5 C 20 %
2527 31-03-2020 14:10:17 9.7 C 20 %
2528 31-03-2020 14:20:17 11.2 C 20 %
2529 31-03-2020 14:30:17 12.6 C 20 %
2530 31-03-2020 14:40:17 11.7 C 20 %
2531 31-03-2020 14:51:17 12 C 20 %
2532 31-03-2020 15:00:17 12 C 20 %
2533 31-03-2020 15:10:18 13.1 C 20 %
2534 31-03-2020 15:20:17 13.2 C 20 %
2535 31-03-2020 15:30:17 13.5 C 20 %
2536 31-03-2020 15:40:17 14.6 C 20 %
2537 31-03-2020 15:50:18 13.9 C 20 %
2538 31-03-2020 16:00:17 16.8 C 20 %
2539 31-03-2020 16:10:17 14.8 C 20 %
2540 31-03-2020 16:20:17 15.8 C 20 %
2541 31-03-2020 16:31:17 15.1 C 20 %
2542 31-03-2020 16:40:17 14 C 20 %
2543 31-03-2020 16:50:17 13.3 C 20 %
2544 31-03-2020 17:00:17 14.4 C 20 %
2545 31-03-2020 17:10:17 16.2 C 20 %
2546 31-03-2020 17:21:17 15.3 C 20 %
2547 31-03-2020 17:31:17 14.7 C 20 %
2548 31-03-2020 17:40:17 15.5 C 20 %
2549 31-03-2020 17:51:17 10.6 C 20 %
2550 31-03-2020 18:01:17 10.5 C 20 %
Sensor: Nr:Datum:Temp:Feuchte:
Aussen-T/F 2551 31-03-2020 18:11:17 10.2 C 20 %
2552 31-03-2020 18:21:17 9.8 C 20 %
2553 31-03-2020 18:31:17 9.6 C 20 %
2554 31-03-2020 18:40:17 9.4 C 20 %
2555 31-03-2020 18:51:17 9.1 C 20 %
2556 31-03-2020 19:00:17 9.1 C 20 %
2557 31-03-2020 19:10:17 8.8 C 20 %
2558 31-03-2020 19:20:17 8.7 C 20 %
2559 31-03-2020 19:31:17 8.2 C 20 %
2560 31-03-2020 19:41:17 7.7 C 20 %
2561 31-03-2020 19:50:17 6.6 C 20 %
2562 31-03-2020 20:01:17 5.6 C 20 %
2563 31-03-2020 20:11:17 5.5 C 20 %
2564 31-03-2020 20:21:17 5.3 C 20 %
2565 31-03-2020 20:31:17 4.7 C 20 %
2566 31-03-2020 20:41:17 4.4 C 20 %
2567 31-03-2020 20:51:17 4 C 20 %
2568 31-03-2020 21:00:17 3.7 C 20 %
2569 31-03-2020 21:10:18 3.9 C 20 %
2570 31-03-2020 21:21:17 3.7 C 20 %
2571 31-03-2020 21:31:17 3.5 C 20 %
2572 31-03-2020 21:41:17 3.2 C 23 %
2573 31-03-2020 21:51:17 3.2 C 23 %
2574 31-03-2020 22:00:18 3 C 23 %
2575 31-03-2020 22:10:18 2.7 C 25 %
Sensor: Nr:Datum:Temp:Feuchte:
Aussen-T/F 2576 31-03-2020 22:21:17 2.7 C 25 %
2577 31-03-2020 22:31:17 2.6 C 25 %
2578 31-03-2020 22:41:17 1.8 C 30 %
2579 31-03-2020 22:50:18 1.6 C 30 %
2580 31-03-2020 23:01:17 1.6 C 30 %
2581 31-03-2020 23:11:17 1.7 C 30 %
2582 31-03-2020 23:21:17 1.4 C 31 %
2583 31-03-2020 23:30:17 1.3 C 31 %
2584 31-03-2020 23:40:18 1.6 C 31 %
2585 31-03-2020 23:51:17 0.9 C 32 %
2586 01-04-2020 00:01:17 1.2 C 31 %
2587 01-04-2020 00:11:17 0 C 35 %
2588 01-04-2020 00:21:17 0.8 C 33 %
2589 01-04-2020 00:31:17 0.6 C 32 %
2590 01-04-2020 00:41:17 0.5 C 33 %
2591 01-04-2020 00:51:17 -0.3 C 35 %
2592 01-04-2020 01:01:17 -0.1 C 36 %
2593 01-04-2020 01:11:17 -0.3 C 35 %
2594 01-04-2020 01:21:17 -1 C 37 %
2595 01-04-2020 01:30:18 -1.4 C 38 %
2596 01-04-2020 01:40:18 -1.7 C 38 %
2597 01-04-2020 01:51:17 -1.9 C 38 %
2598 01-04-2020 02:01:17 -1.9 C 38 %
2599 01-04-2020 02:11:17 -2 C 38 %
2600 01-04-2020 02:21:17 -2.1 C 38 %
Sensor: Nr:Datum:Temp:Feuchte:
Aussen-T/F 2601 01-04-2020 02:31:17 -2.3 C 39 %
2602 01-04-2020 02:41:17 -2.4 C 38 %
2603 01-04-2020 02:50:18 -2.4 C 39 %
2604 01-04-2020 03:01:17 -2.5 C 38 %
2605 01-04-2020 03:11:17 -2.6 C 38 %
2606 01-04-2020 03:21:17 -2.8 C 39 %
2607 01-04-2020 03:31:17 -2.7 C 38 %
2608 01-04-2020 03:41:18 -3 C 38 %
2609 01-04-2020 03:51:17 -3 C 39 %
2610 01-04-2020 04:01:17 -2.8 C 39 %
2611 01-04-2020 04:11:17 -3.1 C 38 %
2612 01-04-2020 04:21:17 -3.2 C 39 %
2613 01-04-2020 04:31:18 -3.5 C 38 %
2614 01-04-2020 04:41:19 -3.4 C 39 %
2615 01-04-2020 04:51:17 -3.5 C 39 %
2616 01-04-2020 05:01:18 -3.6 C 39 %
2617 01-04-2020 05:11:19 -3.8 C 40 %
2618 01-04-2020 05:21:17 -3.8 C 40 %
2619 01-04-2020 05:31:18 -3.8 C 40 %
2620 01-04-2020 05:41:18 -4 C 40 %
2621 01-04-2020 05:51:17 -4.2 C 40 %
2622 01-04-2020 06:01:18 -4.2 C 40 %
2623 01-04-2020 06:11:18 -4 C 40 %
2624 01-04-2020 06:21:17 -4.2 C 40 %
2625 01-04-2020 06:31:17 -4.2 C 41 %
Sensor: Nr:Datum:Temp:Feuchte:
Aussen-T/F 2626 01-04-2020 06:41:17 -4.3 C 41 %
2627 01-04-2020 06:51:17 -4.5 C 41 %
2628 01-04-2020 07:01:18 -4.6 C 41 %
2629 01-04-2020 07:11:19 -4.7 C 41 %
2630 01-04-2020 07:21:17 -4.5 C 41 %
2631 01-04-2020 07:31:18 -4.4 C 41 %
2632 01-04-2020 07:41:18 -4.5 C 41 %
2633 01-04-2020 07:51:17 -4.3 C 41 %
2634 01-04-2020 08:01:17 -4.2 C 41 %
2635 01-04-2020 08:11:17 -4.2 C 41 %
2636 01-04-2020 08:21:17 -3.7 C 41 %
2637 01-04-2020 08:31:17 -3.8 C 41 %
2638 01-04-2020 08:41:17 -3.7 C 41 %
2639 01-04-2020 08:51:17 -3.4 C 40 %
2640 01-04-2020 09:01:17 -3.4 C 40 %
2641 01-04-2020 09:11:17 -2.7 C 40 %
2642 01-04-2020 09:21:17 -2.6 C 40 %
2643 01-04-2020 09:31:17 -2.5 C 40 %
2644 01-04-2020 09:41:17 -2.1 C 40 %
2645 01-04-2020 09:51:17 -1.5 C 39 %
2646 01-04-2020 10:01:17 -1 C 39 %
2647 01-04-2020 10:11:17 -0.9 C 40 %
2648 01-04-2020 10:21:17 -0.4 C 40 %
2649 01-04-2020 10:31:18 0.5 C 39 %
2650 01-04-2020 10:41:18 1 C 37 %
Sensor: Nr:Datum:Temp:Feuchte:
Aussen-T/F 2651 01-04-2020 10:51:17 1.6 C 36 %
2652 01-04-2020 11:01:17 2.4 C 35 %
2653 01-04-2020 11:11:17 3.2 C 33 %
2654 01-04-2020 11:21:17 4.2 C 29 %
2655 01-04-2020 11:31:17 4.8 C 20 %
2656 01-04-2020 11:41:17 5.3 C 20 %
2657 01-04-2020 11:51:17 6 C 20 %
2658 01-04-2020 12:01:17 6.6 C 20 %
2659 01-04-2020 12:11:18 7.1 C 20 %
2660 01-04-2020 12:21:17 8.9 C 20 %
2661 01-04-2020 12:31:17 10.3 C 20 %
2662 01-04-2020 12:41:17 9.2 C 20 %
2663 01-04-2020 12:51:17 8 C 20 %
2664 01-04-2020 13:01:17 9.3 C 20 %
2665 01-04-2020 13:11:17 9.3 C 20 %
2666 01-04-2020 13:21:16 8.6 C 20 %
2667 01-04-2020 13:31:17 9.2 C 20 %
2668 01-04-2020 13:41:17 9.6 C 20 %
2669 01-04-2020 13:51:17 10 C 20 %
2670 01-04-2020 14:01:17 10.3 C 20 %
2671 01-04-2020 14:11:17 10.7 C 20 %
2672 01-04-2020 14:21:17 13.2 C 20 %
2673 01-04-2020 14:31:16 15.9 C 20 %
2674 01-04-2020 14:41:16 16.3 C 20 %
2675 01-04-2020 14:51:17 13.7 C 20 %
Sensor: Nr:Datum:Temp:Feuchte:
Aussen-T/F 2676 01-04-2020 15:01:17 14.2 C 20 %
2677 01-04-2020 15:11:17 17.2 C 20 %
2678 01-04-2020 15:21:17 16.8 C 20 %
2679 01-04-2020 15:31:16 16.3 C 20 %
2680 01-04-2020 15:41:16 18.2 C 20 %
2681 01-04-2020 15:51:17 19.5 C 20 %
2682 01-04-2020 16:01:16 18.7 C 20 %
2683 01-04-2020 16:11:16 18.7 C 20 %
2684 01-04-2020 16:21:16 19.7 C 20 %
2685 01-04-2020 16:31:17 21.3 C 20 %
2686 01-04-2020 16:41:17 15.5 C 20 %
2687 01-04-2020 16:51:16 18.4 C 20 %
2688 01-04-2020 17:01:16 17.2 C 20 %
2689 01-04-2020 17:11:16 17.4 C 20 %
2690 01-04-2020 17:21:17 17.7 C 20 %
2691 01-04-2020 17:31:17 18.5 C 20 %
2692 01-04-2020 17:41:17 16.8 C 20 %
2693 01-04-2020 17:51:17 15.8 C 20 %
2694 01-04-2020 18:01:17 12.6 C 20 %
2695 01-04-2020 18:11:17 12 C 20 %
2696 01-04-2020 18:21:16 12.1 C 20 %
2697 01-04-2020 18:31:17 11.7 C 20 %
2698 01-04-2020 18:41:17 11.8 C 20 %
2699 01-04-2020 18:51:16 11.6 C 20 %
2700 01-04-2020 19:01:17 11 C 20 %
Sensor: Nr:Datum:Temp:Feuchte:
Aussen-T/F 2701 01-04-2020 19:11:17 10.7 C 20 %
2702 01-04-2020 19:21:17 10.4 C 20 %
2703 01-04-2020 19:31:17 9.9 C 20 %
2704 01-04-2020 19:41:17 9.6 C 20 %
2705 01-04-2020 19:51:16 8.9 C 20 %
2706 01-04-2020 20:01:17 8.1 C 20 %
2707 01-04-2020 20:11:17 7.8 C 20 %
2708 01-04-2020 20:21:16 8.1 C 20 %
2709 01-04-2020 20:31:16 7.1 C 20 %
2710 01-04-2020 20:41:16 6.2 C 20 %
2711 01-04-2020 20:51:16 5.9 C 20 %
2712 01-04-2020 21:01:16 6 C 20 %
2713 01-04-2020 21:11:16 6 C 20 %
2714 01-04-2020 21:21:16 5.7 C 20 %
2715 01-04-2020 21:31:16 5.7 C 20 %
2716 01-04-2020 21:41:16 5.4 C 20 %
2717 01-04-2020 21:51:16 4 C 21 %
2718 01-04-2020 22:01:16 4.2 C 21 %
2719 01-04-2020 22:11:16 3.7 C 26 %
2720 01-04-2020 22:21:16 3.2 C 26 %
2721 01-04-2020 22:31:16 2.5 C 29 %
2722 01-04-2020 22:41:16 2.6 C 28 %
2723 01-04-2020 22:51:16 2 C 30 %
2724 01-04-2020 23:01:17 1.7 C 33 %
2725 01-04-2020 23:11:17 1.7 C 32 %
Sensor: Nr:Datum:Temp:Feuchte:
Aussen-T/F 2726 01-04-2020 23:21:16 1.4 C 34 %
2727 01-04-2020 23:31:16 1.2 C 34 %
2728 01-04-2020 23:41:16 1 C 35 %
2729 01-04-2020 23:51:16 1.1 C 34 %
2730 02-04-2020 00:01:17 1 C 35 %
2731 02-04-2020 00:11:17 0.4 C 36 %
2732 02-04-2020 00:21:16 0.4 C 36 %
2733 02-04-2020 00:31:17 0.2 C 36 %
2734 02-04-2020 00:41:17 0.3 C 37 %
2735 02-04-2020 00:51:16 0.3 C 36 %
2736 02-04-2020 01:01:17 0 C 37 %
2737 02-04-2020 01:11:17 -0.4 C 38 %
2738 02-04-2020 01:21:16 -0.6 C 38 %
2739 02-04-2020 01:31:17 -0.7 C 38 %
2740 02-04-2020 01:41:17 -0.7 C 38 %
2741 02-04-2020 01:51:16 -0.9 C 39 %
2742 02-04-2020 02:01:16 -1 C 39 %
2743 02-04-2020 02:11:16 -1 C 39 %
2744 02-04-2020 02:21:16 -1.2 C 39 %
2745 02-04-2020 02:31:17 -1.3 C 40 %
2746 02-04-2020 02:41:17 -1.6 C 40 %
2747 02-04-2020 02:51:17 -1.5 C 40 %
2748 02-04-2020 03:01:17 -1.5 C 40 %
2749 02-04-2020 03:11:17 -1.5 C 40 %
2750 02-04-2020 03:21:17 -1.3 C 40 %
Sensor: Nr:Datum:Temp:Feuchte:
Aussen-T/F 2751 02-04-2020 03:31:17 -1.4 C 40 %
2752 02-04-2020 03:41:17 -1.6 C 40 %
2753 02-04-2020 03:51:18 -1.7 C 40 %
2754 02-04-2020 04:01:18 -2.1 C 40 %
2755 02-04-2020 04:11:18 -1.7 C 41 %
2756 02-04-2020 04:21:18 -1.6 C 40 %
2757 02-04-2020 04:31:17 -2 C 40 %
2758 02-04-2020 04:41:17 -2.4 C 41 %
2759 02-04-2020 04:51:17 -2.7 C 41 %
2760 02-04-2020 05:01:18 -2.6 C 41 %
2761 02-04-2020 05:11:18 -2.6 C 41 %
2762 02-04-2020 05:21:17 -2.6 C 41 %
2763 02-04-2020 05:31:18 -2.7 C 41 %
2764 02-04-2020 05:41:18 -2.6 C 41 %
2765 02-04-2020 05:51:17 -2.5 C 41 %
2766 02-04-2020 06:01:17 -2.6 C 41 %
2767 02-04-2020 06:11:17 -3 C 41 %
2768 02-04-2020 06:21:17 -3 C 42 %
2769 02-04-2020 06:31:17 -2.6 C 43 %
2770 02-04-2020 06:41:17 -3.1 C 42 %
2771 02-04-2020 06:51:17 -2.9 C 42 %
2772 02-04-2020 07:01:17 -3.3 C 42 %
2773 02-04-2020 07:11:17 -3 C 42 %
2774 02-04-2020 07:21:17 -3.1 C 42 %
2775 02-04-2020 07:31:17 -3 C 43 %
Sensor: Nr:Datum:Temp:Feuchte:
Aussen-T/F 2776 02-04-2020 07:41:18 -2.9 C 42 %
2777 02-04-2020 07:51:17 -3 C 43 %
2778 02-04-2020 08:01:17 -2.7 C 43 %
2779 02-04-2020 08:11:18 -2.5 C 43 %
2780 02-04-2020 08:21:17 -2.2 C 42 %
2781 02-04-2020 08:31:17 -2.2 C 42 %
2782 02-04-2020 08:41:17 -2 C 42 %
2783 02-04-2020 08:51:17 -1.8 C 42 %
2784 02-04-2020 09:01:17 -1.7 C 42 %
2785 02-04-2020 09:11:17 -1.5 C 41 %
2786 02-04-2020 09:21:17 -1.3 C 41 %
2787 02-04-2020 09:31:17 -1 C 41 %
2788 02-04-2020 09:41:17 -0.6 C 41 %
2789 02-04-2020 09:51:18 -0.3 C 41 %
2790 02-04-2020 10:01:18 0.1 C 41 %
2791 02-04-2020 10:11:18 0.6 C 41 %
2792 02-04-2020 10:21:17 0.8 C 41 %
2793 02-04-2020 10:31:17 1.7 C 40 %
2794 02-04-2020 10:41:17 2.2 C 39 %
2795 02-04-2020 10:51:17 3.1 C 37 %
2796 02-04-2020 11:01:17 3.6 C 37 %
2797 02-04-2020 11:11:17 4.6 C 35 %
2798 02-04-2020 11:21:17 5.7 C 30 %
2799 02-04-2020 11:31:18 6.5 C 30 %
2800 02-04-2020 11:41:18 6.9 C 29 %
Sensor: Nr:Datum:Temp:Feuchte:
Aussen-T/F 2801 02-04-2020 11:51:17 7.4 C 27 %
2802 02-04-2020 12:01:17 8.1 C 27 %
2803 02-04-2020 12:11:17 8.5 C 25 %
2804 02-04-2020 12:21:17 10.5 C 20 %
2805 02-04-2020 12:31:18 12.2 C 20 %
2806 02-04-2020 12:41:18 10.8 C 20 %
2807 02-04-2020 12:51:17 10.3 C 20 %
2808 02-04-2020 13:01:17 11 C 20 %
2809 02-04-2020 13:11:18 11.5 C 20 %
2810 02-04-2020 13:21:17 11.6 C 20 %
2811 02-04-2020 13:31:17 11.4 C 20 %
2812 02-04-2020 13:41:17 12.3 C 20 %
2813 02-04-2020 13:51:17 12.5 C 20 %
2814 02-04-2020 14:01:17 11.8 C 20 %
2815 02-04-2020 14:11:17 12.6 C 20 %
2816 02-04-2020 14:21:17 15.5 C 20 %
2817 02-04-2020 14:31:18 18.1 C 20 %
2818 02-04-2020 14:41:18 18.3 C 20 %
2819 02-04-2020 14:51:17 18.3 C 20 %
2820 02-04-2020 15:01:18 19.7 C 20 %
2821 02-04-2020 15:11:18 17.5 C 20 %
2822 02-04-2020 15:21:17 19.2 C 20 %
2823 02-04-2020 15:31:18 19.8 C 20 %
2824 02-04-2020 15:41:18 19.3 C 20 %
2825 02-04-2020 15:51:17 19.4 C 20 %
Sensor: Nr:Datum:Temp:Feuchte:
Aussen-T/F 2826 02-04-2020 16:01:17 21.3 C 20 %
2827 02-04-2020 16:11:17 19.9 C 20 %
2828 02-04-2020 16:21:17 16.6 C 20 %
2829 02-04-2020 16:31:18 18 C 20 %
2830 02-04-2020 16:41:18 17.6 C 20 %
2831 02-04-2020 16:51:17 17.8 C 20 %
2832 02-04-2020 17:01:17 17.3 C 20 %
2833 02-04-2020 17:11:17 16.6 C 20 %
2834 02-04-2020 17:21:17 15.8 C 20 %
2835 02-04-2020 17:31:18 15.5 C 20 %
2836 02-04-2020 17:41:18 14.7 C 20 %
2837 02-04-2020 17:51:17 14.8 C 20 %
2838 02-04-2020 18:01:17 12.8 C 20 %
2839 02-04-2020 18:11:17 12.2 C 20 %
2840 02-04-2020 18:21:17 12.3 C 20 %
2841 02-04-2020 18:31:17 11.8 C 20 %
2842 02-04-2020 18:41:17 11.3 C 20 %
2843 02-04-2020 18:51:17 11.1 C 20 %
2844 02-04-2020 19:01:17 10.7 C 20 %
2845 02-04-2020 19:11:17 10.2 C 20 %
2846 02-04-2020 19:21:17 10 C 20 %
2847 02-04-2020 19:31:17 9.6 C 20 %
2848 02-04-2020 19:41:17 9.5 C 20 %
2849 02-04-2020 19:51:17 8.7 C 20 %
2850 02-04-2020 20:01:17 8.5 C 20 %
Sensor: Nr:Datum:Temp:Feuchte:
Aussen-T/F 2851 02-04-2020 20:11:17 8.5 C 20 %
2852 02-04-2020 20:21:17 7.9 C 20 %
2853 02-04-2020 20:31:17 7.8 C 20 %
2854 02-04-2020 20:41:17 7.2 C 21 %
2855 02-04-2020 20:51:17 6.9 C 25 %
2856 02-04-2020 21:01:17 6.4 C 26 %
2857 02-04-2020 21:11:17 6.3 C 27 %
2858 02-04-2020 21:21:17 5.9 C 28 %
2859 02-04-2020 21:31:18 5.7 C 29 %
2860 02-04-2020 21:41:18 5.6 C 30 %
2861 02-04-2020 21:51:17 5.3 C 30 %
2862 02-04-2020 22:01:17 5.2 C 30 %
2863 02-04-2020 22:11:17 5.5 C 30 %
2864 02-04-2020 22:21:17 5 C 30 %
2865 02-04-2020 22:31:18 5.3 C 31 %
2866 02-04-2020 22:41:18 5.2 C 31 %
2867 02-04-2020 22:51:17 5.1 C 31 %
2868 02-04-2020 23:01:17 4.8 C 32 %
2869 02-04-2020 23:11:17 5 C 31 %
2870 02-04-2020 23:21:17 5 C 31 %
2871 02-04-2020 23:31:18 4.7 C 33 %
2872 02-04-2020 23:41:18 3.9 C 35 %
2873 02-04-2020 23:51:17 3.1 C 36 %
2874 03-04-2020 00:01:18 2.7 C 38 %
2875 03-04-2020 00:11:18 2.3 C 39 %
Sensor: Nr:Datum:Temp:Feuchte:
Aussen-T/F 2876 03-04-2020 00:21:17 2.6 C 40 %
2877 03-04-2020 00:31:17 2.6 C 39 %
2878 03-04-2020 00:41:17 3.2 C 38 %
2879 03-04-2020 00:51:17 2.4 C 39 %
2880 03-04-2020 01:01:18 2.4 C 39 %
2881 03-04-2020 01:11:18 2.4 C 39 %
2882 03-04-2020 01:21:17 2.6 C 39 %
2883 03-04-2020 01:31:18 2.7 C 39 %
2884 03-04-2020 01:41:18 2.5 C 39 %
2885 03-04-2020 01:51:17 2.3 C 39 %
2886 03-04-2020 02:01:18 2.2 C 39 %
2887 03-04-2020 02:11:18 2.3 C 39 %
2888 03-04-2020 02:21:18 3.1 C 38 %
2889 03-04-2020 02:31:18 3.2 C 38 %
2890 03-04-2020 02:41:18 2.6 C 39 %
2891 03-04-2020 02:51:17 2.8 C 39 %
2892 03-04-2020 03:01:18 3 C 38 %
2893 03-04-2020 03:11:18 3.6 C 38 %
2894 03-04-2020 03:21:17 3.9 C 38 %
2895 03-04-2020 03:31:17 4.4 C 36 %
2896 03-04-2020 03:41:17 4.7 C 36 %
2897 03-04-2020 03:51:17 4.6 C 36 %
2898 03-04-2020 04:01:17 5 C 35 %
2899 03-04-2020 04:11:17 5.6 C 35 %
2900 03-04-2020 04:21:17 4.9 C 35 %
Sensor: Nr:Datum:Temp:Feuchte:
Aussen-T/F 2901 03-04-2020 04:31:18 4.7 C 36 %
2902 03-04-2020 04:41:18 4.6 C 36 %
2903 03-04-2020 04:51:18 4.4 C 36 %
2904 03-04-2020 05:01:18 4.3 C 36 %
2905 03-04-2020 05:11:18 4.5 C 36 %
2906 03-04-2020 05:21:17 4.8 C 36 %
2907 03-04-2020 05:31:17 4.8 C 36 %
2908 03-04-2020 05:41:17 5.2 C 35 %
2909 03-04-2020 05:51:17 5.3 C 35 %
2910 03-04-2020 06:01:18 5.4 C 35 %
2911 03-04-2020 06:11:18 5.4 C 35 %
2912 03-04-2020 06:21:17 5.1 C 35 %
2913 03-04-2020 06:31:17 5.1 C 36 %
2914 03-04-2020 06:41:17 5.1 C 35 %
2915 03-04-2020 06:51:17 5.2 C 35 %
2916 03-04-2020 07:01:17 5.7 C 35 %
2917 03-04-2020 07:11:17 5.6 C 35 %
2918 03-04-2020 07:21:18 5.5 C 35 %
2919 03-04-2020 07:31:17 5.7 C 35 %
2920 03-04-2020 07:41:17 5.6 C 35 %
2921 03-04-2020 07:51:17 5.6 C 35 %
2922 03-04-2020 08:01:17 5.7 C 35 %
2923 03-04-2020 08:11:17 5.9 C 35 %
2924 03-04-2020 08:21:18 5.9 C 35 %
2925 03-04-2020 08:31:17 5.9 C 35 %
Sensor: Nr:Datum:Temp:Feuchte:
Aussen-T/F 2926 03-04-2020 08:41:17 6.1 C 35 %
2927 03-04-2020 08:51:18 6.6 C 35 %
2928 03-04-2020 09:01:17 7 C 34 %
2929 03-04-2020 09:11:17 7.1 C 34 %
2930 03-04-2020 09:21:18 7.6 C 34 %
2931 03-04-2020 09:31:18 7.7 C 34 %
2932 03-04-2020 09:41:18 8 C 33 %
2933 03-04-2020 09:51:17 8.4 C 33 %
2934 03-04-2020 10:01:18 8.6 C 32 %
2935 03-04-2020 10:11:18 8.6 C 32 %
2936 03-04-2020 10:21:17 9 C 32 %
2937 03-04-2020 10:31:18 9.4 C 32 %
2938 03-04-2020 10:41:18 9.2 C 32 %
2939 03-04-2020 10:51:17 9.6 C 32 %
2940 03-04-2020 11:01:17 10.6 C 31 %
2941 03-04-2020 11:11:17 11.2 C 29 %
2942 03-04-2020 11:21:17 10.9 C 29 %
2943 03-04-2020 11:31:17 11.1 C 28 %
2944 03-04-2020 11:41:17 11.5 C 26 %
2945 03-04-2020 11:51:17 11.4 C 26 %
2946 03-04-2020 12:01:17 11.1 C 26 %
2947 03-04-2020 12:11:17 11.2 C 26 %
2948 03-04-2020 12:21:17 11.4 C 26 %
2949 03-04-2020 12:31:17 11.6 C 25 %
2950 03-04-2020 12:41:18 11.1 C 25 %
Sensor: Nr:Datum:Temp:Feuchte:
Aussen-T/F 2951 03-04-2020 12:51:17 11.1 C 25 %
2952 03-04-2020 13:01:18 11.2 C 25 %
2953 03-04-2020 13:11:18 11.7 C 25 %
2954 03-04-2020 13:21:17 12.2 C 22 %
2955 03-04-2020 13:31:17 11.8 C 22 %
2956 03-04-2020 13:41:17 11.8 C 23 %
2957 03-04-2020 13:51:17 12.2 C 22 %
2958 03-04-2020 14:01:18 12.3 C 20 %
2959 03-04-2020 14:11:18 11.6 C 21 %
2960 03-04-2020 14:21:17 11.7 C 21 %
2961 03-04-2020 14:31:17 11.6 C 21 %
2962 03-04-2020 14:41:18 11.4 C 23 %
2963 03-04-2020 14:51:17 11.7 C 21 %
2964 03-04-2020 15:01:17 11.8 C 20 %
2965 03-04-2020 15:11:17 11.7 C 20 %
2966 03-04-2020 15:21:18 11.8 C 20 %
2967 03-04-2020 15:31:17 12.1 C 20 %
2968 03-04-2020 15:41:17 12.5 C 20 %
2969 03-04-2020 15:51:17 13.1 C 20 %
2970 03-04-2020 16:01:17 12.6 C 20 %
2971 03-04-2020 16:11:17 12.4 C 20 %
2972 03-04-2020 16:21:17 12.4 C 20 %
2973 03-04-2020 16:31:17 12.3 C 20 %
2974 03-04-2020 16:41:17 12.4 C 20 %
2975 03-04-2020 16:51:17 12.4 C 20 %
Sensor: Nr:Datum:Temp:Feuchte:
Aussen-T/F 2976 03-04-2020 17:01:17 12.2 C 20 %
2977 03-04-2020 17:11:17 12.2 C 20 %
2978 03-04-2020 17:21:17 12.2 C 20 %
2979 03-04-2020 17:31:17 12.2 C 20 %
2980 03-04-2020 17:41:17 12.4 C 20 %
2981 03-04-2020 17:51:17 11.9 C 20 %
2982 03-04-2020 18:01:17 11.5 C 20 %
2983 03-04-2020 18:11:17 11.7 C 20 %
2984 03-04-2020 18:21:17 11.5 C 20 %
2985 03-04-2020 18:31:18 11.4 C 20 %
2986 03-04-2020 18:41:18 11 C 20 %
2987 03-04-2020 18:51:17 11 C 20 %
2988 03-04-2020 19:01:18 10.8 C 20 %
2989 03-04-2020 19:11:18 10.7 C 20 %
2990 03-04-2020 19:21:17 10.5 C 20 %
2991 03-04-2020 19:31:17 10.2 C 20 %
2992 03-04-2020 19:41:17 10.3 C 20 %
2993 03-04-2020 19:51:17 9.9 C 20 %
2994 03-04-2020 20:01:17 9.8 C 20 %
2995 03-04-2020 20:11:17 9.5 C 20 %
2996 03-04-2020 20:21:17 9.1 C 20 %
2997 03-04-2020 20:31:18 9.5 C 20 %
2998 03-04-2020 20:41:18 9.2 C 20 %
2999 03-04-2020 20:51:18 9.1 C 20 %
3000 03-04-2020 21:01:17 9.2 C 20 %
Sensor: Nr:Datum:Temp:Feuchte:
Aussen-T/F 3001 03-04-2020 21:11:17 9.1 C 20 %
3002 03-04-2020 21:21:17 8.9 C 20 %
3003 03-04-2020 21:31:17 8.7 C 20 %
3004 03-04-2020 21:41:17 8.6 C 20 %
3005 03-04-2020 21:51:17 8.3 C 20 %
3006 03-04-2020 22:01:17 8.1 C 20 %
3007 03-04-2020 22:11:17 7.9 C 20 %
3008 03-04-2020 22:21:17 7.2 C 23 %
3009 03-04-2020 22:31:18 6.8 C 25 %
3010 03-04-2020 22:41:18 6.5 C 26 %
3011 03-04-2020 22:51:17 6.3 C 26 %
3012 03-04-2020 23:01:17 6.4 C 26 %
3013 03-04-2020 23:11:18 6.4 C 25 %
3014 03-04-2020 23:21:18 6.2 C 26 %
3015 03-04-2020 23:31:17 5.2 C 28 %
3016 03-04-2020 23:41:18 5 C 29 %
3017 03-04-2020 23:51:17 4.7 C 30 %
3018 04-04-2020 00:01:17 4.8 C 30 %
3019 04-04-2020 00:11:18 4.8 C 30 %
3020 04-04-2020 00:21:17 4.7 C 30 %
3021 04-04-2020 00:31:17 5.2 C 28 %
3022 04-04-2020 00:41:17 4.5 C 29 %
3023 04-04-2020 00:51:17 4 C 30 %
3024 04-04-2020 01:01:17 4.6 C 30 %
3025 04-04-2020 01:11:17 4.3 C 30 %
Sensor: Nr:Datum:Temp:Feuchte:
Aussen-T/F 3026 04-04-2020 01:21:18 3.9 C 31 %
3027 04-04-2020 01:31:17 4 C 32 %
3028 04-04-2020 01:41:17 3.1 C 35 %
3029 04-04-2020 01:51:17 2.2 C 37 %
3030 04-04-2020 02:01:18 1.7 C 39 %
3031 04-04-2020 02:11:18 1.4 C 40 %
3032 04-04-2020 02:21:17 1.2 C 40 %
3033 04-04-2020 02:31:17 0.9 C 41 %
3034 04-04-2020 02:41:17 0.8 C 41 %
3035 04-04-2020 02:51:17 0.8 C 42 %
3036 04-04-2020 03:01:18 0.6 C 42 %
3037 04-04-2020 03:11:18 0.4 C 42 %
3038 04-04-2020 03:21:17 0.3 C 43 %
3039 04-04-2020 03:31:18 0.6 C 43 %
3040 04-04-2020 03:41:18 0.5 C 42 %
3041 04-04-2020 03:51:17 -0.1 C 43 %
3042 04-04-2020 04:01:17 -0.4 C 43 %
3043 04-04-2020 04:11:17 -0.6 C 43 %
3044 04-04-2020 04:21:17 -0.7 C 44 %
3045 04-04-2020 04:31:17 -0.6 C 44 %
3046 04-04-2020 04:41:17 -0.9 C 44 %
3047 04-04-2020 04:51:17 -0.9 C 45 %
3048 04-04-2020 05:01:18 -0.9 C 45 %
3049 04-04-2020 05:11:18 -1.2 C 45 %
3050 04-04-2020 05:21:18 -1.2 C 45 %
Sensor: Nr:Datum:Temp:Feuchte:
Aussen-T/F 3051 04-04-2020 05:31:17 -1 C 45 %
3052 04-04-2020 05:41:17 -1.2 C 45 %
3053 04-04-2020 05:51:17 -1.2 C 45 %
3054 04-04-2020 06:01:18 -1.5 C 45 %
3055 04-04-2020 06:11:18 -1.5 C 45 %
3056 04-04-2020 06:21:17 -1.5 C 45 %
3057 04-04-2020 06:31:17 -1.8 C 45 %
3058 04-04-2020 06:41:17 -1.4 C 46 %
3059 04-04-2020 06:51:17 -1.5 C 45 %
3060 04-04-2020 07:01:18 -1.6 C 45 %
3061 04-04-2020 07:11:18 -1.8 C 45 %
3062 04-04-2020 07:21:17 -1.5 C 46 %
3063 04-04-2020 07:31:18 -1.8 C 45 %
3064 04-04-2020 07:41:18 -1.7 C 46 %
3065 04-04-2020 07:51:17 -1.8 C 45 %
3066 04-04-2020 08:01:17 -1.8 C 46 %
3067 04-04-2020 08:11:18 -1.7 C 46 %
3068 04-04-2020 08:21:17 -1.5 C 46 %
3069 04-04-2020 08:31:17 -1.1 C 46 %
3070 04-04-2020 08:41:18 -1 C 46 %
3071 04-04-2020 08:51:17 -0.7 C 45 %
3072 04-04-2020 09:01:17 -0.3 C 45 %
3073 04-04-2020 09:11:17 0 C 45 %
3074 04-04-2020 09:21:17 -0.2 C 45 %
3075 04-04-2020 09:31:18 0.2 C 45 %
Sensor: Nr:Datum:Temp:Feuchte:
Aussen-T/F 3076 04-04-2020 09:41:18 0.8 C 44 %
3077 04-04-2020 09:51:17 1.1 C 43 %
3078 04-04-2020 10:01:17 1.5 C 43 %
3079 04-04-2020 10:11:18 1.8 C 43 %
3080 04-04-2020 10:21:17 2.2 C 41 %
3081 04-04-2020 10:31:17 2.9 C 41 %
3082 04-04-2020 10:41:17 3.5 C 40 %
3083 04-04-2020 10:51:17 4.5 C 37 %
3084 04-04-2020 11:01:17 5.3 C 36 %
3085 04-04-2020 11:11:17 6.4 C 35 %
3086 04-04-2020 11:21:18 7.1 C 32 %
3087 04-04-2020 11:31:18 7.9 C 32 %
3088 04-04-2020 11:41:18 8.4 C 29 %
3089 04-04-2020 11:51:18 8.7 C 29 %
3090 04-04-2020 12:01:18 9.7 C 26 %
3091 04-04-2020 12:11:18 9.7 C 26 %
3092 04-04-2020 12:21:17 10.6 C 22 %
3093 04-04-2020 12:31:17 10.9 C 20 %
3094 04-04-2020 12:41:17 11.4 C 20 %
3095 04-04-2020 12:51:17 10.8 C 20 %
3096 04-04-2020 13:01:17 11.1 C 20 %
3097 04-04-2020 13:11:17 12.1 C 20 %
3098 04-04-2020 13:21:17 11.6 C 20 %
3099 04-04-2020 13:31:17 11.4 C 20 %
3100 04-04-2020 13:41:17 12.2 C 20 %
Sensor: Nr:Datum:Temp:Feuchte:
Aussen-T/F 3101 04-04-2020 13:51:18 12.5 C 20 %
3102 04-04-2020 14:01:17 12.1 C 20 %
3103 04-04-2020 14:11:17 13.7 C 20 %
3104 04-04-2020 14:21:17 14.6 C 20 %
3105 04-04-2020 14:31:17 16.6 C 20 %
3106 04-04-2020 14:41:17 17 C 20 %
3107 04-04-2020 14:51:17 16.3 C 20 %
3108 04-04-2020 15:01:18 18.1 C 20 %
3109 04-04-2020 15:11:18 18.9 C 20 %
3110 04-04-2020 15:21:17 16.9 C 20 %
3111 04-04-2020 15:31:17 19.1 C 20 %
3112 04-04-2020 15:41:17 19.8 C 20 %
3113 04-04-2020 15:51:17 17.4 C 20 %
3114 04-04-2020 16:01:17 19.9 C 20 %
3115 04-04-2020 16:11:17 19.3 C 20 %
3116 04-04-2020 16:21:17 18.7 C 20 %
3117 04-04-2020 16:31:17 19.3 C 20 %
3118 04-04-2020 16:41:17 20.5 C 20 %
3119 04-04-2020 16:51:17 20.4 C 20 %
3120 04-04-2020 17:01:17 20.3 C 20 %
3121 04-04-2020 17:11:17 20.1 C 20 %
3122 04-04-2020 17:21:17 20.5 C 20 %
3123 04-04-2020 17:31:17 19.2 C 20 %
3124 04-04-2020 17:41:17 18.7 C 20 %
3125 04-04-2020 17:51:18 17.8 C 20 %
Sensor: Nr:Datum:Temp:Feuchte:
Aussen-T/F 3126 04-04-2020 18:01:17 16.8 C 20 %
3127 04-04-2020 18:11:17 16.2 C 20 %
3128 04-04-2020 18:21:17 15.4 C 20 %
3129 04-04-2020 18:31:17 15.4 C 20 %
3130 04-04-2020 18:41:17 15.6 C 20 %
3131 04-04-2020 18:51:17 15.1 C 20 %
3132 04-04-2020 19:01:17 14.9 C 20 %
3133 04-04-2020 19:11:17 14.4 C 20 %
3134 04-04-2020 19:21:17 14 C 20 %
3135 04-04-2020 19:31:17 13.9 C 20 %
3136 04-04-2020 19:41:17 12.6 C 20 %
3137 04-04-2020 19:51:17 11.5 C 20 %
3138 04-04-2020 20:01:17 11.3 C 20 %
3139 04-04-2020 20:11:17 10.7 C 20 %
3140 04-04-2020 20:21:17 10.3 C 21 %
3141 04-04-2020 20:31:17 9.8 C 25 %
3142 04-04-2020 20:41:17 9.5 C 23 %
3143 04-04-2020 20:51:17 9.2 C 25 %
3144 04-04-2020 21:01:17 9.2 C 21 %
3145 04-04-2020 21:11:17 8.7 C 25 %
3146 04-04-2020 21:21:17 8.8 C 25 %
3147 04-04-2020 21:31:17 8.5 C 25 %
3148 04-04-2020 21:41:17 8.2 C 25 %
3149 04-04-2020 21:51:17 7.1 C 28 %
3150 04-04-2020 22:01:18 5.8 C 31 %
Sensor: Nr:Datum:Temp:Feuchte:
Aussen-T/F 3151 04-04-2020 22:11:18 5.5 C 32 %
3152 04-04-2020 22:21:18 5.1 C 32 %
3153 04-04-2020 22:31:17 4.8 C 35 %
3154 04-04-2020 22:41:17 4.7 C 34 %
3155 04-04-2020 22:51:17 4.6 C 34 %
3156 04-04-2020 23:01:17 4.4 C 34 %
3157 04-04-2020 23:11:17 4.1 C 34 %
3158 04-04-2020 23:21:17 3.9 C 35 %
3159 04-04-2020 23:31:17 3.6 C 36 %
3160 04-04-2020 23:41:17 3.5 C 36 %
3161 04-04-2020 23:51:17 3.4 C 37 %
3162 05-04-2020 00:01:17 3 C 37 %
3163 05-04-2020 00:11:17 2.9 C 38 %
3164 05-04-2020 00:21:17 2.8 C 39 %
3165 05-04-2020 00:31:17 2.5 C 39 %
3166 05-04-2020 00:41:17 2.5 C 40 %
3167 05-04-2020 00:51:18 2.4 C 40 %
3168 05-04-2020 01:01:18 2.3 C 40 %
3169 05-04-2020 01:11:18 2.3 C 40 %
3170 05-04-2020 01:21:17 2.2 C 40 %
3171 05-04-2020 01:31:18 2.1 C 41 %
3172 05-04-2020 01:41:18 1.9 C 42 %
3173 05-04-2020 01:51:17 1.8 C 42 %
3174 05-04-2020 02:01:18 1.6 C 42 %
3175 05-04-2020 02:11:18 1.3 C 42 %
Sensor: Nr:Datum:Temp:Feuchte:
Aussen-T/F 3176 05-04-2020 02:21:17 1.4 C 43 %
3177 05-04-2020 02:31:18 1.4 C 43 %
3178 05-04-2020 02:41:18 1.1 C 43 %
3179 05-04-2020 02:51:17 1.1 C 43 %
3180 05-04-2020 03:01:18 1.3 C 43 %
3181 05-04-2020 03:11:18 1.1 C 43 %
3182 05-04-2020 03:21:17 1 C 43 %
3183 05-04-2020 03:31:17 0.7 C 45 %
3184 05-04-2020 03:41:17 0.5 C 45 %
3185 05-04-2020 03:51:17 0.7 C 45 %
3186 05-04-2020 04:01:17 0.6 C 45 %
3187 05-04-2020 04:11:17 0.4 C 45 %
3188 05-04-2020 04:21:17 0.4 C 46 %
3189 05-04-2020 04:31:17 0.2 C 46 %
3190 05-04-2020 04:41:17 0.2 C 46 %
3191 05-04-2020 04:51:17 0.2 C 46 %
3192 05-04-2020 05:01:17 0 C 46 %
3193 05-04-2020 05:11:17 -0.3 C 46 %
3194 05-04-2020 05:21:17 -0.2 C 47 %
3195 05-04-2020 05:31:17 -0.3 C 46 %
3196 05-04-2020 05:41:17 -0.4 C 47 %
3197 05-04-2020 05:51:17 -0.5 C 47 %
3198 05-04-2020 06:01:17 -0.4 C 47 %
3199 05-04-2020 06:11:17 -0.5 C 47 %
3200 05-04-2020 06:21:17 -0.6 C 47 %
Sensor: Nr:Datum:Temp:Feuchte:
Aussen-T/F 3201 05-04-2020 06:31:18 -0.8 C 48 %
3202 05-04-2020 06:41:18 -0.8 C 47 %
3203 05-04-2020 06:51:17 -0.8 C 47 %
3204 05-04-2020 07:01:18 -0.9 C 47 %
3205 05-04-2020 07:11:18 -0.7 C 48 %
3206 05-04-2020 07:21:18 -0.6 C 48 %
3207 05-04-2020 07:31:17 -0.5 C 48 %
3208 05-04-2020 07:41:17 -0.5 C 48 %
3209 05-04-2020 07:51:17 -0.4 C 48 %
3210 05-04-2020 08:01:17 -0.3 C 48 %
3211 05-04-2020 08:11:17 0 C 49 %
3212 05-04-2020 08:21:17 0.1 C 48 %
3213 05-04-2020 08:31:17 0.4 C 48 %
3214 05-04-2020 08:41:17 0.5 C 49 %
3215 05-04-2020 08:51:18 0.8 C 49 %
3216 05-04-2020 09:01:17 1.1 C 47 %
3217 05-04-2020 09:11:17 1.4 C 47 %
3218 05-04-2020 09:21:17 1.8 C 47 %
3219 05-04-2020 09:31:17 2.4 C 46 %
3220 05-04-2020 09:41:17 2.8 C 46 %
3221 05-04-2020 09:51:18 3.4 C 44 %
3222 05-04-2020 10:01:18 3.9 C 43 %
3223 05-04-2020 10:11:18 4.5 C 41 %
3224 05-04-2020 10:21:17 5.4 C 40 %
3225 05-04-2020 10:31:17 5.9 C 40 %
Sensor: Nr:Datum:Temp:Feuchte:
Aussen-T/F 3226 05-04-2020 10:41:17 7 C 38 %
3227 05-04-2020 10:51:17 7.9 C 37 %
3228 05-04-2020 11:01:17 8.6 C 36 %
3229 05-04-2020 11:11:17 10.7 C 32 %
3230 05-04-2020 11:21:17 11.2 C 30 %
3231 05-04-2020 11:31:17 13.1 C 21 %
3232 05-04-2020 11:41:17 13.9 C 20 %
3233 05-04-2020 11:51:17 14.8 C 20 %
3234 05-04-2020 12:01:17 15.6 C 20 %
3235 05-04-2020 12:11:17 15.9 C 20 %
3236 05-04-2020 12:21:17 16.7 C 20 %
3237 05-04-2020 12:31:18 17.6 C 20 %
3238 05-04-2020 12:41:18 17.4 C 20 %
3239 05-04-2020 12:51:17 17.4 C 20 %
3240 05-04-2020 13:01:17 17.2 C 20 %
3241 05-04-2020 13:11:17 18.4 C 20 %
3242 05-04-2020 13:21:17 17.5 C 20 %
3243 05-04-2020 13:31:17 17.1 C 20 %
3244 05-04-2020 13:41:17 17.9 C 20 %
3245 05-04-2020 13:51:17 17.7 C 20 %
3246 05-04-2020 14:01:17 17.9 C 20 %
3247 05-04-2020 14:11:17 19 C 20 %
3248 05-04-2020 14:21:17 19.8 C 20 %
3249 05-04-2020 14:31:18 21.7 C 20 %
3250 05-04-2020 14:41:18 23.4 C 20 %
Sensor: Nr:Datum:Temp:Feuchte:
Aussen-T/F 3251 05-04-2020 14:51:18 23.3 C 20 %
3252 05-04-2020 15:01:17 24.7 C 20 %
3253 05-04-2020 15:11:18 26.9 C 20 %
3254 05-04-2020 15:21:17 24.5 C 20 %
3255 05-04-2020 15:31:17 24.8 C 20 %
3256 05-04-2020 15:41:17 25.1 C 20 %
3257 05-04-2020 15:51:18 26.6 C 20 %
3258 05-04-2020 16:01:17 25 C 20 %
3259 05-04-2020 16:11:17 23.3 C 20 %
3260 05-04-2020 16:21:17 25.5 C 20 %
3261 05-04-2020 16:31:17 24.8 C 20 %
3262 05-04-2020 16:41:17 23.1 C 20 %
3263 05-04-2020 16:51:17 23.4 C 20 %
3264 05-04-2020 17:01:17 23.5 C 20 %
3265 05-04-2020 17:11:17 26.4 C 20 %
3266 05-04-2020 17:21:17 25.9 C 20 %
3267 05-04-2020 17:31:17 24.4 C 20 %
3268 05-04-2020 17:41:17 24.2 C 20 %
3269 05-04-2020 17:51:17 23.6 C 20 %
3270 05-04-2020 18:01:17 20.8 C 20 %
3271 05-04-2020 18:11:17 19.7 C 20 %
3272 05-04-2020 18:21:17 20 C 20 %
3273 05-04-2020 18:31:17 19.7 C 20 %
3274 05-04-2020 18:41:17 19.4 C 20 %
3275 05-04-2020 18:51:17 18.9 C 20 %
Sensor: Nr:Datum:Temp:Feuchte:
Aussen-T/F 3276 05-04-2020 19:01:17 18.8 C 20 %
3277 05-04-2020 19:11:17 18.4 C 20 %
3278 05-04-2020 19:21:17 18 C 20 %
3279 05-04-2020 19:31:18 17.5 C 20 %
3280 05-04-2020 19:41:18 16.3 C 20 %
3281 05-04-2020 19:51:17 15 C 20 %
3282 05-04-2020 20:01:18 14.3 C 20 %
3283 05-04-2020 20:11:18 14.1 C 20 %
3284 05-04-2020 20:21:17 13.5 C 20 %
3285 05-04-2020 20:31:17 13.3 C 20 %
3286 05-04-2020 20:41:17 13 C 20 %
3287 05-04-2020 20:51:17 12.7 C 20 %
3288 05-04-2020 21:01:18 12.3 C 20 %
3289 05-04-2020 21:11:18 12 C 20 %
3290 05-04-2020 21:21:17 12.1 C 20 %
3291 05-04-2020 21:31:17 11.7 C 20 %
3292 05-04-2020 21:41:17 11.5 C 20 %
3293 05-04-2020 21:51:17 10.3 C 20 %
3294 05-04-2020 22:01:17 10.5 C 20 %
3295 05-04-2020 22:11:17 9.2 C 25 %
3296 05-04-2020 22:21:17 8.9 C 26 %
3297 05-04-2020 22:31:17 8.8 C 26 %
3298 05-04-2020 22:41:17 8.4 C 27 %
3299 05-04-2020 22:51:17 8.2 C 27 %
3300 05-04-2020 23:01:17 8 C 28 %
Sensor: Nr:Datum:Temp:Feuchte:
Aussen-T/F 3301 05-04-2020 23:11:17 7.4 C 30 %
3302 05-04-2020 23:21:17 7.4 C 29 %
3303 05-04-2020 23:31:17 7 C 30 %
3304 05-04-2020 23:41:17 6.7 C 31 %
3305 05-04-2020 23:51:17 6.3 C 31 %
3306 06-04-2020 00:01:17 6.2 C 32 %
3307 06-04-2020 00:11:17 6.3 C 32 %
3308 06-04-2020 00:21:17 6.3 C 32 %
3309 06-04-2020 00:31:18 6 C 32 %
3310 06-04-2020 00:41:18 5.6 C 33 %
3311 06-04-2020 00:51:17 5.6 C 34 %
3312 06-04-2020 01:01:18 5.4 C 35 %
3313 06-04-2020 01:11:18 5.3 C 35 %
3314 06-04-2020 01:21:17 5.1 C 35 %
3315 06-04-2020 01:31:17 4.8 C 36 %
3316 06-04-2020 01:41:17 4.7 C 36 %
3317 06-04-2020 01:51:17 4.6 C 36 %
3318 06-04-2020 02:01:17 4.5 C 37 %
3319 06-04-2020 02:11:17 4.1 C 37 %
3320 06-04-2020 02:21:17 4.2 C 37 %
3321 06-04-2020 02:31:17 4 C 37 %
3322 06-04-2020 02:41:17 4.1 C 37 %
3323 06-04-2020 02:51:17 3.8 C 38 %
3324 06-04-2020 03:01:17 3.9 C 39 %
3325 06-04-2020 03:11:17 3.6 C 39 %
Sensor: Nr:Datum:Temp:Feuchte:
Aussen-T/F 3326 06-04-2020 03:21:17 3.3 C 39 %
3327 06-04-2020 03:31:18 3.3 C 40 %
3328 06-04-2020 03:41:18 3.2 C 40 %
3329 06-04-2020 03:51:17 3.3 C 40 %
3330 06-04-2020 04:01:17 3.2 C 40 %
3331 06-04-2020 04:11:17 3.3 C 40 %
3332 06-04-2020 04:21:17 3.1 C 40 %
3333 06-04-2020 04:31:17 2.8 C 40 %
3334 06-04-2020 04:41:17 2.6 C 41 %
3335 06-04-2020 04:51:17 2.5 C 41 %
3336 06-04-2020 05:01:17 2.4 C 41 %
3337 06-04-2020 05:11:17 2.3 C 41 %
3338 06-04-2020 05:21:18 2.2 C 41 %
3339 06-04-2020 05:31:17 1.9 C 42 %
3340 06-04-2020 05:41:17 1.8 C 43 %
3341 06-04-2020 05:51:17 1.7 C 43 %
3342 06-04-2020 06:01:17 1.6 C 44 %
3343 06-04-2020 06:11:17 1.5 C 44 %
3344 06-04-2020 06:21:18 1.3 C 45 %
3345 06-04-2020 06:31:17 1.2 C 45 %
3346 06-04-2020 06:41:18 1.3 C 45 %
3347 06-04-2020 06:51:17 1.3 C 45 %
3348 06-04-2020 07:01:17 1.4 C 45 %
3349 06-04-2020 07:11:17 1.5 C 45 %
3350 06-04-2020 07:21:17 1.6 C 45 %
Sensor: Nr:Datum:Temp:Feuchte:
Aussen-T/F 3351 06-04-2020 07:31:18 1.5 C 45 %
3352 06-04-2020 07:41:18 1.6 C 45 %
3353 06-04-2020 07:51:17 2 C 45 %
3354 06-04-2020 08:01:17 1.9 C 45 %
3355 06-04-2020 08:11:17 2.2 C 44 %
3356 06-04-2020 08:21:17 2.5 C 44 %
3357 06-04-2020 08:31:17 3 C 42 %
3358 06-04-2020 08:41:17 3.2 C 42 %
3359 06-04-2020 08:51:17 3.4 C 41 %
3360 06-04-2020 09:01:18 3.5 C 41 %
3361 06-04-2020 09:11:18 3.4 C 41 %
3362 06-04-2020 09:21:17 3.9 C 41 %
3363 06-04-2020 09:31:17 4.3 C 40 %
3364 06-04-2020 09:41:17 4.8 C 40 %
3365 06-04-2020 09:51:18 5.2 C 40 %
3366 06-04-2020 10:01:18 6 C 38 %
3367 06-04-2020 10:11:18 6.5 C 37 %
3368 06-04-2020 10:21:17 7.2 C 36 %
3369 06-04-2020 10:31:17 7.9 C 36 %
3370 06-04-2020 10:41:17 8.8 C 35 %
3371 06-04-2020 10:51:17 9.8 C 34 %
3372 06-04-2020 11:01:17 11.1 C 31 %
3373 06-04-2020 11:11:18 12.2 C 29 %
3374 06-04-2020 11:21:17 13.3 C 26 %
3375 06-04-2020 11:31:17 16 C 20 %
Sensor: Nr:Datum:Temp:Feuchte:
Aussen-T/F 3376 06-04-2020 11:41:17 17.1 C 20 %
3377 06-04-2020 11:51:18 17.6 C 20 %
3378 06-04-2020 12:01:18 18.1 C 20 %
3379 06-04-2020 12:11:18 18.6 C 20 %
3380 06-04-2020 12:21:17 20.3 C 20 %
3381 06-04-2020 12:31:17 21 C 20 %
3382 06-04-2020 12:41:17 19.4 C 20 %
3383 06-04-2020 12:51:17 20.2 C 20 %
3384 06-04-2020 13:01:17 20.6 C 20 %
3385 06-04-2020 13:11:17 20.8 C 20 %
3386 06-04-2020 13:21:17 20.4 C 20 %
3387 06-04-2020 13:31:18 20.3 C 20 %
3388 06-04-2020 13:41:18 21.2 C 20 %
3389 06-04-2020 13:51:17 21.3 C 20 %
3390 06-04-2020 14:01:18 22.3 C 20 %
3391 06-04-2020 14:11:18 22.3 C 20 %
3392 06-04-2020 14:21:17 23.7 C 20 %
3393 06-04-2020 14:31:17 26.8 C 20 %
3394 06-04-2020 14:41:17 27.4 C 20 %
3395 06-04-2020 14:51:18 28.3 C 20 %
3396 06-04-2020 15:01:17 28 C 20 %
3397 06-04-2020 15:11:17 26.6 C 20 %
3398 06-04-2020 15:21:17 27.1 C 20 %
3399 06-04-2020 15:31:17 25.8 C 20 %
3400 06-04-2020 15:41:17 26.9 C 20 %
Sensor: Nr:Datum:Temp:Feuchte:
Aussen-T/F 3401 06-04-2020 15:51:17 27.9 C 20 %
3402 06-04-2020 16:01:17 29.7 C 20 %
3403 06-04-2020 16:11:17 27.4 C 20 %
3404 06-04-2020 16:21:18 27.4 C 20 %
3405 06-04-2020 16:31:18 28.3 C 20 %
3406 06-04-2020 16:41:18 28.5 C 20 %
3407 06-04-2020 16:51:17 27.1 C 20 %
3408 06-04-2020 17:01:17 27.6 C 20 %
3409 06-04-2020 17:11:17 26 C 20 %
3410 06-04-2020 17:21:17 26.7 C 20 %
3411 06-04-2020 17:31:17 25.7 C 20 %
3412 06-04-2020 17:41:17 25.5 C 20 %
3413 06-04-2020 17:51:17 24.2 C 20 %
3414 06-04-2020 18:01:17 23.3 C 20 %
3415 06-04-2020 18:11:17 23.1 C 20 %
3416 06-04-2020 18:21:17 22.6 C 20 %
3417 06-04-2020 18:31:18 22.6 C 20 %
3418 06-04-2020 18:41:18 22.3 C 20 %
3419 06-04-2020 18:51:17 22 C 20 %
3420 06-04-2020 19:01:17 21.7 C 20 %
3421 06-04-2020 19:11:17 21.1 C 20 %
3422 06-04-2020 19:21:17 20.5 C 20 %
3423 06-04-2020 19:31:17 20.2 C 20 %
3424 06-04-2020 19:41:17 19.1 C 20 %
3425 06-04-2020 19:51:17 18.3 C 20 %
Sensor: Nr:Datum:Temp:Feuchte:
Aussen-T/F 3426 06-04-2020 20:01:18 16.4 C 20 %
3427 06-04-2020 20:11:18 16.3 C 20 %
3428 06-04-2020 20:21:17 15.8 C 20 %
3429 06-04-2020 20:31:17 15.3 C 20 %
3430 06-04-2020 20:41:18 15.1 C 20 %
3431 06-04-2020 20:51:17 13.7 C 20 %
3432 06-04-2020 21:01:18 13.2 C 20 %
3433 06-04-2020 21:11:18 12.9 C 20 %
3434 06-04-2020 21:21:17 12 C 20 %
3435 06-04-2020 21:31:18 11.8 C 22 %
3436 06-04-2020 21:41:18 11.6 C 22 %
3437 06-04-2020 21:51:17 11.1 C 22 %
3438 06-04-2020 22:01:17 10.8 C 25 %
3439 06-04-2020 22:11:17 10.6 C 25 %
3440 06-04-2020 22:21:17 10.2 C 25 %
3441 06-04-2020 22:31:17 10 C 26 %
3442 06-04-2020 22:41:17 10 C 26 %
3443 06-04-2020 22:51:17 9.9 C 26 %
3444 06-04-2020 23:01:18 9.8 C 26 %
3445 06-04-2020 23:11:18 9.6 C 26 %
3446 06-04-2020 23:21:17 9.5 C 27 %
3447 06-04-2020 23:31:17 9.4 C 27 %
3448 06-04-2020 23:41:17 9.2 C 27 %
3449 06-04-2020 23:51:17 9.5 C 29 %
3450 07-04-2020 00:01:17 10.2 C 26 %
Sensor: Nr:Datum:Temp:Feuchte:
Aussen-T/F 3451 07-04-2020 00:11:17 9.1 C 29 %
3452 07-04-2020 00:21:18 8.7 C 30 %
3453 07-04-2020 00:31:17 8.8 C 30 %
3454 07-04-2020 00:41:17 9 C 30 %
3455 07-04-2020 00:51:17 8.6 C 30 %
3456 07-04-2020 01:01:17 8.7 C 30 %
3457 07-04-2020 01:11:17 9.1 C 30 %
3458 07-04-2020 01:21:17 9.4 C 30 %
3459 07-04-2020 01:31:17 9.8 C 30 %
3460 07-04-2020 01:41:17 10.1 C 30 %
3461 07-04-2020 01:51:18 10 C 29 %
3462 07-04-2020 02:01:18 9.2 C 30 %
3463 07-04-2020 02:11:18 8.8 C 31 %
3464 07-04-2020 02:21:17 8.2 C 33 %
3465 07-04-2020 02:31:17 7.9 C 34 %
3466 07-04-2020 02:41:17 7.5 C 34 %
3467 07-04-2020 02:51:17 7.2 C 35 %
3468 07-04-2020 03:01:17 7.3 C 35 %
3469 07-04-2020 03:11:17 7.6 C 35 %
3470 07-04-2020 03:21:17 7.9 C 35 %
3471 07-04-2020 03:31:17 8 C 35 %
3472 07-04-2020 03:41:17 7.7 C 36 %
3473 07-04-2020 03:51:17 7.8 C 35 %
3474 07-04-2020 04:01:17 7.8 C 36 %
3475 07-04-2020 04:11:17 7.6 C 36 %
Sensor: Nr:Datum:Temp:Feuchte:
Aussen-T/F 3476 07-04-2020 04:21:17 7.4 C 36 %
3477 07-04-2020 04:31:17 7.2 C 36 %
3478 07-04-2020 04:41:18 6.9 C 37 %
3479 07-04-2020 04:51:17 6.8 C 37 %
3480 07-04-2020 05:01:17 6.3 C 38 %
3481 07-04-2020 05:11:17 6.1 C 38 %
3482 07-04-2020 05:21:18 5.9 C 40 %
3483 07-04-2020 05:31:17 5.8 C 40 %
3484 07-04-2020 05:41:17 5.7 C 40 %
3485 07-04-2020 05:51:17 5.6 C 41 %
3486 07-04-2020 06:01:17 5.6 C 41 %
3487 07-04-2020 06:11:17 5.2 C 40 %
3488 07-04-2020 06:21:17 5.3 C 41 %
3489 07-04-2020 06:31:17 5.2 C 41 %
3490 07-04-2020 06:41:17 5 C 41 %
3491 07-04-2020 06:51:17 4.8 C 42 %
3492 07-04-2020 07:01:18 4.8 C 43 %
3493 07-04-2020 07:11:18 4.7 C 43 %
3494 07-04-2020 07:21:18 4.8 C 44 %
3495 07-04-2020 07:31:17 5 C 43 %
3496 07-04-2020 07:41:18 5.7 C 43 %
3497 07-04-2020 07:51:17 5.8 C 42 %
3498 07-04-2020 08:01:17 5.7 C 41 %
3499 07-04-2020 08:11:18 5.8 C 41 %
3500 07-04-2020 08:21:17 6 C 41 %
Sensor: Nr:Datum:Temp:Feuchte:
Aussen-T/F 3501 07-04-2020 08:31:17 6 C 41 %
3502 07-04-2020 08:41:17 6.3 C 41 %
3503 07-04-2020 08:51:17 6.6 C 41 %
3504 07-04-2020 09:01:17 7.1 C 40 %
3505 07-04-2020 09:11:17 7.3 C 40 %
3506 07-04-2020 09:21:17 7.5 C 40 %
3507 07-04-2020 09:31:17 8 C 39 %
3508 07-04-2020 09:41:18 8.9 C 39 %
3509 07-04-2020 09:51:17 9.3 C 37 %
3510 07-04-2020 10:01:17 9.4 C 38 %
3511 07-04-2020 10:11:18 10 C 37 %
3512 07-04-2020 10:21:17 10.7 C 37 %
3513 07-04-2020 10:31:18 11.4 C 36 %
3514 07-04-2020 10:41:18 12.3 C 35 %
3515 07-04-2020 10:51:17 13.1 C 33 %
3516 07-04-2020 11:01:17 14 C 31 %
3517 07-04-2020 11:11:17 14.6 C 31 %
3518 07-04-2020 11:21:17 15.2 C 30 %
3519 07-04-2020 11:31:17 16 C 28 %
3520 07-04-2020 11:41:17 16.5 C 27 %
3521 07-04-2020 11:51:17 16.9 C 27 %
3522 07-04-2020 12:01:17 17.2 C 26 %
3523 07-04-2020 12:11:17 17.7 C 25 %
3524 07-04-2020 12:21:18 18.7 C 23 %
3525 07-04-2020 12:31:17 20.9 C 21 %
Sensor: Nr:Datum:Temp:Feuchte:
Aussen-T/F 3526 07-04-2020 12:41:17 19.6 C 20 %
3527 07-04-2020 12:51:18 19.6 C 20 %
3528 07-04-2020 13:01:17 20.7 C 20 %
3529 07-04-2020 13:11:17 21.3 C 20 %
3530 07-04-2020 13:21:17 20.8 C 20 %
3531 07-04-2020 13:31:17 19.8 C 20 %
3532 07-04-2020 13:41:17 20.4 C 20 %
3533 07-04-2020 13:51:18 20.6 C 20 %
3534 07-04-2020 14:01:17 21.1 C 20 %
3535 07-04-2020 14:11:17 22 C 20 %
3536 07-04-2020 14:21:17 23.6 C 20 %
3537 07-04-2020 14:31:17 26.2 C 20 %
3538 07-04-2020 14:41:17 22.9 C 20 %
3539 07-04-2020 14:51:17 26.7 C 20 %
3540 07-04-2020 15:01:17 26.4 C 20 %
3541 07-04-2020 15:11:17 27.1 C 20 %
3542 07-04-2020 15:21:17 30.1 C 20 %
3543 07-04-2020 15:31:17 28.4 C 20 %
3544 07-04-2020 15:41:18 27.2 C 20 %
3545 07-04-2020 15:51:17 26.6 C 20 %
3546 07-04-2020 16:01:17 27.4 C 20 %
3547 07-04-2020 16:11:17 25.1 C 20 %
3548 07-04-2020 16:21:17 27.8 C 20 %
3549 07-04-2020 16:31:17 23.9 C 20 %
3550 07-04-2020 16:41:18 24.3 C 20 %
Sensor: Nr:Datum:Temp:Feuchte:
Aussen-T/F 3551 07-04-2020 16:51:18 29.2 C 20 %
3552 07-04-2020 17:01:17 31 C 20 %
3553 07-04-2020 17:11:17 25 C 20 %
3554 07-04-2020 17:21:17 24.2 C 20 %
3555 07-04-2020 17:31:18 24.2 C 20 %
3556 07-04-2020 17:41:18 26.9 C 20 %
3557 07-04-2020 17:51:18 24.6 C 20 %
3558 07-04-2020 18:01:17 23.7 C 20 %
3559 07-04-2020 18:11:17 23.7 C 20 %
3560 07-04-2020 18:21:17 22.9 C 20 %
3561 07-04-2020 18:31:17 22.7 C 20 %
3562 07-04-2020 18:41:17 22.3 C 20 %
3563 07-04-2020 18:51:17 22 C 20 %
3564 07-04-2020 19:01:17 21.8 C 20 %
3565 07-04-2020 19:11:18 21 C 20 %
3566 07-04-2020 19:21:17 20 C 20 %
3567 07-04-2020 19:31:17 19.1 C 20 %
3568 07-04-2020 19:41:17 18.4 C 20 %
3569 07-04-2020 19:51:17 18.3 C 20 %
3570 07-04-2020 20:01:18 17.6 C 20 %
3571 07-04-2020 20:11:18 17.3 C 20 %
3572 07-04-2020 20:21:17 17.1 C 20 %
3573 07-04-2020 20:31:17 16.8 C 20 %
3574 07-04-2020 20:41:17 16.5 C 20 %
3575 07-04-2020 20:51:17 16.3 C 20 %
Sensor: Nr:Datum:Temp:Feuchte:
Aussen-T/F 3576 07-04-2020 21:01:17 16.1 C 20 %
3577 07-04-2020 21:11:17 15.9 C 20 %
3578 07-04-2020 21:21:18 15.8 C 20 %
3579 07-04-2020 21:31:17 15.4 C 21 %
3580 07-04-2020 21:41:17 15.2 C 21 %
3581 07-04-2020 21:51:17 15.1 C 22 %
3582 07-04-2020 22:01:18 14.6 C 25 %
3583 07-04-2020 22:11:18 13.1 C 27 %
3584 07-04-2020 22:21:17 12.9 C 29 %
3585 07-04-2020 22:31:17 12.7 C 30 %
3586 07-04-2020 22:41:17 12.7 C 30 %
3587 07-04-2020 22:51:18 12.7 C 30 %
3588 07-04-2020 23:01:18 12.7 C 30 %
3589 07-04-2020 23:11:18 12.6 C 30 %
3590 07-04-2020 23:21:17 13.1 C 29 %
3591 07-04-2020 23:31:17 12.8 C 30 %
3592 07-04-2020 23:41:17 12.8 C 30 %
3593 07-04-2020 23:51:17 12.3 C 31 %
3594 08-04-2020 00:01:17 11.7 C 33 %
3595 08-04-2020 00:11:17 11.7 C 33 %
3596 08-04-2020 00:21:17 11.5 C 33 %
3597 08-04-2020 00:31:17 11.5 C 33 %
3598 08-04-2020 00:41:17 11.2 C 34 %
3599 08-04-2020 00:51:18 10.8 C 35 %
3600 08-04-2020 01:01:17 10.8 C 36 %
Sensor: Nr:Datum:Temp:Feuchte:
Aussen-T/F 3601 08-04-2020 01:11:17 10.9 C 35 %
3602 08-04-2020 01:21:17 10.4 C 36 %
3603 08-04-2020 01:31:18 10.2 C 36 %
3604 08-04-2020 01:41:18 9.9 C 37 %
3605 08-04-2020 01:51:17 9.6 C 38 %
3606 08-04-2020 02:01:18 9.2 C 38 %
3607 08-04-2020 02:11:18 8.7 C 39 %
3608 08-04-2020 02:21:17 8.5 C 40 %
3609 08-04-2020 02:31:17 8.2 C 40 %
3610 08-04-2020 02:41:18 8 C 40 %
3611 08-04-2020 02:51:17 7.7 C 41 %
3612 08-04-2020 03:01:18 7.4 C 41 %
3613 08-04-2020 03:11:18 7.1 C 41 %
3614 08-04-2020 03:21:17 7.1 C 42 %
3615 08-04-2020 03:31:17 7.1 C 42 %
3616 08-04-2020 03:41:17 6.8 C 43 %
3617 08-04-2020 03:51:17 6.7 C 43 %
3618 08-04-2020 04:01:17 6.6 C 44 %
3619 08-04-2020 04:11:18 6.7 C 44 %
3620 08-04-2020 04:21:17 6.3 C 44 %
3621 08-04-2020 04:31:17 6.3 C 45 %
3622 08-04-2020 04:41:17 6.4 C 45 %
3623 08-04-2020 04:51:17 6.3 C 45 %
3624 08-04-2020 05:01:18 6.1 C 44 %
3625 08-04-2020 05:11:18 5.9 C 45 %
Sensor: Nr:Datum:Temp:Feuchte:
Aussen-T/F 3626 08-04-2020 05:21:17 5.6 C 45 %
3627 08-04-2020 05:31:17 5.4 C 45 %
3628 08-04-2020 05:41:18 5.4 C 45 %
3629 08-04-2020 05:51:17 5.4 C 46 %
3630 08-04-2020 06:01:17 5.3 C 46 %
3631 08-04-2020 06:11:17 5.4 C 46 %
3632 08-04-2020 06:21:17 5.3 C 46 %
3633 08-04-2020 06:31:17 5.3 C 46 %
3634 08-04-2020 06:41:17 5.1 C 46 %
3635 08-04-2020 06:51:18 5 C 46 %
3636 08-04-2020 07:01:18 5 C 46 %
3637 08-04-2020 07:11:18 5.1 C 46 %
3638 08-04-2020 07:21:17 5.2 C 46 %
3639 08-04-2020 07:31:17 5.3 C 46 %
3640 08-04-2020 07:41:17 5.4 C 46 %
3641 08-04-2020 07:51:17 5.8 C 46 %
3642 08-04-2020 08:01:17 5.7 C 46 %
3643 08-04-2020 08:11:17 6 C 46 %
3644 08-04-2020 08:21:17 6.3 C 46 %
3645 08-04-2020 08:31:18 6.3 C 46 %
3646 08-04-2020 08:41:18 6.5 C 46 %
3647 08-04-2020 08:51:18 6.7 C 46 %
3648 08-04-2020 09:01:18 7 C 45 %
3649 08-04-2020 09:11:18 7.1 C 45 %
3650 08-04-2020 09:21:17 7.6 C 45 %
Sensor: Nr:Datum:Temp:Feuchte:
Aussen-T/F 3651 08-04-2020 09:31:17 7.9 C 45 %
3652 08-04-2020 09:41:17 8.3 C 45 %
3653 08-04-2020 09:51:17 8.7 C 44 %
3654 08-04-2020 10:01:17 9.1 C 43 %
3655 08-04-2020 10:11:17 9.7 C 43 %
3656 08-04-2020 10:21:17 10.2 C 41 %
3657 08-04-2020 10:31:18 11 C 40 %
3658 08-04-2020 10:41:18 11.8 C 39 %
3659 08-04-2020 10:51:18 12.6 C 38 %
3660 08-04-2020 11:01:18 13.7 C 36 %
3661 08-04-2020 11:11:18 14.5 C 35 %
3662 08-04-2020 11:21:17 15.5 C 34 %
3663 08-04-2020 11:31:18 16.2 C 32 %
3664 08-04-2020 11:41:18 17.6 C 27 %
3665 08-04-2020 11:51:17 18.6 C 25 %
3666 08-04-2020 12:01:18 19.2 C 22 %
3667 08-04-2020 12:11:18 20.1 C 21 %
3668 08-04-2020 12:21:17 21.2 C 20 %
3669 08-04-2020 12:31:17 22.4 C 20 %
3670 08-04-2020 12:41:17 22.9 C 20 %
3671 08-04-2020 12:51:17 21.8 C 20 %
3672 08-04-2020 13:01:18 22.9 C 20 %
3673 08-04-2020 13:11:18 22.4 C 20 %
3674 08-04-2020 13:21:17 22.1 C 20 %
3675 08-04-2020 13:31:18 22.3 C 20 %
Sensor: Nr:Datum:Temp:Feuchte:
Aussen-T/F 3676 08-04-2020 13:41:18 23.3 C 20 %
3677 08-04-2020 13:51:17 22.6 C 20 %
3678 08-04-2020 14:01:18 23 C 20 %
3679 08-04-2020 14:11:18 23.7 C 20 %
3680 08-04-2020 14:21:17 24.8 C 20 %
3681 08-04-2020 14:31:18 28.3 C 20 %
3682 08-04-2020 14:41:18 28.9 C 20 %
3683 08-04-2020 14:51:17 28.7 C 20 %
3684 08-04-2020 15:01:17 28.7 C 20 %
3685 08-04-2020 15:11:17 30.1 C 20 %
3686 08-04-2020 15:21:18 29.3 C 20 %
3687 08-04-2020 15:31:17 29.5 C 20 %
3688 08-04-2020 15:41:17 29.1 C 20 %
3689 08-04-2020 15:51:17 32.2 C 20 %
3690 08-04-2020 16:01:17 31.1 C 20 %
3691 08-04-2020 16:11:17 29.7 C 20 %
3692 08-04-2020 16:21:18 30.7 C 20 %
3693 08-04-2020 16:31:17 29 C 20 %
3694 08-04-2020 16:41:17 32.6 C 20 %
3695 08-04-2020 16:51:17 29.7 C 20 %
3696 08-04-2020 17:01:17 29.4 C 20 %
3697 08-04-2020 17:11:17 29.7 C 20 %
3698 08-04-2020 17:21:17 30.1 C 20 %
3699 08-04-2020 17:31:17 30.1 C 20 %
3700 08-04-2020 17:41:17 29 C 20 %
Sensor: Nr:Datum:Temp:Feuchte:
Aussen-T/F 3701 08-04-2020 17:51:17 28.1 C 20 %
3702 08-04-2020 18:01:17 26.6 C 20 %
3703 08-04-2020 18:11:17 25.2 C 20 %
3704 08-04-2020 18:21:17 24.7 C 20 %
3705 08-04-2020 18:31:18 24.3 C 20 %
3706 08-04-2020 18:41:18 24.1 C 20 %
3707 08-04-2020 18:51:17 23.8 C 20 %
3708 08-04-2020 19:01:17 23.2 C 20 %
3709 08-04-2020 19:11:17 22.6 C 20 %
3710 08-04-2020 19:21:17 21.4 C 20 %
3711 08-04-2020 19:31:17 20.1 C 20 %
3712 08-04-2020 19:41:17 19.7 C 20 %
3713 08-04-2020 19:51:17 19.2 C 20 %
3714 08-04-2020 20:01:17 18.5 C 20 %
3715 08-04-2020 20:11:17 18 C 20 %
3716 08-04-2020 20:21:18 17.5 C 20 %
3717 08-04-2020 20:31:17 17 C 20 %
3718 08-04-2020 20:41:18 16.2 C 20 %
3719 08-04-2020 20:51:17 15.6 C 20 %
3720 08-04-2020 21:01:18 14.6 C 20 %
3721 08-04-2020 21:11:18 13.9 C 20 %
3722 08-04-2020 21:21:17 14.2 C 20 %
3723 08-04-2020 21:31:17 13.7 C 20 %
3724 08-04-2020 21:41:17 13.5 C 20 %
3725 08-04-2020 21:51:17 13.4 C 20 %
Sensor: Nr:Datum:Temp:Feuchte:
Aussen-T/F 3726 08-04-2020 22:01:17 12.9 C 21 %
3727 08-04-2020 22:11:18 12.7 C 21 %
3728 08-04-2020 22:21:17 12.5 C 24 %
3729 08-04-2020 22:31:17 12.2 C 25 %
3730 08-04-2020 22:41:17 11.8 C 26 %
3731 08-04-2020 22:51:18 11.6 C 26 %
3732 08-04-2020 23:01:17 12 C 25 %
3733 08-04-2020 23:11:17 11.5 C 26 %
3734 08-04-2020 23:21:17 10.9 C 28 %
3735 08-04-2020 23:31:17 10.5 C 29 %
3736 08-04-2020 23:41:17 10.7 C 28 %
3737 08-04-2020 23:51:17 11.2 C 28 %
3738 09-04-2020 00:01:18 10.7 C 29 %
3739 09-04-2020 00:11:18 10.7 C 29 %
3740 09-04-2020 00:21:17 10.3 C 30 %
3741 09-04-2020 00:31:18 10 C 30 %
3742 09-04-2020 00:41:18 10.5 C 30 %
3743 09-04-2020 00:51:17 10.5 C 30 %
3744 09-04-2020 01:01:17 10 C 30 %
3745 09-04-2020 01:11:17 9.6 C 31 %
3746 09-04-2020 01:21:17 9.2 C 32 %
3747 09-04-2020 01:31:17 9.9 C 33 %
3748 09-04-2020 01:41:17 9.3 C 33 %
3749 09-04-2020 01:51:17 9.6 C 33 %
3750 09-04-2020 02:01:17 8.8 C 35 %
Sensor: Nr:Datum:Temp:Feuchte:
Aussen-T/F 3751 09-04-2020 02:11:17 9.1 C 34 %
3752 09-04-2020 02:21:18 9 C 34 %
3753 09-04-2020 02:31:18 8.8 C 35 %
3754 09-04-2020 02:41:18 8.7 C 35 %
3755 09-04-2020 02:51:17 8.8 C 35 %
3756 09-04-2020 03:01:17 9.2 C 34 %
3757 09-04-2020 03:11:17 9.7 C 33 %
3758 09-04-2020 03:21:17 9.5 C 33 %
3759 09-04-2020 03:31:17 9.4 C 34 %
3760 09-04-2020 03:41:17 9.5 C 34 %
3761 09-04-2020 03:51:17 10.2 C 32 %
3762 09-04-2020 04:01:17 9.9 C 34 %
3763 09-04-2020 04:11:17 10.1 C 33 %
3764 09-04-2020 04:21:17 10 C 33 %
3765 09-04-2020 04:31:18 9.4 C 34 %
3766 09-04-2020 04:41:18 9.3 C 35 %
3767 09-04-2020 04:51:17 8.9 C 35 %
3768 09-04-2020 05:01:17 8.7 C 36 %
3769 09-04-2020 05:11:17 8.6 C 35 %
3770 09-04-2020 05:21:17 8.5 C 36 %
3771 09-04-2020 05:31:18 8.2 C 36 %
3772 09-04-2020 05:41:18 8.1 C 36 %
3773 09-04-2020 05:51:17 8.1 C 37 %
3774 09-04-2020 06:01:18 8.1 C 37 %
3775 09-04-2020 06:11:18 7.7 C 38 %
Sensor: Nr:Datum:Temp:Feuchte:
Aussen-T/F 3776 09-04-2020 06:21:17 7.1 C 38 %
3777 09-04-2020 06:31:17 7 C 38 %
3778 09-04-2020 06:41:17 6.6 C 39 %
3779 09-04-2020 06:51:17 6.8 C 40 %
3780 09-04-2020 07:01:17 6.9 C 40 %
3781 09-04-2020 07:11:17 7.3 C 39 %
3782 09-04-2020 07:21:17 7.3 C 39 %
3783 09-04-2020 07:31:17 7 C 39 %
3784 09-04-2020 07:41:17 6.9 C 40 %
3785 09-04-2020 07:51:17 7 C 40 %
3786 09-04-2020 08:01:17 7 C 40 %
3787 09-04-2020 08:11:17 7.3 C 40 %
3788 09-04-2020 08:21:18 7.4 C 40 %
3789 09-04-2020 08:31:17 7.6 C 40 %
3790 09-04-2020 08:41:17 8 C 39 %
3791 09-04-2020 08:51:17 8.3 C 39 %
3792 09-04-2020 09:01:17 8.5 C 38 %
3793 09-04-2020 09:11:17 8.7 C 39 %
3794 09-04-2020 09:21:17 9 C 38 %
3795 09-04-2020 09:31:17 9.3 C 38 %
3796 09-04-2020 09:41:17 9.8 C 37 %
3797 09-04-2020 09:51:17 10.4 C 36 %
3798 09-04-2020 10:01:17 10.8 C 36 %
3799 09-04-2020 10:11:17 11.2 C 35 %
3800 09-04-2020 10:21:17 11.8 C 35 %
Sensor: Nr:Datum:Temp:Feuchte:
Aussen-T/F 3801 09-04-2020 10:31:17 12.6 C 34 %
3802 09-04-2020 10:41:17 13.3 C 32 %
3803 09-04-2020 10:51:18 14.6 C 31 %
3804 09-04-2020 11:01:17 15.4 C 30 %
3805 09-04-2020 11:11:18 16.2 C 28 %
3806 09-04-2020 11:21:17 17 C 25 %
3807 09-04-2020 11:31:17 17.9 C 23 %
3808 09-04-2020 11:41:17 18.5 C 21 %
3809 09-04-2020 11:51:18 19 C 20 %
3810 09-04-2020 12:01:17 19.3 C 20 %
3811 09-04-2020 12:11:17 19.8 C 20 %
3812 09-04-2020 12:21:17 20.7 C 20 %
3813 09-04-2020 12:31:17 22 C 20 %
3814 09-04-2020 12:41:17 23 C 20 %
3815 09-04-2020 12:51:18 22.3 C 20 %
3816 09-04-2020 13:01:17 23.2 C 20 %
3817 09-04-2020 13:11:17 23.3 C 20 %
3818 09-04-2020 13:21:17 22.9 C 20 %
3819 09-04-2020 13:31:17 22.4 C 20 %
3820 09-04-2020 13:41:18 22.6 C 20 %
3821 09-04-2020 13:51:17 22.8 C 20 %
3822 09-04-2020 14:01:17 24.1 C 20 %
3823 09-04-2020 14:11:17 23.8 C 20 %
3824 09-04-2020 14:21:17 24.3 C 20 %
3825 09-04-2020 14:31:17 26.8 C 20 %
Sensor: Nr:Datum:Temp:Feuchte:
Aussen-T/F 3826 09-04-2020 14:41:17 28 C 20 %
3827 09-04-2020 14:51:17 29.2 C 20 %
3828 09-04-2020 15:01:17 28.6 C 20 %
3829 09-04-2020 15:11:17 31.7 C 20 %
3830 09-04-2020 15:21:17 28.2 C 20 %
3831 09-04-2020 15:31:18 28.7 C 20 %
3832 09-04-2020 15:41:18 28.4 C 20 %
3833 09-04-2020 15:51:17 30.1 C 20 %
3834 09-04-2020 16:01:18 29.2 C 20 %
3835 09-04-2020 16:11:18 29.3 C 20 %
3836 09-04-2020 16:21:17 31.4 C 20 %
3837 09-04-2020 16:31:17 28.8 C 20 %
3838 09-04-2020 16:41:17 28.8 C 20 %
3839 09-04-2020 16:51:17 29.2 C 20 %
3840 09-04-2020 17:01:17 28.7 C 20 %
3841 09-04-2020 17:11:17 28.4 C 20 %
3842 09-04-2020 17:21:17 29.8 C 20 %
3843 09-04-2020 17:31:17 28 C 20 %
3844 09-04-2020 17:41:17 27.6 C 20 %
3845 09-04-2020 17:51:18 27.1 C 20 %
3846 09-04-2020 18:01:18 25.2 C 20 %
3847 09-04-2020 18:11:18 24 C 20 %
3848 09-04-2020 18:21:17 23.7 C 20 %
3849 09-04-2020 18:31:17 23.4 C 20 %
3850 09-04-2020 18:41:17 23.5 C 20 %
Sensor: Nr:Datum:Temp:Feuchte:
Aussen-T/F 3851 09-04-2020 18:51:17 22.9 C 20 %
3852 09-04-2020 19:01:18 22.7 C 20 %
3853 09-04-2020 19:11:18 22.4 C 20 %
3854 09-04-2020 19:21:17 21.8 C 20 %
3855 09-04-2020 19:31:17 21.1 C 20 %
3856 09-04-2020 19:41:17 20.6 C 20 %
3857 09-04-2020 19:51:17 20.1 C 20 %
3858 09-04-2020 20:01:17 19.7 C 20 %
3859 09-04-2020 20:11:17 17.9 C 20 %
3860 09-04-2020 20:21:17 16.6 C 20 %
3861 09-04-2020 20:31:17 16.6 C 20 %
3862 09-04-2020 20:41:17 16.1 C 21 %
3863 09-04-2020 20:51:17 16.4 C 20 %
3864 09-04-2020 21:01:17 16.2 C 20 %
3865 09-04-2020 21:11:17 16.4 C 20 %
3866 09-04-2020 21:21:17 16.5 C 20 %
3867 09-04-2020 21:31:17 15.9 C 21 %
3868 09-04-2020 21:41:17 15.4 C 22 %
3869 09-04-2020 21:51:17 15.5 C 22 %
3870 09-04-2020 22:01:17 15.5 C 22 %
3871 09-04-2020 22:11:17 15.2 C 22 %
3872 09-04-2020 22:21:17 15.1 C 22 %
3873 09-04-2020 22:31:18 14.8 C 24 %
3874 09-04-2020 22:41:18 14.6 C 25 %
3875 09-04-2020 22:51:17 14.3 C 25 %
Sensor: Nr:Datum:Temp:Feuchte:
Aussen-T/F 3876 09-04-2020 23:01:18 14.2 C 25 %
3877 09-04-2020 23:11:18 14.2 C 25 %
3878 09-04-2020 23:21:17 13.6 C 26 %
3879 09-04-2020 23:31:17 13.8 C 26 %
3880 09-04-2020 23:41:18 13.7 C 26 %
3881 09-04-2020 23:51:17 12.7 C 28 %
3882 10-04-2020 00:01:17 12.7 C 29 %
3883 10-04-2020 00:11:17 11.7 C 31 %
3884 10-04-2020 00:21:18 11.8 C 31 %
3885 10-04-2020 00:31:18 11.1 C 32 %
3886 10-04-2020 00:41:18 10.7 C 34 %
3887 10-04-2020 00:51:17 10.5 C 34 %
3888 10-04-2020 01:01:17 10.1 C 35 %
3889 10-04-2020 01:11:17 10 C 35 %
3890 10-04-2020 01:21:17 9.7 C 36 %
3891 10-04-2020 01:31:17 9.6 C 36 %
3892 10-04-2020 01:41:17 9.5 C 36 %
3893 10-04-2020 01:51:17 9 C 36 %
3894 10-04-2020 02:01:17 9.2 C 36 %
3895 10-04-2020 02:11:17 8.9 C 37 %
3896 10-04-2020 02:21:18 8.7 C 37 %
3897 10-04-2020 02:31:18 8.6 C 37 %
3898 10-04-2020 02:41:18 8.3 C 38 %
3899 10-04-2020 02:51:17 8.2 C 38 %
3900 10-04-2020 03:01:18 8.3 C 38 %
Sensor: Nr:Datum:Temp:Feuchte:
Aussen-T/F 3901 10-04-2020 03:11:18 7.9 C 39 %
3902 10-04-2020 03:21:17 7.6 C 39 %
3903 10-04-2020 03:31:17 7.4 C 40 %
3904 10-04-2020 03:41:17 7.2 C 40 %
3905 10-04-2020 03:51:17 7.1 C 40 %
3906 10-04-2020 04:01:18 7 C 40 %
3907 10-04-2020 04:11:18 6.8 C 41 %
3908 10-04-2020 04:21:17 6.9 C 41 %
3909 10-04-2020 04:31:17 6.6 C 41 %
3910 10-04-2020 04:41:17 6.6 C 41 %
3911 10-04-2020 04:51:18 6.6 C 41 %
3912 10-04-2020 05:01:17 6.3 C 41 %
3913 10-04-2020 05:11:17 6.3 C 42 %
3914 10-04-2020 05:21:18 6.4 C 42 %
3915 10-04-2020 05:31:17 6.2 C 42 %
3916 10-04-2020 05:41:17 5.9 C 43 %
3917 10-04-2020 05:51:17 5.7 C 43 %
3918 10-04-2020 06:01:17 5.8 C 44 %
3919 10-04-2020 06:11:17 5.8 C 44 %
3920 10-04-2020 06:21:17 5.6 C 44 %
3921 10-04-2020 06:31:18 5.4 C 44 %
3922 10-04-2020 06:41:18 5.4 C 44 %
3923 10-04-2020 06:51:17 5.4 C 44 %
3924 10-04-2020 07:01:18 5.3 C 44 %
3925 10-04-2020 07:11:18 5.3 C 45 %
Sensor: Nr:Datum:Temp:Feuchte:
Aussen-T/F 3926 10-04-2020 07:21:17 5.3 C 45 %
3927 10-04-2020 07:31:18 5.3 C 45 %
3928 10-04-2020 07:41:18 5.3 C 45 %
3929 10-04-2020 07:51:17 5.9 C 46 %
3930 10-04-2020 08:01:17 5.8 C 45 %
3931 10-04-2020 08:11:17 5.8 C 45 %
3932 10-04-2020 08:21:17 6 C 44 %
3933 10-04-2020 08:31:17 6.1 C 45 %
3934 10-04-2020 08:41:17 6.2 C 44 %
3935 10-04-2020 08:51:17 6.5 C 45 %
3936 10-04-2020 09:01:17 6.9 C 45 %
3937 10-04-2020 09:11:17 7.8 C 42 %
3938 10-04-2020 09:21:18 8.2 C 41 %
3939 10-04-2020 09:31:18 8.5 C 40 %
3940 10-04-2020 09:41:18 9.1 C 39 %
3941 10-04-2020 09:51:17 9.4 C 39 %
3942 10-04-2020 10:01:17 9.9 C 38 %
3943 10-04-2020 10:11:17 10.2 C 37 %
3944 10-04-2020 10:21:17 10.8 C 37 %
3945 10-04-2020 10:31:17 11.6 C 36 %
3946 10-04-2020 10:41:17 12.3 C 35 %
3947 10-04-2020 10:51:17 13.4 C 33 %
3948 10-04-2020 11:01:17 14 C 31 %
3949 10-04-2020 11:11:17 14.7 C 31 %
3950 10-04-2020 11:21:17 15.9 C 28 %
Sensor: Nr:Datum:Temp:Feuchte:
Aussen-T/F 3951 10-04-2020 11:31:17 16.3 C 27 %
3952 10-04-2020 11:41:17 16.8 C 26 %
3953 10-04-2020 11:51:17 17.5 C 25 %
3954 10-04-2020 12:01:17 17.9 C 24 %
3955 10-04-2020 12:11:17 18.4 C 21 %
3956 10-04-2020 12:21:17 19.2 C 20 %
3957 10-04-2020 12:31:17 19.7 C 20 %
3958 10-04-2020 12:41:17 20.6 C 20 %
3959 10-04-2020 12:51:17 20.4 C 20 %
3960 10-04-2020 13:01:17 20.8 C 20 %
3961 10-04-2020 13:11:17 20.2 C 20 %
3962 10-04-2020 13:21:17 20.4 C 20 %
3963 10-04-2020 13:31:17 20.2 C 20 %
3964 10-04-2020 13:41:17 20.4 C 20 %
3965 10-04-2020 13:51:17 20.7 C 20 %
3966 10-04-2020 14:01:17 21.7 C 20 %
3967 10-04-2020 14:11:17 21.6 C 20 %
3968 10-04-2020 14:21:18 22 C 20 %
3969 10-04-2020 14:31:18 25.1 C 20 %
3970 10-04-2020 14:41:18 29.1 C 20 %
3971 10-04-2020 14:51:17 27.6 C 20 %
3972 10-04-2020 15:01:17 27.9 C 20 %
3973 10-04-2020 15:11:17 31.6 C 20 %
3974 10-04-2020 15:21:17 30.1 C 20 %
3975 10-04-2020 15:31:17 30.5 C 20 %
Sensor: Nr:Datum:Temp:Feuchte:
Aussen-T/F 3976 10-04-2020 15:41:17 30.2 C 20 %
3977 10-04-2020 15:51:17 29.1 C 20 %
3978 10-04-2020 16:01:17 29.8 C 20 %
3979 10-04-2020 16:11:17 30.3 C 20 %
3980 10-04-2020 16:21:17 28.8 C 20 %
3981 10-04-2020 16:31:17 29.1 C 20 %
3982 10-04-2020 16:41:17 28.3 C 20 %
3983 10-04-2020 16:51:17 30.8 C 20 %
3984 10-04-2020 17:01:17 29.6 C 20 %
3985 10-04-2020 17:11:17 28.8 C 20 %
3986 10-04-2020 17:21:17 26.8 C 20 %
3987 10-04-2020 17:31:17 28.5 C 20 %
3988 10-04-2020 17:41:17 27.6 C 20 %
3989 10-04-2020 17:51:18 26.4 C 20 %
3990 10-04-2020 18:01:17 23.6 C 20 %
3991 10-04-2020 18:11:17 23 C 20 %
3992 10-04-2020 18:21:18 22.5 C 20 %
3993 10-04-2020 18:31:18 22.2 C 20 %
3994 10-04-2020 18:41:18 22.3 C 20 %
3995 10-04-2020 18:51:17 22 C 20 %
3996 10-04-2020 19:01:17 21.6 C 20 %
3997 10-04-2020 19:11:17 21.4 C 20 %
3998 10-04-2020 19:21:17 21.1 C 20 %
3999 10-04-2020 19:31:17 20.9 C 20 %
4000 10-04-2020 19:41:17 20.7 C 20 %
Sensor: Nr:Datum:Temp:Feuchte:
Aussen-T/F 4001 10-04-2020 19:51:18 20.2 C 20 %
4002 10-04-2020 20:01:17 19.6 C 20 %
4003 10-04-2020 20:11:17 18.5 C 20 %
4004 10-04-2020 20:21:18 16 C 20 %
4005 10-04-2020 20:31:17 15.9 C 20 %
4006 10-04-2020 20:41:17 15.3 C 20 %
4007 10-04-2020 20:51:17 15 C 20 %
4008 10-04-2020 21:01:17 15.3 C 20 %
4009 10-04-2020 21:11:17 14.7 C 20 %
4010 10-04-2020 21:21:17 14.3 C 21 %
4011 10-04-2020 21:31:17 13.8 C 21 %
4012 10-04-2020 21:41:17 14.2 C 21 %
4013 10-04-2020 21:51:17 14.3 C 21 %
4014 10-04-2020 22:01:18 14.5 C 21 %
4015 10-04-2020 22:11:18 14.9 C 20 %
4016 10-04-2020 22:21:18 14.5 C 22 %
4017 10-04-2020 22:31:17 14.5 C 22 %
4018 10-04-2020 22:41:17 13.9 C 24 %
4019 10-04-2020 22:51:17 13.1 C 25 %
4020 10-04-2020 23:01:17 12.7 C 25 %
4021 10-04-2020 23:11:17 12.8 C 25 %
4022 10-04-2020 23:21:17 12 C 26 %
4023 10-04-2020 23:31:17 12.2 C 26 %
4024 10-04-2020 23:41:17 11.2 C 28 %
4025 10-04-2020 23:51:17 11.1 C 29 %
Sensor: Nr:Datum:Temp:Feuchte:
Aussen-T/F 4026 11-04-2020 00:01:18 10.5 C 30 %
4027 11-04-2020 00:11:18 10.8 C 30 %
4028 11-04-2020 00:21:17 10.8 C 30 %
4029 11-04-2020 00:31:17 10.1 C 31 %
4030 11-04-2020 00:41:18 9.9 C 32 %
4031 11-04-2020 00:51:18 10 C 31 %
4032 11-04-2020 01:01:17 9.6 C 31 %
4033 11-04-2020 01:11:17 9.6 C 32 %
4034 11-04-2020 01:21:17 9.1 C 32 %
4035 11-04-2020 01:31:18 9.2 C 32 %
4036 11-04-2020 01:41:18 9 C 32 %
4037 11-04-2020 01:51:18 8.7 C 32 %
4038 11-04-2020 02:01:17 8.4 C 32 %
4039 11-04-2020 02:11:17 8.2 C 32 %
4040 11-04-2020 02:21:18 8.1 C 32 %
4041 11-04-2020 02:31:17 8.3 C 32 %
4042 11-04-2020 02:41:17 8.1 C 32 %
4043 11-04-2020 02:51:17 7.9 C 33 %
4044 11-04-2020 03:01:17 8.5 C 31 %
4045 11-04-2020 03:11:17 8.7 C 31 %
4046 11-04-2020 03:21:17 8.8 C 30 %
4047 11-04-2020 03:31:18 8.8 C 30 %
4048 11-04-2020 03:41:18 8.2 C 30 %
4049 11-04-2020 03:51:17 8.6 C 30 %
4050 11-04-2020 04:01:17 8.3 C 30 %
Sensor: Nr:Datum:Temp:Feuchte:
Aussen-T/F 4051 11-04-2020 04:11:17 8.3 C 30 %
4052 11-04-2020 04:21:17 7.7 C 30 %
4053 11-04-2020 04:31:17 7.4 C 30 %
4054 11-04-2020 04:41:17 7.5 C 30 %
4055 11-04-2020 04:51:17 7.6 C 29 %
4056 11-04-2020 05:01:17 7.4 C 29 %
4057 11-04-2020 05:11:17 6.9 C 30 %
4058 11-04-2020 05:21:17 6.8 C 30 %
4059 11-04-2020 05:31:18 6.1 C 31 %
4060 11-04-2020 05:41:18 5.8 C 32 %
4061 11-04-2020 05:51:17 5.7 C 32 %
4062 11-04-2020 06:01:17 5.6 C 32 %
4063 11-04-2020 06:11:17 5 C 33 %
4064 11-04-2020 06:21:17 4.9 C 35 %
4065 11-04-2020 06:31:18 5 C 33 %
4066 11-04-2020 06:41:18 4.6 C 35 %
4067 11-04-2020 06:51:17 4.6 C 35 %
4068 11-04-2020 07:01:18 4.4 C 35 %
4069 11-04-2020 07:11:18 4.5 C 35 %
4070 11-04-2020 07:21:17 4.4 C 35 %
4071 11-04-2020 07:31:18 4.4 C 36 %
4072 11-04-2020 07:41:18 4.7 C 35 %
4073 11-04-2020 07:51:17 5 C 34 %
4074 11-04-2020 08:01:18 5 C 34 %
4075 11-04-2020 08:11:18 5 C 35 %
Sensor: Nr:Datum:Temp:Feuchte:
Aussen-T/F 4076 11-04-2020 08:21:18 5.1 C 35 %
4077 11-04-2020 08:31:18 5.5 C 34 %
4078 11-04-2020 08:41:18 6 C 33 %
4079 11-04-2020 08:51:18 6.4 C 32 %
4080 11-04-2020 09:01:17 6.5 C 33 %
4081 11-04-2020 09:11:18 7.1 C 31 %
4082 11-04-2020 09:21:17 7.3 C 31 %
4083 11-04-2020 09:31:18 7.8 C 31 %
4084 11-04-2020 09:41:18 8.2 C 30 %
4085 11-04-2020 09:51:17 8.6 C 30 %
4086 11-04-2020 10:01:17 9.1 C 29 %
4087 11-04-2020 10:11:17 9.5 C 29 %
4088 11-04-2020 10:21:17 10.2 C 26 %
4089 11-04-2020 10:31:17 10.7 C 27 %
4090 11-04-2020 10:41:17 11.5 C 25 %
4091 11-04-2020 10:51:17 12.3 C 21 %
4092 11-04-2020 11:01:18 12.9 C 20 %
4093 11-04-2020 11:11:18 13.7 C 20 %
4094 11-04-2020 11:21:17 14.5 C 20 %
4095 11-04-2020 11:31:17 15.3 C 20 %
4096 11-04-2020 11:41:18 16 C 20 %
4097 11-04-2020 11:51:17 16.5 C 20 %
4098 11-04-2020 12:01:17 17.2 C 20 %
4099 11-04-2020 12:11:17 17.5 C 20 %
4100 11-04-2020 12:21:18 18.1 C 20 %
Sensor: Nr:Datum:Temp:Feuchte:
Aussen-T/F 4101 11-04-2020 12:31:17 19.1 C 20 %
4102 11-04-2020 12:41:17 19.4 C 20 %
4103 11-04-2020 12:51:17 19.5 C 20 %
4104 11-04-2020 13:01:17 19.6 C 20 %
4105 11-04-2020 13:11:17 19.5 C 20 %
4106 11-04-2020 13:21:17 19.5 C 20 %
4107 11-04-2020 13:31:17 19.6 C 20 %
4108 11-04-2020 13:41:17 19.9 C 20 %
4109 11-04-2020 13:51:17 20.2 C 20 %
4110 11-04-2020 14:01:18 20.9 C 20 %
4111 11-04-2020 14:11:18 21.3 C 20 %
4112 11-04-2020 14:21:17 21.5 C 20 %
4113 11-04-2020 14:31:17 24.4 C 20 %
4114 11-04-2020 14:41:17 27.5 C 20 %
4115 11-04-2020 14:51:18 27.4 C 20 %
4116 11-04-2020 15:01:18 28.6 C 20 %
4117 11-04-2020 15:11:18 30.4 C 20 %
4118 11-04-2020 15:21:17 29.9 C 20 %
4119 11-04-2020 15:31:17 30.4 C 20 %
4120 11-04-2020 15:41:17 31.2 C 20 %
4121 11-04-2020 15:51:18 31.8 C 20 %
4122 11-04-2020 16:01:17 28.5 C 20 %
4123 11-04-2020 16:11:17 31.4 C 20 %
4124 11-04-2020 16:21:18 30.7 C 20 %
4125 11-04-2020 16:31:17 31.5 C 20 %
Sensor: Nr:Datum:Temp:Feuchte:
Aussen-T/F 4126 11-04-2020 16:41:17 31.3 C 20 %
4127 11-04-2020 16:51:17 32.1 C 20 %
4128 11-04-2020 17:01:17 31.8 C 20 %
4129 11-04-2020 17:11:17 29.5 C 20 %
4130 11-04-2020 17:21:17 29.8 C 20 %
4131 11-04-2020 17:31:17 28.7 C 20 %
4132 11-04-2020 17:41:17 26.5 C 20 %
4133 11-04-2020 17:51:17 27.5 C 20 %
4134 11-04-2020 18:01:17 24.2 C 20 %
4135 11-04-2020 18:11:17 23.4 C 20 %
4136 11-04-2020 18:21:17 23.6 C 20 %
4137 11-04-2020 18:31:17 23.6 C 20 %
4138 11-04-2020 18:41:17 23.3 C 20 %
4139 11-04-2020 18:51:17 22.9 C 20 %
4140 11-04-2020 19:01:17 22.9 C 20 %
4141 11-04-2020 19:11:17 22.7 C 20 %
4142 11-04-2020 19:21:18 22 C 20 %
4143 11-04-2020 19:31:17 21.7 C 20 %
4144 11-04-2020 19:41:17 21.2 C 20 %
4145 11-04-2020 19:51:17 18.9 C 20 %
4146 11-04-2020 20:01:17 18 C 20 %
4147 11-04-2020 20:11:17 17.1 C 20 %
4148 11-04-2020 20:21:17 16.6 C 20 %
4149 11-04-2020 20:31:17 16.5 C 20 %
4150 11-04-2020 20:41:17 16.5 C 20 %
Sensor: Nr:Datum:Temp:Feuchte:
Aussen-T/F 4151 11-04-2020 20:51:17 16.2 C 20 %
4152 11-04-2020 21:01:18 16 C 20 %
4153 11-04-2020 21:11:18 15.5 C 20 %
4154 11-04-2020 21:21:18 15.4 C 20 %
4155 11-04-2020 21:31:17 15.1 C 20 %
4156 11-04-2020 21:41:17 14.8 C 20 %
4157 11-04-2020 21:51:17 14.5 C 20 %
4158 11-04-2020 22:01:17 14.3 C 20 %
4159 11-04-2020 22:11:17 14.4 C 20 %
4160 11-04-2020 22:21:17 14 C 20 %
4161 11-04-2020 22:31:18 14 C 21 %
4162 11-04-2020 22:41:18 14.4 C 21 %
4163 11-04-2020 22:51:17 14.4 C 22 %
4164 11-04-2020 23:01:17 13.7 C 23 %
4165 11-04-2020 23:11:17 13 C 24 %
4166 11-04-2020 23:21:18 12.3 C 26 %
4167 11-04-2020 23:31:18 12.1 C 26 %
4168 11-04-2020 23:41:18 11.8 C 27 %
4169 11-04-2020 23:51:17 11.7 C 28 %
Sensor: Nr:Datum:Temp:Feuchte:
G-T/H 1 14-03-2020 00:09:17 10.9 C 71 %
2 14-03-2020 00:19:18 10.9 C 71 %
3 14-03-2020 00:29:18 10.9 C 71 %
4 14-03-2020 00:39:18 10.8 C 71 %
5 14-03-2020 00:49:17 10.9 C 71 %
6 14-03-2020 00:59:17 10.8 C 71 %
7 14-03-2020 01:09:18 10.8 C 71 %
8 14-03-2020 01:19:17 10.8 C 71 %
9 14-03-2020 01:29:18 10.8 C 71 %
10 14-03-2020 01:39:18 10.8 C 71 %
11 14-03-2020 01:49:17 10.8 C 71 %
12 14-03-2020 01:59:18 10.7 C 71 %
13 14-03-2020 02:09:18 10.7 C 71 %
14 14-03-2020 02:19:18 10.8 C 71 %
15 14-03-2020 02:29:18 10.7 C 71 %
16 14-03-2020 02:39:18 10.7 C 71 %
17 14-03-2020 02:49:18 10.7 C 71 %
18 14-03-2020 02:59:18 10.7 C 71 %
19 14-03-2020 03:09:18 10.7 C 71 %
20 14-03-2020 03:19:17 10.7 C 71 %
21 14-03-2020 03:29:17 10.7 C 71 %
22 14-03-2020 03:39:17 10.7 C 71 %
23 14-03-2020 03:49:18 10.6 C 70 %
24 14-03-2020 03:59:18 10.6 C 70 %
25 14-03-2020 04:09:17 10.6 C 70 %
Sensor: Nr:Datum:Temp:Feuchte:
G-T/H 26 14-03-2020 04:19:17 10.6 C 70 %
27 14-03-2020 04:29:17 10.5 C 70 %
28 14-03-2020 04:39:17 10.5 C 70 %
29 14-03-2020 04:49:17 10.5 C 70 %
30 14-03-2020 04:59:17 10.4 C 69 %
31 14-03-2020 05:09:17 10.4 C 69 %
32 14-03-2020 05:19:17 10.4 C 69 %
33 14-03-2020 05:29:17 10.4 C 69 %
34 14-03-2020 05:39:18 10.3 C 69 %
35 14-03-2020 05:49:17 10.3 C 69 %
36 14-03-2020 05:59:17 10.3 C 68 %
37 14-03-2020 06:09:18 10.2 C 68 %
38 14-03-2020 06:19:18 10.2 C 68 %
39 14-03-2020 06:29:18 10.2 C 68 %
40 14-03-2020 06:39:18 10.2 C 68 %
41 14-03-2020 06:49:17 10.2 C 68 %
42 14-03-2020 06:59:17 10.2 C 68 %
43 14-03-2020 07:09:17 10.1 C 68 %
44 14-03-2020 07:19:17 10.1 C 68 %
45 14-03-2020 07:29:17 10.1 C 68 %
46 14-03-2020 07:39:18 10.1 C 68 %
47 14-03-2020 07:49:17 10.1 C 67 %
48 14-03-2020 07:59:17 10.1 C 67 %
49 14-03-2020 08:09:17 10 C 67 %
50 14-03-2020 08:19:17 10 C 67 %
Sensor: Nr:Datum:Temp:Feuchte:
G-T/H 51 14-03-2020 08:29:17 10 C 67 %
52 14-03-2020 08:39:18 10 C 67 %
53 14-03-2020 08:49:17 10 C 68 %
54 14-03-2020 08:59:17 10 C 68 %
55 14-03-2020 09:09:17 10 C 68 %
56 14-03-2020 09:19:17 10 C 68 %
57 14-03-2020 09:29:17 10 C 68 %
58 14-03-2020 09:39:18 10 C 68 %
59 14-03-2020 09:49:17 10 C 68 %
60 14-03-2020 09:59:17 10 C 69 %
61 14-03-2020 10:09:18 9.9 C 70 %
62 14-03-2020 10:19:18 10 C 69 %
63 14-03-2020 10:29:18 9.9 C 70 %
64 14-03-2020 10:39:18 10 C 69 %
65 14-03-2020 10:49:17 10 C 69 %
66 14-03-2020 10:59:17 10 C 69 %
67 14-03-2020 11:09:18 9.9 C 71 %
68 14-03-2020 11:19:18 10 C 70 %
69 14-03-2020 11:29:18 9.9 C 71 %
70 14-03-2020 11:39:18 10 C 70 %
71 14-03-2020 11:49:17 10 C 70 %
72 14-03-2020 11:59:17 10.1 C 70 %
73 14-03-2020 12:09:18 10.1 C 70 %
74 14-03-2020 12:19:17 10.1 C 70 %
75 14-03-2020 12:29:18 10.1 C 70 %
Sensor: Nr:Datum:Temp:Feuchte:
G-T/H 76 14-03-2020 12:39:18 10.1 C 70 %
77 14-03-2020 12:49:17 10.1 C 70 %
78 14-03-2020 12:59:17 10.1 C 70 %
79 14-03-2020 13:09:18 10.1 C 70 %
80 14-03-2020 13:19:17 10 C 70 %
81 14-03-2020 13:29:17 10.1 C 70 %
82 14-03-2020 13:39:17 10.1 C 70 %
83 14-03-2020 13:49:17 10.1 C 70 %
84 14-03-2020 13:59:17 10.1 C 70 %
85 14-03-2020 14:09:18 10.1 C 70 %
86 14-03-2020 14:19:17 10.2 C 71 %
87 14-03-2020 14:29:17 10.1 C 71 %
88 14-03-2020 14:39:17 10.2 C 71 %
89 14-03-2020 14:49:18 10.2 C 71 %
90 14-03-2020 14:59:18 10.2 C 71 %
91 14-03-2020 15:09:18 10.2 C 71 %
92 14-03-2020 15:19:17 10.2 C 71 %
93 14-03-2020 15:29:17 10.2 C 71 %
94 14-03-2020 15:39:18 10.2 C 71 %
95 14-03-2020 15:49:17 10.2 C 71 %
96 14-03-2020 15:59:17 10.2 C 71 %
97 14-03-2020 16:09:18 10.3 C 71 %
98 14-03-2020 16:19:17 10.3 C 71 %
99 14-03-2020 16:29:17 10.3 C 71 %
100 14-03-2020 16:39:18 10.3 C 71 %
Sensor: Nr:Datum:Temp:Feuchte:
G-T/H 101 14-03-2020 16:49:18 10.3 C 71 %
102 14-03-2020 16:59:18 10.3 C 71 %
103 14-03-2020 17:09:18 10.3 C 71 %
104 14-03-2020 17:19:17 10.3 C 71 %
105 14-03-2020 17:29:17 10.4 C 71 %
106 14-03-2020 17:39:17 10.4 C 71 %
107 14-03-2020 17:49:17 10.4 C 71 %
108 14-03-2020 17:59:17 10.4 C 71 %
109 14-03-2020 18:09:17 10.4 C 71 %
110 14-03-2020 18:19:17 10.4 C 71 %
111 14-03-2020 18:29:17 10.4 C 71 %
112 14-03-2020 18:39:17 10.4 C 71 %
113 14-03-2020 18:49:17 10.4 C 71 %
114 14-03-2020 18:59:17 10.4 C 71 %
115 14-03-2020 19:09:17 10.4 C 71 %
116 14-03-2020 19:19:17 10.4 C 71 %
117 14-03-2020 19:29:17 10.4 C 71 %
118 14-03-2020 19:39:17 10.4 C 71 %
119 14-03-2020 19:49:17 10.4 C 71 %
120 14-03-2020 19:59:17 10.4 C 71 %
121 14-03-2020 20:09:18 10.4 C 71 %
122 14-03-2020 20:19:18 10.4 C 71 %
123 14-03-2020 20:29:18 10.4 C 71 %
124 14-03-2020 20:39:18 10.4 C 71 %
125 14-03-2020 20:49:17 10.4 C 71 %
Sensor: Nr:Datum:Temp:Feuchte:
G-T/H 126 14-03-2020 20:59:18 10.4 C 71 %
127 14-03-2020 21:09:18 10.4 C 71 %
128 14-03-2020 21:19:18 10.4 C 71 %
129 14-03-2020 21:29:18 10.4 C 71 %
130 14-03-2020 21:39:17 10.4 C 71 %
131 14-03-2020 21:49:18 10.4 C 71 %
132 14-03-2020 21:59:18 10.4 C 71 %
133 14-03-2020 22:09:18 10.4 C 71 %
134 14-03-2020 22:19:17 10.4 C 71 %
135 14-03-2020 22:29:17 10.4 C 71 %
136 14-03-2020 22:39:18 10.4 C 71 %
137 14-03-2020 22:49:18 10.4 C 71 %
138 14-03-2020 22:59:18 10.4 C 71 %
139 14-03-2020 23:09:17 10.4 C 71 %
140 14-03-2020 23:19:17 10.4 C 71 %
141 14-03-2020 23:29:17 10.4 C 71 %
142 14-03-2020 23:39:17 10.4 C 71 %
143 14-03-2020 23:49:18 10.4 C 71 %
144 14-03-2020 23:59:18 10.4 C 71 %
145 15-03-2020 00:09:18 10.4 C 71 %
146 15-03-2020 00:19:17 10.4 C 71 %
147 15-03-2020 00:29:17 10.4 C 71 %
148 15-03-2020 00:39:18 10.4 C 71 %
149 15-03-2020 00:49:18 10.4 C 71 %
150 15-03-2020 00:59:18 10.4 C 71 %
Sensor: Nr:Datum:Temp:Feuchte:
G-T/H 151 15-03-2020 01:09:17 10.4 C 71 %
152 15-03-2020 01:19:18 10.4 C 71 %
153 15-03-2020 01:29:18 10.4 C 71 %
154 15-03-2020 01:39:17 10.3 C 71 %
155 15-03-2020 01:49:17 10.3 C 71 %
156 15-03-2020 01:59:17 10.3 C 71 %
157 15-03-2020 02:09:17 10.3 C 71 %
158 15-03-2020 02:19:17 10.3 C 71 %
159 15-03-2020 02:29:17 10.4 C 71 %
160 15-03-2020 02:39:18 10.3 C 71 %
161 15-03-2020 02:49:17 10.3 C 71 %
162 15-03-2020 02:59:17 10.3 C 71 %
163 15-03-2020 03:09:17 10.3 C 71 %
164 15-03-2020 03:19:17 10.3 C 71 %
165 15-03-2020 03:29:17 10.3 C 71 %
166 15-03-2020 03:39:18 10.2 C 71 %
167 15-03-2020 03:49:17 10.2 C 71 %
168 15-03-2020 03:59:17 10.2 C 71 %
169 15-03-2020 04:09:18 10.2 C 71 %
170 15-03-2020 04:19:18 10.2 C 71 %
171 15-03-2020 04:29:18 10.2 C 71 %
172 15-03-2020 04:39:18 10.2 C 70 %
173 15-03-2020 04:49:17 10.1 C 70 %
174 15-03-2020 04:59:18 10.1 C 70 %
175 15-03-2020 05:09:18 10.1 C 70 %
Sensor: Nr:Datum:Temp:Feuchte:
G-T/H 176 15-03-2020 05:19:17 10.1 C 70 %
177 15-03-2020 05:29:18 10.1 C 70 %
178 15-03-2020 05:39:18 10.1 C 69 %
179 15-03-2020 05:49:17 10.1 C 69 %
180 15-03-2020 05:59:17 10.1 C 69 %
181 15-03-2020 06:09:18 10 C 69 %
182 15-03-2020 06:19:17 10 C 69 %
183 15-03-2020 06:29:17 10 C 69 %
184 15-03-2020 06:39:18 10 C 69 %
185 15-03-2020 06:49:18 10 C 69 %
186 15-03-2020 06:59:18 10 C 69 %
187 15-03-2020 07:09:18 10 C 69 %
188 15-03-2020 07:19:18 10 C 69 %
189 15-03-2020 07:29:18 10 C 69 %
190 15-03-2020 07:39:18 10 C 69 %
191 15-03-2020 07:49:18 10 C 69 %
192 15-03-2020 07:59:18 10 C 69 %
193 15-03-2020 08:09:18 10 C 70 %
194 15-03-2020 08:19:18 10 C 70 %
195 15-03-2020 08:29:18 10 C 70 %
196 15-03-2020 08:39:18 10 C 70 %
197 15-03-2020 08:49:17 10 C 70 %
198 15-03-2020 08:59:17 10 C 70 %
199 15-03-2020 09:09:18 10 C 70 %
200 15-03-2020 09:19:18 9.9 C 71 %
Sensor: Nr:Datum:Temp:Feuchte:
G-T/H 201 15-03-2020 09:29:18 9.9 C 71 %
202 15-03-2020 09:39:18 10 C 70 %
203 15-03-2020 09:49:18 9.9 C 71 %
204 15-03-2020 09:59:18 9.9 C 72 %
205 15-03-2020 10:09:18 10 C 71 %
206 15-03-2020 10:19:18 9.9 C 72 %
207 15-03-2020 10:29:18 10 C 71 %
208 15-03-2020 10:39:18 9.9 C 72 %
209 15-03-2020 10:49:17 10 C 71 %
210 15-03-2020 10:59:17 10 C 71 %
211 15-03-2020 11:09:17 10 C 71 %
212 15-03-2020 11:19:17 10 C 71 %
213 15-03-2020 11:29:17 10 C 71 %
214 15-03-2020 11:39:18 10 C 71 %
215 15-03-2020 11:49:17 10.3 C 71 %
216 15-03-2020 11:59:18 10.5 C 69 %
217 15-03-2020 12:09:18 10.5 C 68 %
218 15-03-2020 12:19:18 10.7 C 66 %
219 15-03-2020 12:29:18 10.7 C 65 %
220 15-03-2020 12:39:18 10.8 C 64 %
221 15-03-2020 12:49:17 10.9 C 64 %
222 15-03-2020 12:59:17 11 C 62 %
223 15-03-2020 13:09:18 11 C 61 %
224 15-03-2020 13:19:17 11.1 C 61 %
225 15-03-2020 13:29:17 11.3 C 60 %
Sensor: Nr:Datum:Temp:Feuchte:
G-T/H 226 15-03-2020 13:39:18 11.3 C 60 %
227 15-03-2020 13:49:17 11.4 C 59 %
228 15-03-2020 13:59:17 11.5 C 58 %
229 15-03-2020 14:09:17 11.5 C 58 %
230 15-03-2020 14:19:17 11.6 C 57 %
231 15-03-2020 14:29:17 11.7 C 57 %
232 15-03-2020 14:39:18 11.7 C 56 %
233 15-03-2020 14:49:17 11.8 C 56 %
234 15-03-2020 14:59:17 11.9 C 55 %
235 15-03-2020 15:09:17 11.9 C 55 %
236 15-03-2020 15:19:17 12 C 53 %
237 15-03-2020 15:29:18 12.1 C 53 %
238 15-03-2020 15:39:18 12.2 C 53 %
239 15-03-2020 15:49:17 12.2 C 52 %
240 15-03-2020 15:59:17 12.2 C 52 %
241 15-03-2020 16:09:17 12.2 C 51 %
242 15-03-2020 16:19:17 12.3 C 51 %
243 15-03-2020 16:29:17 12.4 C 51 %
244 15-03-2020 16:39:17 12.4 C 51 %
245 15-03-2020 16:49:18 12.3 C 51 %
246 15-03-2020 16:59:18 12.1 C 52 %
247 15-03-2020 17:09:18 12.1 C 53 %
248 15-03-2020 17:19:18 12 C 54 %
249 15-03-2020 17:29:18 11.9 C 56 %
250 15-03-2020 17:39:18 11.9 C 56 %
Sensor: Nr:Datum:Temp:Feuchte:
G-T/H 251 15-03-2020 17:49:18 11.9 C 57 %
252 15-03-2020 17:59:18 11.8 C 58 %
253 15-03-2020 18:09:18 11.8 C 58 %
254 15-03-2020 18:19:18 11.8 C 59 %
255 15-03-2020 18:29:18 11.7 C 60 %
256 15-03-2020 18:39:18 11.7 C 60 %
257 15-03-2020 18:49:17 11.7 C 60 %
258 15-03-2020 18:59:17 11.7 C 61 %
259 15-03-2020 19:09:18 11.7 C 61 %
260 15-03-2020 19:19:18 11.7 C 61 %
261 15-03-2020 19:29:18 11.6 C 62 %
262 15-03-2020 19:39:18 11.6 C 62 %
263 15-03-2020 19:49:17 11.6 C 62 %
264 15-03-2020 19:59:17 11.6 C 62 %
265 15-03-2020 20:09:18 11.6 C 63 %
266 15-03-2020 20:19:17 11.5 C 63 %
267 15-03-2020 20:29:17 11.6 C 63 %
268 15-03-2020 20:39:18 11.6 C 63 %
269 15-03-2020 20:49:18 11.5 C 63 %
270 15-03-2020 20:59:18 11.5 C 64 %
271 15-03-2020 21:09:18 11.5 C 64 %
272 15-03-2020 21:19:17 11.5 C 64 %
273 15-03-2020 21:29:17 11.5 C 64 %
274 15-03-2020 21:39:17 11.5 C 64 %
275 15-03-2020 21:49:17 11.5 C 64 %
Sensor: Nr:Datum:Temp:Feuchte:
G-T/H 276 15-03-2020 21:59:17 11.5 C 64 %
277 15-03-2020 22:09:17 11.5 C 64 %
278 15-03-2020 22:19:17 11.5 C 64 %
279 15-03-2020 22:29:18 11.5 C 65 %
280 15-03-2020 22:39:17 11.4 C 65 %
281 15-03-2020 22:49:17 11.4 C 65 %
282 15-03-2020 22:59:17 11.4 C 65 %
283 15-03-2020 23:09:17 11.4 C 65 %
284 15-03-2020 23:19:17 11.4 C 65 %
285 15-03-2020 23:29:17 11.4 C 65 %
286 15-03-2020 23:39:17 11.4 C 65 %
287 15-03-2020 23:49:17 11.4 C 65 %
288 15-03-2020 23:59:17 11.3 C 65 %
289 16-03-2020 00:09:17 11.3 C 65 %
290 16-03-2020 00:19:17 11.3 C 65 %
291 16-03-2020 00:29:17 11.3 C 65 %
292 16-03-2020 00:39:17 11.2 C 64 %
293 16-03-2020 00:49:17 11.2 C 64 %
294 16-03-2020 00:59:17 11.2 C 64 %
295 16-03-2020 01:09:18 11.2 C 64 %
296 16-03-2020 01:19:17 11.2 C 64 %
297 16-03-2020 01:29:17 11.1 C 64 %
298 16-03-2020 01:39:17 11.1 C 64 %
299 16-03-2020 01:49:18 11.1 C 64 %
300 16-03-2020 01:59:18 11.1 C 64 %
Sensor: Nr:Datum:Temp:Feuchte:
G-T/H 301 16-03-2020 02:09:17 11.1 C 63 %
302 16-03-2020 02:19:17 11.1 C 63 %
303 16-03-2020 02:29:17 11 C 63 %
304 16-03-2020 02:39:17 11 C 63 %
305 16-03-2020 02:49:17 11 C 63 %
306 16-03-2020 02:59:17 11 C 63 %
307 16-03-2020 03:09:18 10.9 C 64 %
308 16-03-2020 03:19:17 10.9 C 64 %
309 16-03-2020 03:29:17 10.9 C 64 %
310 16-03-2020 03:39:17 10.9 C 64 %
311 16-03-2020 03:49:18 10.9 C 64 %
312 16-03-2020 03:59:18 10.8 C 64 %
313 16-03-2020 04:09:18 10.8 C 64 %
314 16-03-2020 04:19:18 10.8 C 64 %
315 16-03-2020 04:29:18 10.8 C 64 %
316 16-03-2020 04:39:18 10.7 C 64 %
317 16-03-2020 04:49:17 10.7 C 64 %
318 16-03-2020 04:59:18 10.7 C 63 %
319 16-03-2020 05:09:18 10.7 C 63 %
320 16-03-2020 05:19:18 10.7 C 63 %
321 16-03-2020 05:29:18 10.6 C 63 %
322 16-03-2020 05:39:18 10.6 C 63 %
323 16-03-2020 05:49:17 10.6 C 63 %
324 16-03-2020 05:59:17 10.6 C 63 %
325 16-03-2020 06:09:18 10.5 C 63 %
Sensor: Nr:Datum:Temp:Feuchte:
G-T/H 326 16-03-2020 06:19:17 10.5 C 63 %
327 16-03-2020 06:29:17 10.5 C 63 %
328 16-03-2020 06:39:17 10.5 C 63 %
329 16-03-2020 06:49:17 10.4 C 63 %
330 16-03-2020 06:59:17 10.4 C 63 %
331 16-03-2020 07:09:17 10.4 C 63 %
332 16-03-2020 07:19:17 10.4 C 63 %
333 16-03-2020 07:29:17 10.4 C 63 %
334 16-03-2020 07:39:17 10.3 C 63 %
335 16-03-2020 07:49:17 10.3 C 63 %
336 16-03-2020 07:59:17 10.3 C 63 %
337 16-03-2020 08:09:18 10.3 C 63 %
338 16-03-2020 08:19:17 10.2 C 63 %
339 16-03-2020 08:29:18 10.2 C 63 %
340 16-03-2020 08:39:18 10.2 C 63 %
341 16-03-2020 08:49:17 10.2 C 64 %
342 16-03-2020 08:59:17 10.2 C 64 %
343 16-03-2020 09:09:18 10.2 C 64 %
344 16-03-2020 09:19:18 10.2 C 64 %
345 16-03-2020 09:29:18 10.2 C 64 %
346 16-03-2020 09:39:18 10.2 C 65 %
347 16-03-2020 09:49:18 10.2 C 65 %
348 16-03-2020 09:59:18 10.2 C 65 %
349 16-03-2020 10:09:18 10.2 C 65 %
350 16-03-2020 10:19:18 10.1 C 65 %
Sensor: Nr:Datum:Temp:Feuchte:
G-T/H 351 16-03-2020 10:29:18 10.1 C 66 %
352 16-03-2020 10:39:17 10.2 C 66 %
353 16-03-2020 10:49:18 10.1 C 66 %
354 16-03-2020 10:59:18 10.2 C 66 %
355 16-03-2020 11:09:17 10.1 C 66 %
356 16-03-2020 11:19:17 10.2 C 66 %
357 16-03-2020 11:29:17 10.2 C 66 %
358 16-03-2020 11:39:18 10.2 C 67 %
359 16-03-2020 11:49:17 10.2 C 67 %
360 16-03-2020 11:59:17 10.2 C 67 %
361 16-03-2020 12:09:17 10.2 C 67 %
362 16-03-2020 12:19:17 10.3 C 67 %
363 16-03-2020 12:29:17 10.2 C 67 %
364 16-03-2020 12:39:17 10.3 C 67 %
365 16-03-2020 12:49:17 10.3 C 67 %
366 16-03-2020 12:59:17 10.3 C 67 %
367 16-03-2020 13:09:17 10.3 C 67 %
368 16-03-2020 13:19:17 10.4 C 67 %
369 16-03-2020 13:29:17 10.4 C 67 %
370 16-03-2020 13:39:17 10.4 C 68 %
371 16-03-2020 13:49:17 10.4 C 68 %
372 16-03-2020 13:59:17 10.4 C 68 %
373 16-03-2020 14:09:17 10.4 C 68 %
374 16-03-2020 14:19:17 10.5 C 68 %
375 16-03-2020 14:29:17 10.5 C 68 %
Sensor: Nr:Datum:Temp:Feuchte:
G-T/H 376 16-03-2020 14:39:17 10.5 C 68 %
377 16-03-2020 14:49:17 10.5 C 68 %
378 16-03-2020 14:59:17 10.5 C 68 %
379 16-03-2020 15:09:17 10.6 C 68 %
380 16-03-2020 15:19:17 10.5 C 68 %
381 16-03-2020 15:29:17 10.6 C 68 %
382 16-03-2020 15:39:18 10.7 C 68 %
383 16-03-2020 15:49:17 10.6 C 68 %
384 16-03-2020 15:59:17 10.7 C 68 %
385 16-03-2020 16:09:18 10.7 C 69 %
386 16-03-2020 16:19:18 10.7 C 69 %
387 16-03-2020 16:29:18 10.7 C 69 %
388 16-03-2020 16:39:17 10.8 C 69 %
389 16-03-2020 16:49:17 10.8 C 69 %
390 16-03-2020 16:59:17 10.8 C 69 %
391 16-03-2020 17:09:17 10.8 C 69 %
392 16-03-2020 17:19:17 10.8 C 69 %
393 16-03-2020 17:29:18 10.8 C 69 %
394 16-03-2020 17:39:18 10.9 C 69 %
395 16-03-2020 17:49:17 10.9 C 69 %
396 16-03-2020 17:59:18 10.9 C 69 %
397 16-03-2020 18:09:18 10.9 C 69 %
398 16-03-2020 18:19:18 10.9 C 69 %
399 16-03-2020 18:29:18 11 C 69 %
400 16-03-2020 18:39:18 11 C 69 %
Sensor: Nr:Datum:Temp:Feuchte:
G-T/H 401 16-03-2020 18:49:18 11 C 69 %
402 16-03-2020 18:59:18 11 C 69 %
403 16-03-2020 19:09:18 11 C 69 %
404 16-03-2020 19:19:18 11 C 69 %
405 16-03-2020 19:29:18 11 C 69 %
406 16-03-2020 19:39:18 11 C 69 %
407 16-03-2020 19:49:17 11 C 69 %
408 16-03-2020 19:59:18 11 C 69 %
409 16-03-2020 20:09:18 11.1 C 69 %
410 16-03-2020 20:19:18 11.1 C 69 %
411 16-03-2020 20:29:18 11.1 C 69 %
412 16-03-2020 20:39:18 11.1 C 69 %
413 16-03-2020 20:49:18 11.1 C 69 %
414 16-03-2020 20:59:18 11.1 C 69 %
415 16-03-2020 21:09:18 11.1 C 69 %
416 16-03-2020 21:19:17 11.1 C 69 %
417 16-03-2020 21:29:17 11.1 C 69 %
418 16-03-2020 21:39:17 11.2 C 69 %
419 16-03-2020 21:49:18 11.1 C 70 %
420 16-03-2020 21:59:18 11.2 C 70 %
421 16-03-2020 22:09:18 11.2 C 70 %
422 16-03-2020 22:19:18 11.2 C 70 %
423 16-03-2020 22:29:18 11.2 C 70 %
424 16-03-2020 22:39:18 11.2 C 70 %
425 16-03-2020 22:49:18 11.2 C 70 %
Sensor: Nr:Datum:Temp:Feuchte:
G-T/H 426 16-03-2020 22:59:18 11.2 C 70 %
427 16-03-2020 23:09:18 11.2 C 70 %
428 16-03-2020 23:19:17 11.2 C 70 %
429 16-03-2020 23:29:17 11.2 C 70 %
430 16-03-2020 23:39:17 11.2 C 70 %
431 16-03-2020 23:49:17 11.2 C 70 %
432 16-03-2020 23:59:17 11.2 C 70 %
433 17-03-2020 00:09:17 11.2 C 70 %
434 17-03-2020 00:19:17 11.3 C 70 %
435 17-03-2020 00:29:17 11.2 C 70 %
436 17-03-2020 00:39:18 11.2 C 70 %
437 17-03-2020 00:49:18 11.3 C 70 %
438 17-03-2020 00:59:18 11.3 C 70 %
439 17-03-2020 01:09:18 11.3 C 70 %
440 17-03-2020 01:19:17 11.3 C 70 %
441 17-03-2020 01:29:17 11.3 C 70 %
442 17-03-2020 01:39:17 11.2 C 70 %
443 17-03-2020 01:49:18 11.2 C 70 %
444 17-03-2020 01:59:18 11.3 C 70 %
445 17-03-2020 02:09:18 11.2 C 70 %
446 17-03-2020 02:19:17 11.2 C 70 %
447 17-03-2020 02:29:17 11.3 C 70 %
448 17-03-2020 02:39:17 11.3 C 70 %
449 17-03-2020 02:49:17 11.3 C 70 %
450 17-03-2020 02:59:17 11.3 C 70 %
Sensor: Nr:Datum:Temp:Feuchte:
G-T/H 451 17-03-2020 03:09:18 11.3 C 70 %
452 17-03-2020 03:19:18 11.3 C 70 %
453 17-03-2020 03:29:18 11.3 C 70 %
454 17-03-2020 03:39:17 11.2 C 70 %
455 17-03-2020 03:49:18 11.2 C 70 %
456 17-03-2020 03:59:18 11.2 C 70 %
457 17-03-2020 04:09:18 11.2 C 70 %
458 17-03-2020 04:19:18 11.2 C 70 %
459 17-03-2020 04:29:18 11.2 C 70 %
460 17-03-2020 04:39:17 11.3 C 70 %
461 17-03-2020 04:49:18 11.2 C 70 %
462 17-03-2020 04:59:18 11.2 C 70 %
463 17-03-2020 05:09:17 11.2 C 70 %
464 17-03-2020 05:19:17 11.2 C 70 %
465 17-03-2020 05:29:17 11.2 C 70 %
466 17-03-2020 05:39:17 11.2 C 70 %
467 17-03-2020 05:49:17 11.2 C 70 %
468 17-03-2020 05:59:18 11.2 C 70 %
469 17-03-2020 06:09:18 11.2 C 70 %
470 17-03-2020 06:19:18 11.2 C 70 %
471 17-03-2020 06:29:18 11.2 C 71 %
472 17-03-2020 06:39:18 11.2 C 70 %
473 17-03-2020 06:49:18 11.2 C 71 %
474 17-03-2020 06:59:18 11.2 C 71 %
475 17-03-2020 07:09:17 11.2 C 71 %
Sensor: Nr:Datum:Temp:Feuchte:
G-T/H 476 17-03-2020 07:19:17 11.2 C 71 %
477 17-03-2020 07:29:17 11.2 C 71 %
478 17-03-2020 07:39:17 11.2 C 71 %
479 17-03-2020 07:49:18 11.2 C 71 %
480 17-03-2020 07:59:18 11.2 C 71 %
481 17-03-2020 08:09:18 11.2 C 71 %
482 17-03-2020 08:19:17 11.2 C 71 %
483 17-03-2020 08:29:17 11.2 C 71 %
484 17-03-2020 08:39:17 11.2 C 71 %
485 17-03-2020 08:49:17 11.2 C 71 %
486 17-03-2020 08:59:17 11.2 C 71 %
487 17-03-2020 09:09:17 11.2 C 71 %
488 17-03-2020 09:19:18 11.2 C 71 %
489 17-03-2020 09:29:18 11.2 C 71 %
490 17-03-2020 09:39:18 11.2 C 71 %
491 17-03-2020 09:49:17 11.2 C 71 %
492 17-03-2020 09:59:17 11.2 C </